           , 1.998,  2.145,  2.293,  2.441,  2.589,  2.736,  2.884,  3.032,  3.179,  3.327,  3.475,  3.623,  3.770,  3.918,  4.066,  4.213,  4.361,  4.509,  4.657,  4.804,  4.952,  5.100,  5.248,  5.395,  5.543,  5.691,  5.838,  5.986,  6.134,  6.282,  6.429,  6.577,  6.725,  6.872,  7.020,  7.168,  7.316,  7.463,  7.611,  7.759,  7.907,  8.054,  8.202,  8.350,  8.497,  8.645,  8.793,  8.941,  9.088,  9.236,  9.384,  9.531,  9.679,  9.827,  9.975, 10.122, 10.270, 10.418, 10.565, 10.713, 10.861, 11.009, 11.156, 11.304, 11.452, 11.600, 11.747, 11.895, 12.043, 12.190, 12.338, 12.486, 12.634, 12.781, 12.929, 13.077, 13.224, 13.372, 13.520, 13.668, 13.815, 13.963, 14.111, 14.259, 14.406, 14.554, 14.702, 14.849, 14.997, 15.145, 15.293, 15.440, 15.588, 15.736, 15.883, 16.031, 16.179, 16.327, 16.474, 16.622, 16.770, 16.917, 17.065, 17.213, 17.361, 17.508, 17.656, 17.804, 17.952, 18.099, 18.247, 18.395, 18.542, 18.690, 18.838, 18.986, 19.133, 19.281, 19.429, 19.576
2004/10/19 00:05,   -5.0,   -3.5,   -1.5,    2.4,    6.3,    6.4,    6.2,    7.5,    9.9,   11.9,   14.0,   16.0,   15.6,   14.4,   11.3,   11.7,   11.0,   13.0,   14.2,   15.0,   15.3,   15.2,   16.7,   17.7,   17.8,   18.9,   21.0,   22.9,   23.8,   24.7,   26.3,   29.0,   31.9,   32.9,   33.9,   35.1,   33.7,   33.8,   31.1,   31.7,   32.8,   29.5,   29.5,   31.2,   33.0,   33.3,   32.1,   32.6,   33.8,   31.2,   31.2,   31.9,   34.5,   33.4,   34.0,   32.9,   33.6,   34.2,   36.2,   39.7,  999.0,  999.0,  999.0,   40.1,   41.9,   46.8,  999.0,   41.2,   45.8,   45.2,   50.6,  999.0,  999.0,  999.0,   42.7,  999.0,  999.0,  999.0,   39.0,   44.3,   41.3,  999.0,   37.2,   37.1,   37.5,   35.7,   37.4,   32.2,   24.4,   26.0,   25.3,  999.0,   19.1,   16.1,   16.3,   13.3,   12.5,   20.0,    8.4,    8.7,    9.5,   10.9,   11.2,    6.8,    5.9,    4.3,    4.1,    5.4,   12.1,   13.5,   13.4,  999.0,  999.0,    5.7,  999.0,  999.0,  999.0,  999.0,  999.0,  999.0
2004/10/19 00:15,   -4.8,   -2.5,    0.2,    2.9,    4.5,    4.6,    6.6,    9.0,   11.8,   14.3,   15.8,   16.4,   15.4,   14.1,   11.7,   10.9,   13.0,   14.3,   15.4,   15.0,   15.6,   16.6,   16.8,   16.5,   16.6,   18.3,   19.6,   20.5,   21.7,   22.3,   23.8,   26.4,   30.0,   31.3,   31.6,   32.2,   32.5,   33.6,   32.4,   31.4,   32.1,   31.0,   29.8,   32.8,   33.5,   33.4,   32.4,   33.9,   33.5,   32.5,   32.1,   32.1,   32.4,   34.7,   34.2,   32.6,   35.5,   35.9,   36.7,   40.2,  999.0,  999.0,  999.0,   39.1,   43.0,  999.0,  999.0,   42.5,   46.6,   46.5,   50.5,   48.7,  999.0,  999.0,  999.0,  999.0,  999.0,  999.0,  999.0,  999.0,   41.5,   44.4,  999.0,   35.4,   33.9,   33.9,   35.8,   30.2,   24.4,   24.2,   23.0,   21.7,   18.3,   14.6,   13.9,   13.0,   12.2,   11.9,    9.7,   10.1,   11.2,   12.3,   11.3,   13.1,    6.6,    3.3,    3.8,    5.5,   10.6,   13.7,   15.3,  999.0,  999.0,  999.0,  999.0,  999.0,  999.0,  999.0,  999.0,  999.0
2004/10/19 00:25,   -6.0,   -4.8,   -1.9,    1.4,    4.7,    4.0,    6.0,    7.2,    9.2,   11.4,   12.6,   14.2,   14.1,   13.7,   11.4,    9.9,   11.3,   13.1,   14.7,   15.3,   16.1,   16.5,   16.1,   16.8,   18.0,   19.5,   20.4,   21.2,   23.2,   26.1,   28.4,   30.1,   31.7,   32.7,   33.8,   34.0,   33.0,   33.3,   33.7,   32.8,   32.2,   32.7,   32.3,   33.6,   34.6,   33.9,   32.1,   30.8,   33.6,   33.7,   33.0,   33.1,   32.5,   34.3,   35.9,   33.6,   34.7,   34.8,   37.5,   43.5,  999.0,  999.0,  999.0,   40.4,   44.1,  999.0,  999.0,   42.9,   46.0,   46.3,   50.5,   58.0,   47.7,  999.0,  999.0,  999.0,  999.0,  999.0,  999.0,   43.6,   46.0,  999.0,   38.8,   37.3,   35.7,   36.9,   34.9,   30.0,   23.9,   24.5,   23.8,   20.7,   20.1,   14.7,   14.1,   13.6,   12.7,   12.1,   12.0,   11.6,   11.9,   12.7,   11.0,   10.4,  999.0,    4.1,    3.7,    4.6,    9.2,   12.1,   14.5,  999.0,    7.9,  999.0,  999.0,  999.0,   -1.7,  999.0,  999.0,  999.0
2004/10/19 00:35,   -7.0,   -4.4,   -0.8,    2.7,    4.5,    6.2,    7.1,   10.3,   10.6,   13.6,   14.9,   16.5,   15.9,   13.8,   12.5,    9.7,   11.3,   13.1,   14.8,   15.6,   15.4,   14.3,   14.8,   16.1,   17.9,   19.4,   21.0,   23.8,   26.2,   28.7,   30.3,   29.9,   31.5,   33.2,   32.8,   33.9,   33.6,   31.8,   32.6,   30.3,   32.6,   32.0,   32.4,   31.5,   35.0,   32.9,   28.8,   30.5,   32.8,   34.2,   33.0,   32.7,   32.4,   33.6,   34.3,   33.3,   35.1,   33.7,   36.9,   41.9,  999.0,  999.0,  999.0,   40.6,   43.5,   46.6,   41.8,   44.3,   46.4,   50.0,   49.6,   48.6,   48.9,   51.8,  999.0,  999.0,  999.0,  999.0,  999.0,   43.4,   45.9,   45.9,  999.0,   35.3,   38.9,   35.0,   34.7,   29.8,   24.2,   24.7,   21.9,   18.2,   17.8,   15.6,   15.3,  999.0,   11.1,   12.6,   13.2,  999.0,  999.0,   12.6,    9.6,  999.0,  999.0,    3.7,    4.2,    4.7,    9.4,   11.5,   13.4,  999.0,    6.4,  999.0,    1.3,   -2.1,   -2.9,  999.0,  999.0,  999.0
2004/10/19 00:45,   -4.8,   -2.6,    1.4,    6.0,    9.4,    7.6,    8.7,    7.5,    9.7,   10.3,   12.9,   13.2,   13.0,   14.2,    8.6,    9.5,   11.3,   14.1,   14.7,   15.0,   14.6,   14.5,   15.1,   16.8,   18.5,   19.7,   21.4,   23.4,   26.6,   29.4,   29.8,   30.0,   29.3,   32.2,   32.3,   33.5,   34.0,   32.4,   32.1,   31.7,   30.4,   31.6,   32.8,   31.4,   31.8,   30.0,   30.2,   31.1,   32.2,   32.7,   32.9,   32.2,   31.2,   33.0,   32.6,   33.7,   34.4,   34.1,   35.9,   40.1,   38.2,   38.2,   38.0,   41.5,   43.0,  999.0,   43.4,   43.6,   47.6,   47.8,   47.6,   47.0,   46.7,   45.3,   49.5,   49.3,  999.0,   46.6,  999.0,   45.8,   45.1,   45.5,   36.0,   38.3,   35.1,   32.6,   32.8,   29.7,   25.2,   25.2,   22.5,   17.9,   17.3,   15.3,   14.5,  999.0,  999.0,   14.2,   15.1,   14.5,   14.2,   18.1,  999.0,    8.1,    6.2,    4.3,    5.1,  999.0,    9.3,   12.4,   13.1,  999.0,    7.7,  999.0,  999.0,   -1.8,   -3.0,  999.0,  999.0,  999.0
2004/10/19 00:55,   -3.6,   -2.1,   -0.1,    2.8,    4.1,    4.7,    6.2,    7.2,    8.8,   11.4,   12.8,   13.0,   11.6,   10.7,   11.2,   10.0,   12.4,   14.2,   13.5,   12.9,   13.2,   13.5,   13.6,   14.0,   15.7,   17.9,   19.3,   22.0,   25.8,   28.9,   29.7,   30.5,   28.6,   30.7,   32.0,   31.3,   31.9,   31.8,   30.9,   30.8,   30.7,   31.3,   31.5,   30.7,   29.1,   29.5,   28.9,   29.6,   29.9,   29.9,   31.7,   31.0,   30.7,   32.9,   31.2,   34.4,   36.1,   33.4,   35.5,   39.3,  999.0,  999.0,  999.0,  999.0,   40.5,   44.6,   40.4,   45.6,   49.1,   45.3,   50.1,   52.0,   50.9,   46.7,   48.2,   53.6,  999.0,   43.6,   45.0,   48.7,   46.3,   44.9,   42.7,   39.0,   35.9,   34.1,   33.3,   28.3,   25.5,   23.6,   23.3,   16.8,   16.5,   15.3,   14.3,  999.0,  999.0,  999.0,   14.6,   15.3,   14.5,   14.8,   12.9,    5.1,    5.5,    4.5,    5.2,    6.0,    9.4,   12.0,  999.0,  999.0,    8.6,    6.1,  999.0,  999.0,  999.0,  999.0,  999.0,    0.9
2004/10/19 01:05,   -3.2,   -1.4,    0.3,    4.2,    3.4,    4.6,    5.3,    6.5,    9.4,   10.9,   12.6,   14.2,   13.5,   11.4,   10.7,    9.0,   10.3,   11.9,   12.2,   11.2,   12.1,   13.2,   14.3,   15.0,   15.4,   16.2,   18.0,   20.1,   23.5,   26.6,   28.7,   29.9,   29.6,   29.8,   30.6,   30.6,   29.5,   30.7,   31.1,   31.2,   31.2,   31.1,   30.7,   30.9,   30.8,   30.0,   31.3,   29.7,   29.3,   30.1,   31.7,   30.7,   31.5,   31.5,   32.4,   36.1,   35.1,   35.8,   37.2,   39.4,  999.0,  999.0,  999.0,  999.0,   40.5,   44.7,   43.1,   44.0,   46.3,   48.0,   50.5,   48.8,  999.0,   46.9,   48.2,   47.4,   51.6,   49.1,   46.3,   50.4,   46.2,   42.5,   43.0,   38.4,   36.2,   35.3,   32.2,   28.3,   26.8,   20.1,   21.4,   16.3,   16.0,   15.9,   15.7,  999.0,  999.0,  999.0,   14.7,   14.8,   16.4,   16.7,  999.0,    5.9,    4.5,    5.6,    7.2,    8.7,   11.5,   12.1,   12.9,   12.7,    6.4,  999.0,  999.0,  999.0,   43.3,  999.0,    3.4,  999.0
2004/10/19 01:15,   -2.9,   -1.6,    0.8,    3.4,    4.7,    4.5,    5.1,    6.8,    8.8,   11.5,   12.9,   14.4,   13.0,   11.4,    9.5,    9.8,   10.7,   11.2,   11.6,   11.6,   12.3,   13.6,   14.6,   14.8,   15.1,   15.7,   17.2,   19.5,   20.5,   22.6,   27.3,   29.1,   27.3,   29.5,   28.1,   28.8,   30.2,   30.3,   31.8,   31.6,   31.4,   30.6,   30.7,   30.5,   30.2,   29.7,   29.8,   28.6,   30.0,   31.3,   32.7,   32.1,   32.2,   32.1,   32.2,   34.8,   35.3,   37.5,   37.9,   39.6,  999.0,   35.4,  999.0,  999.0,   40.8,   43.3,   44.8,   45.5,   45.0,   46.8,   49.7,  999.0,   46.3,  999.0,   48.9,   48.5,   48.3,   50.2,   47.8,  999.0,   48.1,   46.0,   43.3,   41.0,   38.8,   36.6,   32.2,   29.4,   27.6,   21.2,   21.2,   16.3,   17.1,   16.8,   14.7,  999.0,  999.0,  999.0,   15.4,   13.8,   17.1,   18.7,   11.5,  999.0,    6.7,    7.1,    9.0,   11.0,   12.3,   15.4,  999.0,    9.9,    4.1,  999.0,  999.0,  999.0,  999.0,    1.4,    2.3,  999.0
2004/10/19 01:25,   -3.5,   -1.4,    0.2,    5.4,    4.7,    3.9,    3.1,    4.8,    8.0,   10.0,   12.0,   13.6,   12.2,    9.8,    8.7,    8.9,   10.1,   11.6,   11.6,   11.6,   12.6,   13.6,   14.6,   14.4,   15.5,   16.8,   18.1,   19.2,   20.8,   23.2,   26.4,   27.7,   27.8,   27.6,   27.7,   28.1,   28.1,   28.2,   29.8,   30.4,   29.9,   30.1,   30.0,   31.3,   30.9,   30.8,   30.4,   31.0,   30.4,   30.5,   30.9,   33.7,   32.7,   31.2,   33.3,   34.7,   36.5,   38.9,   41.4,   40.0,   36.9,  999.0,  999.0,  999.0,   41.1,   42.7,   41.9,   44.0,   47.0,   47.0,   47.8,   46.4,   48.0,   46.7,  999.0,   47.9,   46.6,   50.8,   47.2,   49.4,   47.1,   47.4,   43.3,   40.4,   37.7,   35.1,   34.9,   30.8,   26.7,   23.6,   20.6,   16.8,   15.8,   15.5,   14.5,  999.0,  999.0,  999.0,  999.0,   16.7,   18.5,   15.8,   10.6,    7.3,    7.5,    7.3,    8.3,   10.5,   11.8,   11.6,    9.2,    7.4,  999.0,  999.0,  999.0,  999.0,  999.0,    1.7,  999.0,  999.0
2004/10/19 01:35,   -2.7,    0.4,    3.2,    3.0,    4.1,    3.7,    4.8,    6.5,    8.0,   10.7,   12.2,   13.2,   13.5,   11.4,    8.7,    8.7,    9.1,   10.4,   11.2,   11.6,   12.8,   13.6,   14.0,   14.1,   14.5,   15.8,   17.9,   19.6,   19.9,   21.2,   23.8,   25.8,   26.5,   27.2,   27.7,   27.8,   27.9,   27.7,   27.6,   28.9,   30.2,   31.8,   32.6,   32.2,   29.9,   28.8,   29.2,   30.1,   30.1,   29.8,   30.1,   30.7,   31.2,   30.6,   32.5,   34.7,   35.6,   38.1,   40.0,   38.3,   37.4,  999.0,  999.0,   37.3,   42.7,   44.8,   45.7,   46.0,   46.6,   47.4,   47.8,  999.0,  999.0,  999.0,  999.0,   44.3,   49.0,  999.0,  999.0,  999.0,   47.2,  999.0,   39.9,   40.1,   35.3,   34.4,   33.1,   28.5,   26.8,   23.6,   20.0,   17.6,   14.7,   15.3,   13.6,  999.0,  999.0,  999.0,   17.2,   18.3,   18.5,   15.0,   10.0,  999.0,    7.2,    7.3,    9.4,   11.2,   13.4,  999.0,  999.0,  999.0,  999.0,  999.0,  999.0,  999.0,   -0.8,    2.6,  999.0,  999.0
2004/10/19 01:45,   -2.1,   -0.4,    2.3,    3.3,    4.6,    4.0,    4.2,    6.7,    8.0,    9.8,   12.4,   13.1,   11.4,  999.0,    9.4,   10.2,   10.3,   10.3,   13.1,   13.6,   14.8,   14.8,   13.9,   14.0,   14.6,   16.1,   17.6,   17.4,   18.5,   19.2,   20.9,   23.4,   25.9,   27.0,   28.1,   27.9,   27.9,   29.1,   28.4,   28.4,   29.6,   29.9,   30.6,   30.1,   30.6,   31.1,   30.5,   30.0,   30.2,   30.7,   31.1,   30.4,   30.7,   30.7,   33.1,   33.1,   36.7,   36.7,   40.1,   41.3,  999.0,  999.0,  999.0,   38.1,   43.3,   45.7,   46.6,   45.6,   46.5,   47.2,   46.6,  999.0,   48.0,   44.6,   43.1,   45.7,   51.2,  999.0,  999.0,  999.0,  999.0,   35.1,   39.8,   39.3,   36.5,   35.8,   33.7,   29.0,   24.1,   22.4,   19.8,   16.1,   15.5,   16.1,   16.9,   15.7,  999.0,   16.2,   18.5,   19.6,   17.4,   11.3,   10.1,    7.0,  999.0,    8.1,    8.5,   10.0,   12.4,   14.1,   10.8,    7.7,    7.6,  999.0,  999.0,  999.0,   -0.3,    0.7,  999.0,  999.0
2004/10/19 01:55,   -2.5,    0.2,    5.0,    5.7,    4.4,    3.5,    4.9,    7.0,    8.5,   10.1,   11.9,   10.8,    6.3,    6.5,    8.9,    9.9,   11.0,   11.9,   13.3,   14.3,   14.9,   15.1,   14.6,   15.3,   16.3,   16.8,   16.9,   18.5,   20.5,   21.6,   24.1,   25.4,   26.3,   27.2,   28.2,   27.1,   27.2,   28.3,   27.3,   26.9,   26.8,   28.0,   27.7,   28.3,   28.5,   28.6,   29.2,   29.1,   30.4,   31.3,   30.6,   30.3,   30.6,   31.4,   31.2,   32.9,   36.4,   39.1,   40.2,   38.0,  999.0,  999.0,  999.0,   41.3,   44.6,   46.5,   48.1,   48.6,   46.5,  999.0,  999.0,  999.0,  999.0,  999.0,   45.1,   48.6,   49.1,  999.0,  999.0,  999.0,   48.0,   41.3,   39.2,   37.8,   35.4,  999.0,   32.0,   30.3,   23.3,   19.4,   20.2,   18.4,   16.0,   17.0,   15.5,   15.6,   15.0,   16.0,   18.2,   20.6,   17.9,    9.2,    8.2,    6.7,    9.0,    7.8,  999.0,  999.0,   10.2,   12.6,   12.7,    8.5,    7.3,    5.9,  999.0,  999.0,   -0.7,    0.3,  999.0,  999.0
2004/10/19 02:05,   -3.5,   -0.6,    2.9,    5.0,    4.7,    3.5,    5.3,    6.9,    8.3,    9.4,   10.0,    8.9,    7.7,    8.9,   10.2,   11.9,   11.1,   12.8,   13.6,   14.5,   13.8,   16.1,   14.8,   15.7,   16.4,   17.9,   19.5,   22.0,   25.1,   26.7,   25.6,   26.6,   27.2,   27.7,   27.3,   26.6,   27.1,   26.6,   27.4,   28.0,   28.7,   28.3,   28.1,   28.6,   28.6,   28.2,   28.5,   29.4,   29.6,   29.0,   29.8,   30.4,   29.8,   30.7,   31.4,   31.4,   34.9,   38.3,   39.8,   39.9,   39.4,  999.0,   39.4,   40.5,   43.0,   45.4,   46.0,   47.1,   46.4,   47.4,  999.0,  999.0,  999.0,  999.0,   43.0,   44.2,   49.2,  999.0,   43.2,   47.1,  999.0,   37.7,   41.4,   36.7,   36.4,   34.9,   31.8,   29.0,   25.8,   20.5,   19.3,   18.6,   15.4,   15.1,   16.3,  999.0,   15.2,  999.0,  999.0,   18.9,   18.0,  999.0,    8.0,    7.7,   10.7,   12.4,  999.0,  999.0,   10.7,   12.0,   10.2,    8.2,    6.7,  999.0,  999.0,  999.0,   -0.4,  999.0,  999.0,  999.0
2004/10/19 02:15,   -2.2,    0.5,    3.9,    4.4,    5.0,    4.4,    5.4,    5.1,    7.0,    8.9,    9.6,    9.5,    8.3,  999.0,   10.0,    9.3,   10.1,   11.7,   13.3,   12.8,   13.6,   14.0,   14.7,   15.1,   16.4,   18.3,   19.2,   21.3,   24.7,   26.3,   27.5,   28.9,   26.8,   26.8,   26.0,   26.2,   26.9,   27.5,   27.4,   27.9,   28.5,   28.4,   28.8,   28.9,   28.3,   29.7,   30.2,   30.0,   30.0,   29.2,   28.8,   28.7,   28.4,   28.5,   30.7,   31.5,   34.5,   36.9,   37.8,   39.0,   39.5,   40.8,   41.9,   43.0,   44.9,   45.9,   45.7,   46.7,   46.4,  999.0,   42.1,  999.0,   47.9,  999.0,  999.0,   46.8,   46.8,   49.2,  999.0,   46.8,   37.4,   40.7,   39.8,   34.6,   37.2,   35.3,   34.2,   25.2,   24.3,   20.0,   18.5,   16.9,   16.5,   14.8,   16.9,  999.0,   16.7,   16.7,   16.5,   19.1,   18.2,    8.6,    7.9,    8.4,   10.8,    8.3,    6.5,    7.0,   11.5,   11.9,    8.3,    6.2,  999.0,  999.0,  999.0,  999.0,    1.8,  999.0,  999.0,  999.0
2004/10/19 02:25,   -2.0,    1.5,    4.5,    6.1,    4.8,    4.1,    4.7,    4.7,    6.5,    7.9,    8.9,    9.5,    9.0,    8.6,    7.8,    9.6,    9.4,   10.2,   11.9,   11.8,   12.7,   13.3,   13.6,   14.4,   15.8,   17.1,   16.9,   19.5,   23.5,   26.9,   27.4,   26.5,   24.5,   25.6,   25.9,   26.5,   26.9,   26.6,   26.0,   26.1,   27.0,   27.4,   27.3,   26.8,   26.9,   26.9,   27.1,   28.8,   29.1,   30.2,   29.1,   29.6,   30.6,   31.3,   31.6,   33.9,   38.0,   36.2,   37.6,   39.6,   39.2,   39.6,   41.7,   43.2,   44.6,   45.8,   47.8,   45.1,   48.2,   45.2,  999.0,  999.0,   36.0,  999.0,  999.0,   46.5,   46.5,  999.0,  999.0,  999.0,   40.1,   41.6,   39.6,   37.4,   36.8,   35.4,   32.5,   24.1,   24.7,   20.1,   18.0,   15.8,   15.8,   15.0,   16.0,   15.3,   15.5,   17.2,   19.1,   19.6,   16.8,   10.0,    7.3,    8.0,  999.0,  999.0,  999.0,  999.0,   10.9,   10.1,    7.8,  999.0,  999.0,  999.0,  999.0,  999.0,    1.9,  999.0,  999.0,  999.0
2004/10/19 02:35,   -0.2,    3.0,    4.3,    3.3,    3.4,    3.7,    4.4,    6.0,    7.6,    9.4,   10.2,    9.6,    9.9,   10.4,    8.0,    9.6,   11.1,   11.8,   13.1,   14.5,   13.8,   14.3,   14.3,   14.4,   14.8,   15.2,   17.3,   19.9,   23.5,   26.2,   25.7,   25.0,   24.4,   23.9,   23.9,   24.4,   24.7,   25.1,   25.2,   25.9,   26.0,   26.0,   26.6,   26.5,   26.9,   27.1,   25.9,   25.0,   24.9,   24.2,   24.4,   24.3,   25.3,   26.6,   27.2,   29.0,   33.0,   37.9,   39.5,   40.1,   40.0,   38.8,   40.7,   42.6,   42.8,   44.2,   46.7,   46.9,   46.6,   46.0,   50.1,   50.3,   50.7,   45.7,  999.0,  999.0,   48.1,   51.6,  999.0,   41.7,   40.8,   43.1,   38.9,   38.6,   36.0,   36.2,   32.3,   27.5,   26.3,   22.4,   21.0,   17.0,   17.5,   17.9,   17.0,  999.0,   15.6,   16.8,   19.0,   20.1,   19.0,    8.5,    7.9,    9.7,   12.1,   13.9,  999.0,    9.1,    9.7,   10.6,    8.7,    7.9,  999.0,  999.0,  999.0,  999.0,  999.0,  999.0,  999.0,  999.0
2004/10/19 02:45,    3.2,    4.4,    5.5,    4.5,    3.1,    4.4,    4.9,    6.2,    7.5,   10.8,   10.7,   11.2,   11.7,   12.1,   10.6,    9.6,    9.9,   11.3,   12.0,   13.4,   13.2,   13.9,   14.3,   14.6,   13.4,   15.1,   17.2,   19.8,   23.6,   25.5,   24.5,   23.8,   22.9,   22.8,   23.3,   24.6,   25.6,   26.4,   26.4,   27.6,   27.5,   27.4,   28.1,   28.8,   29.0,   28.7,   28.4,   27.6,   27.7,   26.4,   25.9,   25.1,   25.8,   27.9,   30.7,   33.3,   37.7,   40.7,   40.5,   39.0,   39.0,   40.8,   42.6,   43.8,   45.0,   45.6,   45.1,   45.1,   46.3,   46.9,   47.9,  999.0,  999.0,  999.0,  999.0,  999.0,  999.0,   44.6,  999.0,  999.0,   36.8,   41.2,   40.0,   39.0,   34.1,   32.9,   31.3,   27.0,   23.0,   21.7,   18.3,   15.5,   15.7,   16.9,   13.4,   14.2,   15.1,   17.5,   18.3,   19.2,   18.6,   10.5,    8.2,    9.8,   11.6,  999.0,  999.0,   11.2,   10.9,   11.1,    9.0,    6.9,    2.4,  999.0,  999.0,  999.0,  999.0,  999.0,  999.0,  999.0
2004/10/19 02:55,   -0.9,    3.7,    4.4,    4.6,    3.0,    4.4,    4.9,    5.7,    6.5,   11.1,   12.0,   11.4,   11.9,   11.9,   10.7,   12.4,   12.4,   11.8,   11.6,   12.2,   13.7,   14.2,   14.0,   14.3,   13.9,   15.6,   16.8,   19.2,   23.6,   25.1,   24.6,   22.3,   22.1,   23.3,   25.0,   25.9,   25.9,   27.0,   28.0,   28.5,   30.0,   30.3,   31.1,   32.4,   32.9,   32.3,   31.1,   30.3,   28.7,   29.7,   29.6,   30.1,   30.6,   31.6,   32.3,   34.5,   36.1,   38.5,   41.8,   40.0,   40.7,   43.8,   45.0,   43.9,   45.7,   42.6,   44.5,   46.8,   46.1,   45.6,   50.0,   49.1,  999.0,  999.0,   43.4,  999.0,   47.1,  999.0,  999.0,  999.0,  999.0,   39.1,   40.6,   38.5,   34.0,   33.5,   30.0,   26.1,   24.6,   18.9,   18.8,   16.5,   16.0,   15.2,   15.8,   14.0,   15.8,   18.2,   17.4,   18.0,   17.0,   16.8,    8.2,    9.7,   11.4,   11.0,  999.0,   10.1,   11.5,   10.7,    8.3,    4.9,  999.0,  999.0,  999.0,  999.0,  999.0,  999.0,  999.0,  999.0
2004/10/19 03:05,    0.5,    3.6,    5.7,    5.6,    4.5,    5.3,    6.0,    6.0,    7.1,    9.9,   10.3,   11.2,   10.1,   11.8,   12.1,   12.5,   10.5,   11.9,   11.6,   11.9,   13.0,   14.8,   13.8,   13.8,   14.0,   14.5,   16.8,   21.2,   24.4,   23.6,   23.1,   21.8,   23.0,   25.3,   26.4,   28.1,   29.4,   29.6,   29.9,   29.9,   29.5,   29.6,   31.4,   32.0,   31.6,   31.7,   31.1,   31.7,   31.3,   32.1,   32.7,   33.4,   34.1,   34.1,   33.4,   33.3,   34.6,   37.7,   40.9,   41.3,   40.9,   42.3,   44.1,   44.6,   47.5,   44.6,   45.8,   46.8,   47.0,   48.8,   49.7,   47.0,  999.0,  999.0,   45.5,  999.0,   45.8,   43.6,  999.0,  999.0,   39.8,   41.4,   42.1,   38.7,   35.8,   34.6,   30.3,   27.3,   22.4,   21.6,   20.0,   16.7,   15.8,   15.3,   15.1,   14.4,   15.3,   17.8,   19.3,   20.9,   16.1,   16.3,    9.5,   10.7,   12.4,  999.0,  999.0,   11.3,   13.4,   13.5,    8.7,    1.8,    2.5,  999.0,  999.0,   -1.4,  999.0,    5.8,  999.0,  999.0
2004/10/19 03:15,    0.3,    4.2,    5.2,    5.5,    4.1,    3.6,    5.3,    5.3,    6.0,    7.9,   10.0,   10.4,   10.2,    9.6,   10.2,   11.2,   12.2,   13.2,   14.4,   14.9,   15.0,   15.0,   14.9,   14.7,   15.1,   16.3,   18.1,   21.8,   25.3,   24.4,   23.0,   21.9,   22.5,   23.5,   24.8,   26.4,   27.7,   28.2,   27.1,   27.2,   28.7,   29.8,   30.4,   30.4,   29.6,   29.9,   29.6,   29.7,   29.4,   30.0,   30.7,   31.7,   33.1,   34.9,   34.2,   35.0,   34.6,   36.1,   39.9,   43.2,   41.4,   42.6,   44.1,   46.6,   45.9,   44.7,   45.2,   46.7,   46.7,   47.5,   49.4,   49.3,   50.4,   44.4,   52.0,   47.4,   47.2,   45.5,  999.0,  999.0,  999.0,   41.3,   42.9,   37.3,   34.5,   36.0,   28.8,   26.2,   24.6,   20.7,   19.8,   15.2,   14.0,   14.0,   14.5,  999.0,   15.2,   17.7,   18.8,   19.4,   15.7,   14.0,   13.7,   11.3,   12.2,   13.0,   12.8,   11.4,   13.4,   13.0,    8.4,    4.2,    3.9,    7.4,  999.0,  999.0,  999.0,    4.3,  999.0,  999.0
2004/10/19 03:25,    0.9,    3.7,    4.5,    4.6,    3.2,    4.7,    4.7,    5.0,    6.5,    9.0,    9.5,   10.4,   12.1,   10.8,   10.7,   11.5,   12.4,   13.0,   13.4,   14.0,   15.2,   15.0,   14.7,   15.1,   16.8,   19.2,   21.0,   23.0,   24.0,   23.9,   22.9,   21.7,   22.2,   21.7,   22.6,   24.1,   24.9,   25.8,   26.1,   26.9,   27.1,   27.6,   27.9,   27.4,   28.0,   29.2,   28.6,   29.0,   29.0,   29.1,   29.6,   30.2,   30.4,   31.2,   32.4,   32.7,   33.1,   32.5,   35.4,   39.8,   40.8,   41.7,   44.3,   45.5,   45.9,   44.4,   45.6,   48.0,   48.1,   44.8,   46.5,   48.0,   45.3,   46.2,   48.5,  999.0,   48.3,  999.0,  999.0,  999.0,  999.0,   39.6,   42.9,  999.0,   32.9,   35.2,   26.2,   26.0,   23.7,   19.7,   18.8,   16.2,   15.9,   15.6,   14.7,   15.0,   16.4,   18.6,   18.6,   21.0,   22.0,   14.6,   14.1,    9.4,   11.6,   12.7,   11.6,   10.9,   11.8,   11.0,    5.6,    3.1,  999.0,  999.0,  999.0,  999.0,  999.0,    4.8,  999.0,  999.0
2004/10/19 03:35,    0.4,    2.2,    3.8,    3.7,    3.0,    4.1,    4.0,    5.1,    7.4,    8.6,    9.5,   10.9,   14.3,    9.8,   10.6,   11.1,   10.4,   11.9,   11.8,   13.2,   15.3,   16.0,   15.3,   16.6,   18.2,   20.0,   22.2,   24.2,   24.1,   22.5,   21.6,   20.8,   20.0,   18.9,   20.8,   23.4,   25.2,   25.1,   25.0,   24.3,   23.7,   23.7,   23.2,   23.7,   24.7,   24.2,   25.6,   26.5,   27.5,   28.9,   29.1,   29.5,   31.2,   31.3,   32.0,   31.2,   31.9,   33.0,   36.8,   40.9,   42.9,   39.8,   41.9,   43.9,   46.1,   46.1,   45.1,   47.2,   46.9,   46.9,   47.1,   47.9,   49.7,   47.0,   41.5,  999.0,   47.4,  999.0,  999.0,  999.0,   41.4,   42.8,   48.4,  999.0,  999.0,   35.9,   30.4,   28.5,   23.7,   22.5,   19.0,   15.5,   16.3,   19.6,   18.7,   15.3,   15.8,   19.7,   19.4,   20.5,   23.2,  999.0,   14.1,   10.1,   11.1,   13.3,   12.1,   12.2,   11.7,    6.9,    4.0,    2.9,    4.4,  999.0,  999.0,  999.0,  999.0,    4.2,  999.0,  999.0
2004/10/19 03:45,    1.5,    3.2,    3.0,    2.7,    4.0,    4.3,    4.5,    6.4,    7.5,    8.3,    9.6,   10.2,    9.9,    9.9,   11.0,   10.0,    9.9,   11.5,   11.8,   14.0,   15.0,   15.7,   16.6,   17.5,   19.1,   21.7,   23.5,   23.8,   22.3,   21.3,   20.9,   20.3,   19.5,   19.8,   22.2,   23.8,   24.1,   23.4,   22.8,   21.5,   21.0,   22.4,   23.8,   25.0,   25.9,   26.4,   26.6,   27.2,   27.5,   28.3,   29.2,   29.7,   30.4,   30.4,   30.5,   32.0,   32.9,   33.1,   36.0,   38.9,   41.2,   43.8,   41.4,   39.7,   43.2,   45.7,   45.5,   45.3,   48.2,   48.0,   48.0,   47.6,   49.2,   49.7,   50.3,   49.4,   46.5,   53.6,  999.0,  999.0,   38.5,   42.6,   45.3,   36.0,   39.9,   34.9,   33.1,   28.4,   23.7,   22.0,   19.4,   17.5,   16.5,   18.4,   19.8,  999.0,   18.4,   20.8,   21.1,   22.9,   24.8,   15.6,  999.0,   11.0,   12.3,   13.7,   12.9,   12.3,   12.6,    8.8,    4.9,    1.5,    3.5,  999.0,  999.0,  999.0,  999.0,    4.4,    7.2,  999.0
2004/10/19 03:55,    0.6,    2.3,    2.0,    2.4,    3.6,    3.6,    4.4,    6.3,    8.0,    9.8,    9.8,   10.6,  999.0,   11.5,    9.6,   10.8,   11.5,   12.9,   12.8,   13.9,   15.0,   16.0,   18.1,   18.5,   19.9,   21.1,   22.2,   22.1,   20.0,   19.9,   20.0,   21.2,   21.3,   21.8,   22.6,   22.4,   22.6,   22.1,   22.6,   22.0,   23.2,   24.5,   25.2,   25.9,   26.6,   26.9,   27.0,   27.9,   28.0,   29.0,   30.3,   30.6,   29.2,   29.1,   29.5,   30.1,   31.0,   32.3,   34.4,   36.7,   38.9,   40.4,   38.9,   40.5,   42.5,   42.3,   44.4,   44.2,   46.5,   47.7,   46.7,   46.8,   45.2,   48.9,   51.2,   48.6,   47.1,   50.9,   42.6,  999.0,   38.0,   41.8,   45.5,   37.3,   37.9,   34.5,   31.7,   26.2,   23.0,   21.8,   18.6,   13.5,   14.8,   17.5,   19.1,   15.5,   19.0,   22.1,   23.1,   24.1,   17.7,   16.0,  999.0,   11.0,  999.0,   12.1,   14.2,   10.5,   12.4,   11.6,    6.1,    2.8,  999.0,  999.0,  999.0,  999.0,   -1.8,  999.0,    6.5,  999.0
2004/10/19 04:05,   -1.5,    2.8,    2.7,    2.6,    3.1,    3.1,    3.3,    6.0,    7.9,    9.7,   10.7,   11.3,   14.1,   10.3,    9.3,    8.9,   10.4,   11.8,   13.0,   13.1,   14.8,   15.5,   18.0,   17.5,   18.9,   21.5,   21.9,   20.0,   19.4,   20.4,   21.2,   21.2,   20.8,   20.5,   20.7,   20.8,   20.7,   20.7,   21.7,   23.0,   23.1,   24.1,   24.6,   24.8,   25.0,   25.0,   25.2,   25.9,   25.8,   26.6,   25.9,   25.2,   25.2,   25.9,   26.5,   25.4,   25.7,   28.6,   31.3,   34.8,   37.8,   40.5,   41.4,   40.2,   41.8,   42.0,   43.1,   45.5,   46.6,   48.1,   47.8,   46.2,   47.3,   46.8,   47.5,  999.0,   44.8,   49.0,  999.0,  999.0,  999.0,   40.8,   45.2,   37.8,   33.8,   34.2,   36.3,   24.1,   24.3,   22.0,   19.7,  999.0,   14.9,   17.7,   21.8,   16.2,   17.9,   25.0,   22.7,   23.2,   19.7,   15.6,   14.4,   12.9,   12.8,   14.2,   12.3,   11.7,   10.8,    8.3,    5.0,  999.0,  999.0,    6.1,  999.0,  999.0,  999.0,    3.8,  999.0,  999.0
2004/10/19 04:15,    0.6,    1.8,    3.0,    3.5,    3.3,    2.6,    3.6,    6.6,    8.5,    9.3,   10.1,   10.5,    8.6,    6.5,    8.1,    8.6,    8.7,   11.1,   11.4,   12.3,   14.8,   12.6,   15.6,   17.7,   17.7,   20.1,   20.9,   19.5,   19.1,   19.8,   20.6,   20.3,   19.7,   19.0,   19.1,   19.2,   18.9,   19.6,   21.4,   22.5,   23.7,   24.6,   25.3,   24.9,   24.9,   24.9,   25.3,   25.4,   25.1,   25.8,   25.9,   26.2,   26.1,   26.6,   26.0,   25.1,   26.3,   29.2,   31.1,   34.2,   38.7,   37.9,   40.7,   40.3,   39.8,   43.5,   44.8,   45.7,   45.8,   46.5,   46.1,   45.0,   46.8,   47.1,  999.0,  999.0,   46.3,   51.7,  999.0,  999.0,   38.1,   38.7,   42.8,   37.8,   32.7,   32.4,   36.1,   28.0,   23.5,   21.8,   19.8,   18.5,    8.8,   15.8,   18.3,   19.2,  999.0,   19.8,   22.3,   23.2,   19.3,   16.7,   13.9,  999.0,   13.9,  999.0,   12.5,   12.7,   12.0,    8.0,    5.7,    1.4,    1.2,  999.0,  999.0,  999.0,  999.0,  999.0,  999.0,  999.0
2004/10/19 04:25,    0.3,    2.7,    3.9,    2.8,    3.3,    3.6,    4.8,    6.6,    8.0,    8.3,    8.0,    8.5,    9.6,    6.2,    6.9,   11.2,    8.3,    9.9,   11.8,   13.6,   13.7,   14.8,   16.5,   17.0,   18.2,   18.8,   18.6,   16.4,   16.8,   18.5,   19.2,   19.0,   18.2,   17.9,   18.0,   17.6,   17.5,   18.5,   20.2,   22.6,   23.6,   23.6,   23.4,   24.0,   24.2,   24.7,   25.3,   26.0,   25.9,   25.0,   25.0,   24.9,   24.6,   24.9,   25.3,   27.7,   30.6,   34.0,   37.3,   37.0,   38.6,   39.1,   41.5,   38.2,   39.7,   43.2,   43.7,   44.4,   45.2,   44.5,   45.5,   44.9,   45.9,   46.1,   47.0,  999.0,   45.0,   48.6,  999.0,  999.0,  999.0,   36.3,   41.6,   40.4,  999.0,  999.0,   31.2,   29.7,   24.6,   21.3,   18.0,   18.1,   13.5,   14.9,   17.2,   18.9,   18.1,   19.5,   19.9,   22.4,   16.5,   16.3,   13.5,  999.0,   12.9,   12.5,   11.9,   11.3,   11.2,    6.6,    4.2,    2.0,    1.2,  999.0,  999.0,  999.0,  999.0,  999.0,  999.0,  999.0
2004/10/19 04:35,   -0.1,    1.6,    2.5,    2.7,    2.2,    2.3,    4.5,    6.2,    6.7,    7.8,    8.6,    8.7,  999.0,    8.9,  999.0,    9.6,    9.5,   11.7,   13.3,   12.9,   13.9,   16.2,   18.3,   18.1,   17.3,   16.9,   16.8,   16.3,   17.5,   18.8,   18.1,   16.8,   16.5,   17.2,   17.0,   17.0,   17.4,   17.5,   19.3,   21.0,   22.5,   23.5,   24.7,   25.1,   24.4,   25.8,   26.9,   26.3,   26.8,   26.3,   26.1,   26.3,   26.5,   27.0,   30.0,   33.1,   37.0,   42.8,   42.6,   40.8,   39.8,   41.1,   43.2,   45.6,   45.0,   42.3,   43.4,   43.8,   45.9,   45.4,   44.8,   45.5,   46.1,  999.0,  999.0,   41.6,   46.2,  999.0,  999.0,  999.0,  999.0,   36.7,   40.1,   35.9,   33.7,   30.5,   29.8,   31.6,   19.3,   22.0,   20.2,   17.6,   15.4,   15.4,   16.0,   17.7,  999.0,   21.0,   21.7,   23.1,   16.1,   16.0,   13.2,  999.0,  999.0,   13.3,   14.2,   11.5,   12.2,  999.0,    4.9,    2.9,    1.6,    3.3,    6.1,  999.0,    3.2,    4.9,  999.0,  999.0
2004/10/19 04:45,    0.2,    1.6,    1.4,    1.5,    0.7,    1.5,    3.5,    5.6,    6.7,    7.8,    8.2,    9.8,   10.3,    9.6,   11.4,   10.2,   10.3,   10.9,   11.8,   13.9,   15.8,   16.3,   16.8,   17.3,   16.6,   15.8,   15.3,   15.3,   16.8,   16.4,   15.4,   14.1,   14.0,   13.9,   14.3,   16.2,   18.0,   20.2,   21.8,   22.8,   23.8,   25.0,   25.0,   25.6,   25.8,   24.0,   24.5,   24.5,   24.8,   24.1,   24.9,   25.7,   26.0,   27.5,   30.3,   35.0,   38.0,   36.5,   39.7,   38.3,   39.1,   39.2,   40.7,   44.2,   44.7,   43.8,   42.5,   43.4,   44.2,   43.7,   47.2,   44.2,   45.9,  999.0,   43.9,   43.9,   48.2,  999.0,  999.0,  999.0,   37.9,   40.3,   42.2,   34.0,   31.8,   32.0,   29.7,   29.0,   23.1,   21.4,   21.3,   19.9,   17.3,   15.2,   15.4,   17.3,   17.6,   20.4,   22.3,   22.1,   17.4,   16.0,   14.6,   15.0,   12.8,   14.1,   13.9,   14.1,   10.9,   11.1,    4.9,    3.2,  999.0,    5.2,  999.0,  999.0,    2.0,  999.0,  999.0,  999.0
2004/10/19 04:55,   -0.8,    1.2,    1.2,    0.7,   -0.0,    2.5,    4.6,    6.1,    7.5,    9.3,    8.9,  999.0,   10.0,    8.6,   11.4,    8.3,    8.7,   11.4,   14.1,   13.9,   14.7,   14.5,   17.0,   15.7,   15.7,   14.7,   14.8,   14.5,   14.3,   13.5,   13.0,   13.9,   15.1,   17.8,   20.1,   22.0,   23.2,   24.6,   25.9,   24.8,   25.6,   26.3,   26.7,   24.9,   23.7,   24.0,   24.6,   24.7,   25.8,   27.3,   28.4,   29.5,   30.7,   31.6,   33.7,   36.7,   37.9,   39.5,   39.0,   41.1,   42.9,   43.7,   44.7,   43.2,   43.6,   43.6,   43.7,   44.7,   44.3,   45.0,   49.4,   47.9,   40.5,   51.5,  999.0,   41.7,  999.0,  999.0,  999.0,  999.0,  999.0,   35.9,   39.5,   35.2,   30.7,   28.6,   30.8,   27.8,  999.0,   21.7,   20.5,   19.2,   17.5,   15.2,   15.4,   17.0,   16.7,  999.0,   21.0,   22.5,   16.5,   16.4,   14.9,   14.6,   11.4,   14.0,   12.5,   11.0,    9.9,    6.6,    3.9,    2.8,    3.1,    6.9,  999.0,  999.0,    2.3,  999.0,  999.0,  999.0
2004/10/19 05:05,   -0.7,    0.8,    0.8,    0.1,   -0.1,    2.3,    3.6,    5.6,    7.4,    9.9,   10.0,  999.0,    9.1,   10.1,    9.5,    9.0,    8.3,   10.3,    9.8,    9.0,   12.4,   14.0,   14.1,   14.6,   14.4,   12.8,   13.3,   12.7,   12.1,   12.0,   13.0,   14.9,   17.2,   19.6,   20.6,   22.0,   22.5,   23.4,   23.7,   23.6,   23.7,   24.8,   23.9,   23.8,   23.0,   22.5,   23.0,   23.5,   25.4,   26.9,   28.2,   29.5,   31.1,   34.1,   36.5,   39.4,   40.0,   39.5,   42.6,   44.2,   44.7,   46.2,   46.3,   45.3,   45.4,   45.4,   38.9,   44.3,   46.4,   47.3,   49.8,  999.0,   43.9,   46.8,   42.7,  999.0,  999.0,  999.0,  999.0,  999.0,  999.0,  999.0,   38.8,   35.2,   26.5,   28.9,   27.8,   27.4,  999.0,  999.0,   18.8,   19.8,   17.7,   17.0,   15.7,   17.8,  999.0,  999.0,   20.9,   20.6,   17.5,   15.6,   15.7,   14.0,   14.7,   14.1,   11.4,   11.4,   10.6,    7.3,    4.1,    2.5,   12.0,    5.3,   27.6,  999.0,    1.6,  999.0,  999.0,  999.0
2004/10/19 05:15,    0.9,    1.3,    0.1,   -0.8,   -0.5,    1.6,    3.5,    4.8,    6.2,    8.2,    8.9,    9.4,   13.2,   11.9,   11.7,   11.8,   11.4,   11.5,   11.6,    9.8,   11.2,   13.4,   14.9,   14.8,   13.3,   13.1,   13.1,   12.1,   12.2,   12.7,   14.7,   17.4,   19.6,   20.9,   22.3,   22.5,   23.2,   23.5,   23.9,   24.7,   25.2,   25.5,   26.5,   26.1,   25.5,   26.5,   26.9,   27.6,   28.3,   29.5,   30.3,   30.8,   32.4,   33.9,   38.0,   39.5,   37.6,   40.0,   43.1,   42.4,   41.9,   43.4,   44.8,   45.7,   46.4,   45.3,   46.0,   45.1,   44.6,   46.0,   48.6,   44.7,   49.0,   46.5,  999.0,   45.9,  999.0,  999.0,  999.0,  999.0,  999.0,   39.7,   40.2,   32.3,   29.1,   29.7,   26.3,   26.8,  999.0,  999.0,   17.3,   18.1,   16.7,   17.1,   16.9,   18.1,  999.0,   21.3,   22.1,   21.7,   17.3,   18.8,   17.7,  999.0,   13.1,   14.6,  999.0,    9.9,   10.2,    5.2,    3.2,    3.3,  999.0,    2.9,  999.0,  999.0,  999.0,  999.0,  999.0,  999.0
2004/10/19 05:25,   -0.3,   -0.4,   -1.4,   -2.4,   -1.6,    1.9,    3.6,    5.2,    7.1,    8.6,    8.0,    9.0,    9.1,    9.5,   10.0,    9.4,    9.7,   12.1,   13.2,   13.1,   12.8,   13.7,   12.7,   11.9,   11.6,   11.3,   11.5,   12.1,   14.0,   16.1,   19.4,   21.1,   22.3,   22.4,   23.0,   22.7,   23.5,   24.6,   24.8,   25.4,   24.2,   25.6,   26.9,   27.3,   27.8,   28.9,   28.6,   28.4,   30.0,   30.3,   31.1,   32.6,   35.1,   36.0,   34.6,   36.4,   36.2,   38.6,   39.9,   40.8,   41.4,   40.3,   42.5,   43.9,   42.7,   43.0,   44.0,   43.8,   45.2,   43.0,   43.4,   44.1,   46.3,   49.6,   48.3,   45.4,   47.5,  999.0,  999.0,  999.0,   35.5,   37.7,   39.3,   34.5,   29.5,   30.7,   28.7,   26.4,  999.0,  999.0,   17.9,   18.6,   19.6,   15.1,   16.6,   17.2,   20.7,  999.0,   21.8,   24.5,   16.9,   17.0,  999.0,  999.0,   15.7,   13.9,  999.0,    8.9,    7.5,    5.0,    3.4,    2.0,    1.7,  999.0,  999.0,  999.0,  999.0,  999.0,  999.0,  999.0
2004/10/19 05:35,   -1.2,   -1.6,   -3.3,   -1.7,    0.5,    2.1,    3.7,    5.7,    8.0,    8.4,    9.3,   10.1,    9.6,    9.2,    8.6,    9.3,   11.8,   12.8,   14.1,   14.0,   12.4,   11.6,   10.6,   10.4,    9.9,   10.1,   11.6,   13.5,   16.3,   18.0,   18.8,   18.9,   18.9,   19.8,   21.3,   22.4,   23.2,   23.5,   24.7,   25.0,   25.4,   27.4,   28.1,   29.3,   29.3,   29.1,   29.0,   28.9,   29.0,   31.1,   33.6,   36.7,   38.6,   37.1,   38.4,   38.5,   37.4,   36.5,   39.2,   38.6,   39.3,   40.3,   41.2,   42.0,   42.0,   41.6,   42.1,   43.6,   42.6,  999.0,   40.9,   44.3,   44.1,   45.8,   46.9,   46.6,   45.7,  999.0,  999.0,  999.0,  999.0,  999.0,   36.7,   35.4,   30.2,   25.5,   27.9,   25.3,  999.0,   18.5,   18.0,   18.6,    8.4,   14.6,   16.1,   17.4,   18.9,   22.3,   22.9,   20.7,   18.6,   16.6,   17.2,   16.9,   15.6,    9.2,   12.9,    9.3,    7.8,    4.9,    3.6,    2.7,  999.0,  999.0,    6.7,  999.0,  999.0,  999.0,    7.5,  999.0
2004/10/19 05:45,   -2.0,   -3.1,   -3.0,   -2.4,    0.3,    2.0,    3.7,    7.1,    8.2,   10.1,    7.9,    8.4,    7.7,    7.4,    8.3,   10.6,   10.9,   11.4,   10.3,    8.2,    9.6,    9.6,    9.8,    9.4,    9.7,   12.0,   14.4,   15.6,   17.4,   17.6,   17.8,   17.9,   17.8,   17.9,   19.2,   20.4,   21.7,   21.6,   21.4,   23.1,   24.2,   25.9,   25.2,   26.1,   26.6,   27.6,   28.5,   29.8,   31.1,   32.4,   34.8,   38.9,   37.4,   34.5,   37.5,   36.7,   36.8,   39.4,   39.3,   40.5,   40.4,   39.8,   41.7,   40.6,   41.6,   41.9,   42.3,   39.5,   41.4,   40.1,   42.5,   44.3,   47.8,   43.5,   45.6,   43.2,   42.9,  999.0,  999.0,  999.0,  999.0,   35.3,   38.7,   35.9,   29.3,   28.5,   27.1,   24.9,   22.6,   19.6,   17.1,   16.7,  999.0,   14.1,   15.9,   16.2,   19.3,   19.0,   22.8,   22.8,   17.7,   16.1,   16.8,   17.6,   17.0,   13.6,   10.2,    9.2,    7.0,    4.1,    3.6,    2.3,  999.0,  999.0,  999.0,  999.0,  999.0,  999.0,  999.0,  999.0
2004/10/19 05:55,   -3.7,   -3.6,   -3.0,   -1.2,    0.1,    2.4,    5.0,    6.3,    6.8,    7.6,    7.5,    6.9,    2.2,    8.4,   10.0,    8.9,    8.4,    8.2,    8.6,    8.4,    8.6,    8.7,    9.1,    9.3,   11.8,   14.0,   15.1,   15.7,   15.6,   16.9,   17.5,   18.3,   17.9,   17.8,   18.3,   19.4,   19.5,   19.7,   20.8,   23.1,   25.1,   26.4,   28.1,   29.7,   30.8,   31.5,   31.2,   31.6,   32.6,   32.8,   35.8,   37.3,   38.9,   38.0,   34.5,   35.0,   35.2,   38.9,   38.7,   38.3,   39.7,   41.3,   41.3,   42.3,   42.6,   42.5,   43.2,   39.8,   41.7,   38.9,   41.7,   43.7,   46.4,   46.0,   42.9,   43.3,   41.8,   44.9,  999.0,  999.0,  999.0,  999.0,  999.0,   34.4,   29.4,   28.5,   26.4,   24.4,  999.0,   18.5,   19.6,  999.0,    0.3,   14.5,   16.7,   19.3,   21.9,   23.4,   23.6,   22.4,   16.6,   16.8,   15.8,   17.5,   16.0,   14.6,    9.7,    8.7,    7.8,    4.1,    3.9,    2.3,  999.0,  999.0,  999.0,  999.0,    6.6,    6.3,  999.0,  999.0
2004/10/19 06:05,   -4.4,   -5.0,   -3.9,   -1.3,    0.5,    2.1,    2.9,    4.3,    6.9,    8.3,    7.7,    8.8,  999.0,    5.4,    8.3,    4.7,    7.3,    6.7,    7.5,    7.2,    8.3,    8.7,   10.6,   13.2,   14.7,   15.5,   16.8,   17.5,   16.8,   16.4,   16.8,   17.6,   18.0,   18.0,   18.9,   19.4,   20.2,   20.3,   22.1,   24.2,   26.0,   26.7,   28.4,   29.1,   31.1,   30.1,   29.9,   30.8,   32.6,   35.6,   36.9,   36.6,   37.6,   38.5,   38.0,   35.4,   38.3,   41.5,   38.6,   39.0,   40.9,   41.0,   41.7,   40.9,   41.5,   42.9,   42.8,   39.0,   42.8,   43.1,   43.0,   43.7,   45.1,   45.1,  999.0,   41.3,   43.6,  999.0,  999.0,  999.0,  999.0,  999.0,   31.1,   35.2,   29.5,   29.1,   26.7,   23.7,   20.9,   18.6,   18.2,   17.1,  999.0,   15.5,   16.9,   19.8,   18.9,   23.3,   22.5,   21.7,   19.0,   17.2,   16.3,   17.2,   15.4,   13.5,   10.5,    9.2,    7.9,    2.7,    2.7,    2.2,  999.0,  999.0,  999.0,  999.0,    4.6,  999.0,  999.0,  999.0
2004/10/19 06:15,   -4.9,   -4.5,   -2.6,   -1.5,    0.3,    2.7,    3.3,    4.2,    5.7,    6.2,    7.9,    9.5,    8.8,    7.9,    7.6,    6.4,    6.0,    6.4,    7.3,    8.3,    8.5,   10.8,   12.2,   13.4,   14.9,   16.5,   17.5,   18.4,   18.1,   18.2,   17.6,   17.8,   18.2,   19.3,   19.2,   18.3,   19.3,   19.9,   20.4,   23.3,   26.8,   28.4,   29.4,   30.5,   31.6,   33.8,   35.3,   36.4,   37.0,   36.3,   36.6,   39.1,   36.6,   36.2,   39.2,   37.9,   38.3,   40.6,   40.7,   41.6,   42.4,   42.7,   42.4,   42.5,   45.1,   45.1,  999.0,  999.0,  999.0,   42.0,   44.4,   45.5,  999.0,  999.0,   44.1,  999.0,  999.0,  999.0,  999.0,   42.3,  999.0,  999.0,   32.1,   34.7,   32.8,   27.6,   24.8,   22.6,  999.0,  999.0,   15.1,   16.5,  999.0,   15.1,   17.1,   13.8,   22.7,   22.1,   22.4,   20.9,   17.2,   15.3,   17.2,   17.2,   14.6,   11.4,   11.0,    9.5,    5.1,    3.7,  999.0,  999.0,   24.3,  999.0,  999.0,  999.0,  999.0,  999.0,  999.0,  999.0
2004/10/19 06:25,   -5.2,   -4.9,   -1.3,    0.4,    1.2,    2.2,    2.3,    3.6,    5.6,    6.7,    8.4,    9.3,    9.0,    5.5,    4.7,    3.9,    4.9,    5.6,    7.3,    7.4,    8.4,   10.9,   11.1,   11.9,   13.7,   16.3,   18.2,   19.0,   18.8,   19.0,   18.2,   17.8,   17.4,   18.4,   18.1,   18.7,   19.7,   19.9,   19.6,   21.9,   24.5,   28.3,   28.9,   31.6,   33.0,   35.4,   35.7,   35.4,   35.5,   35.8,   36.5,   37.9,   36.2,   35.1,   37.8,   42.9,   37.8,   37.5,   39.3,   42.1,   41.9,   42.3,   40.2,   42.0,   42.4,   43.8,   43.6,   42.8,   43.6,   43.5,   44.5,   43.7,   47.4,   38.0,   43.6,  999.0,   41.6,  999.0,  999.0,  999.0,  999.0,  999.0,   34.2,   36.5,   29.8,   26.5,   21.3,   22.0,   21.3,  999.0,   13.5,   15.0,  999.0,  999.0,   16.8,  999.0,  999.0,  999.0,   22.5,   21.7,   19.1,   15.3,   16.5,   14.9,   15.8,   11.3,   11.0,    9.0,    7.2,    4.7,    4.2,  999.0,  999.0,  999.0,  999.0,  999.0,  999.0,  999.0,  999.0,  999.0
2004/10/19 06:35,   -5.9,   -4.9,   -2.3,   -1.2,    0.5,    0.5,    2.1,    4.3,    6.5,    6.8,    7.7,    8.5,    7.4,    6.0,    4.9,    4.4,    5.7,    6.8,    6.7,    7.9,   10.5,   11.2,   12.6,   14.0,   16.4,   17.4,   17.7,   18.0,   18.3,   18.0,   17.8,   17.8,   17.8,   18.9,   19.0,   19.5,   21.1,   21.5,   23.0,   24.4,   25.3,   25.9,   27.4,   29.0,   30.4,   32.1,   33.0,   32.9,   34.0,   32.7,   33.4,   35.3,   35.6,   36.2,   37.7,   39.6,   38.0,   37.9,   39.8,   40.0,   42.2,   41.7,   41.7,   43.6,   42.5,   44.6,   42.3,   44.4,   41.7,   44.2,   38.5,   43.0,   45.4,  999.0,   44.4,   44.5,   41.5,  999.0,  999.0,  999.0,  999.0,   35.1,   35.1,   34.8,   30.6,   26.6,   27.9,  999.0,  999.0,  999.0,   15.0,   13.9,  999.0,  999.0,  999.0,   21.2,  999.0,   25.5,   26.0,   21.3,   18.0,   16.7,   17.3,   16.6,  999.0,   10.7,   11.2,    9.4,    6.9,    4.8,    5.1,    5.0,  999.0,  999.0,  999.0,  999.0,  999.0,  999.0,  999.0,  999.0
2004/10/19 06:45,   -5.1,   -4.0,   -1.6,   -0.8,    0.2,    0.8,    1.4,    3.4,    5.3,    7.0,    7.3,    6.7,    5.5,    4.8,    4.4,    3.1,    5.1,    5.6,    6.1,    7.7,    8.6,   10.5,   12.2,   14.0,   15.3,   16.1,   16.6,   17.3,   17.9,   18.3,   18.6,   18.0,   17.8,   17.9,   19.6,   22.4,   24.0,   25.1,   24.2,   23.9,   25.6,   27.4,   28.1,   28.4,   28.8,   32.0,   32.9,   33.0,   33.2,   32.9,   33.5,   35.6,   33.0,   33.9,   36.4,   38.2,   39.5,   38.9,   39.5,   40.4,   39.3,   40.8,   42.0,   40.5,   40.9,   42.3,   43.0,   41.6,   42.9,  999.0,   41.4,   42.3,   44.4,   47.6,  999.0,  999.0,  999.0,  999.0,  999.0,  999.0,  999.0,   35.1,   36.2,   33.2,   28.0,   24.7,   25.4,  999.0,   12.3,  999.0,  999.0,    4.2,  999.0,   16.8,   19.4,  999.0,   27.0,   24.7,   24.7,   22.3,   18.4,   16.7,   15.6,   16.5,   15.7,   12.6,   10.4,    9.9,    6.9,    5.6,    4.3,    4.5,  999.0,  999.0,  999.0,  999.0,  999.0,  999.0,  999.0,  999.0
2004/10/19 06:55,   -4.6,   -2.9,   -2.7,   -1.6,   -0.2,    0.6,    1.4,    3.4,    5.5,    6.7,    6.5,    6.0,    5.9,    4.7,    4.1,    3.8,    4.7,    5.1,    5.3,    6.0,    7.0,    7.9,   10.8,   14.2,   15.7,   16.9,   18.0,   18.6,   18.8,   18.7,   17.9,   17.7,   18.4,   18.6,   18.6,   20.8,   22.3,   24.1,   25.0,   26.1,   27.1,   27.5,   28.0,   28.7,   29.5,   30.3,   31.1,   31.6,   31.8,   31.2,   30.5,   31.3,   32.0,   33.2,   35.4,   38.6,   39.3,   39.3,   40.8,   42.0,   42.3,   42.3,   42.0,   43.5,   44.6,   41.5,   42.5,   42.4,   41.5,   42.6,   40.7,   40.6,   44.5,  999.0,  999.0,   42.2,   43.0,  999.0,  999.0,  999.0,   35.4,   35.0,   34.6,   29.9,   26.3,   25.3,   23.8,  999.0,    0.6,   16.5,  999.0,  999.0,  999.0,  999.0,   18.6,   23.1,   26.0,   26.1,   24.1,   21.3,   17.9,   15.5,   15.3,   16.6,  999.0,    9.5,   11.8,   10.5,    6.3,    5.5,    4.9,  999.0,  999.0,    7.4,  999.0,    9.3,    2.7,  999.0,  999.0,  999.0
2004/10/19 07:05,   -4.9,   -2.3,   -1.9,   -0.7,    0.0,    0.6,    2.3,    4.1,    6.3,    6.4,    6.7,    5.9,    5.4,    4.8,    4.4,    4.7,    5.5,    5.6,    6.1,    6.9,    8.0,    9.4,   11.7,   14.8,   15.7,   17.1,   17.4,   18.0,   17.9,   18.7,   17.8,   17.3,   17.6,   16.6,   16.9,   17.9,   19.3,   21.5,   23.1,   25.4,   25.8,   27.7,   27.7,   28.1,   28.3,   29.3,   29.7,   30.2,   28.4,   29.0,   28.1,   29.7,   30.3,   32.9,   36.6,   38.0,   38.7,   40.8,   42.7,   40.8,   42.5,   42.0,   43.3,   43.9,   43.5,   44.1,   44.8,   45.7,   42.8,   43.5,   42.0,   45.3,   47.9,   44.7,  999.0,   44.0,  999.0,   39.2,  999.0,  999.0,   34.4,   36.2,   32.5,   28.6,   26.1,   24.9,  999.0,  999.0,  999.0,   16.4,  999.0,  999.0,  999.0,  999.0,   19.4,  999.0,   23.4,   26.1,   23.2,   23.0,   20.3,  999.0,   15.6,   15.0,   15.4,   10.9,   11.7,    7.8,    6.1,    6.2,    5.3,  999.0,  999.0,  999.0,  999.0,    9.4,  999.0,    1.0,  999.0,  999.0
2004/10/19 07:15,   -4.7,   -3.4,   -1.6,   -0.4,    0.3,    0.2,    2.2,    4.6,    5.8,    6.6,    6.1,    6.6,    5.7,    4.8,    4.2,    4.7,    4.3,    4.4,    5.3,    6.3,    8.2,   12.0,   13.6,   15.9,   18.2,   19.0,   18.3,   18.1,   17.9,   17.4,   17.7,   17.3,   17.0,   16.4,   16.7,   15.9,   15.7,   18.4,   18.8,   19.9,   18.7,   19.9,   23.4,   21.6,   22.1,   22.0,   23.6,   24.9,   25.0,   26.2,   26.9,   28.8,   30.6,   31.7,   33.5,   34.4,   35.2,   37.4,   38.9,   38.9,   41.4,   44.2,   44.0,   44.4,   45.4,   43.9,   45.1,   45.0,   44.7,   42.4,   43.5,   45.7,   47.7,  999.0,   41.4,   42.1,   44.1,  999.0,  999.0,  999.0,   34.4,   37.6,   34.6,   26.5,   25.1,   22.2,   17.2,   19.0,   13.5,   14.6,   13.5,   13.0,  999.0,   -0.8,  999.0,  999.0,   21.0,   25.2,   24.5,   24.0,   23.1,   15.1,   15.4,   16.5,   13.4,    9.6,   10.4,  999.0,    5.1,    4.9,    5.8,  999.0,  999.0,  999.0,  999.0,  999.0,  999.0,  999.0,  999.0,  999.0
2004/10/19 07:25,   -4.7,   -3.2,   -2.8,   -1.3,   -0.4,    1.9,    3.4,    5.1,    6.5,    6.8,    7.2,    6.7,    5.2,    5.8,    3.7,    3.4,    4.5,    4.5,    6.0,    7.3,    9.4,   11.7,   13.8,   16.7,   17.6,   17.9,   18.0,   18.5,   19.3,   19.9,   19.3,   18.2,   17.2,   17.0,   17.3,   17.0,   16.9,   17.4,   17.9,   18.7,   18.5,   18.8,   19.5,   19.8,   20.7,   20.9,   21.0,   22.3,   22.5,   23.5,   23.9,   25.0,   25.2,   25.6,   26.6,   27.6,   29.7,   30.8,   32.9,   35.7,   38.2,   40.1,   43.9,   43.9,   43.6,   44.1,   44.8,   43.2,   44.7,   46.5,   45.3,   45.8,   48.6,   50.3,  999.0,   37.2,  999.0,  999.0,  999.0,  999.0,   36.7,   37.0,   31.0,   27.2,   25.6,   23.7,   18.2,   18.3,   14.6,   16.2,   16.4,   15.5,  999.0,    2.7,  999.0,  999.0,   19.7,   23.5,   25.9,   22.6,   19.4,   16.3,   16.5,   14.6,   11.0,    9.5,    9.5,    6.8,    6.8,    5.8,    6.4,  999.0,  999.0,  999.0,    8.3,    7.0,  999.0,  999.0,  999.0,  999.0
2004/10/19 07:35,   -4.5,   -4.3,   -2.9,   -1.4,   -0.2,    1.7,    3.4,    4.8,    6.0,    6.6,    6.3,    3.7,    4.5,    4.7,    1.6,    2.0,    1.9,    3.4,    4.1,    6.4,    9.7,   12.0,   13.9,   16.7,   17.3,   17.2,   17.9,   18.2,   17.7,   17.4,   18.2,   18.3,   19.5,   19.0,   20.1,   19.8,   19.3,   18.9,   18.0,   18.4,   18.9,   20.0,   20.8,   20.6,   21.0,   20.4,   21.3,   22.3,   22.6,   24.8,   25.6,   25.2,   25.0,   27.4,   28.1,   28.8,   29.8,   31.5,   34.2,   38.0,   37.7,   39.6,   41.0,   40.5,   41.8,   41.7,   45.2,   45.5,   44.2,   43.7,   44.5,   43.3,   45.8,   49.5,   48.3,  999.0,   40.9,  999.0,  999.0,  999.0,   37.8,   37.0,   28.8,   26.3,   25.0,   23.3,   20.8,   19.3,   18.2,   21.4,  999.0,  999.0,  999.0,    2.6,  999.0,  999.0,   18.4,  999.0,   25.1,   23.6,   19.4,   21.7,   14.5,   14.9,   11.3,    9.4,   11.3,  999.0,    5.7,  999.0,    8.1,  999.0,   10.2,   11.3,  999.0,  999.0,  999.0,  999.0,  999.0,  999.0
2004/10/19 07:45,   -4.2,   -1.5,    0.2,    0.0,    0.0,    1.6,    2.3,    2.0,    3.8,    3.2,    3.3,    4.4,    2.5,    5.1,    2.4,    2.8,    3.3,    5.0,    6.0,    8.3,   10.5,   13.1,   16.4,   17.0,   17.8,   16.6,   16.8,   16.1,   16.5,   16.5,   16.4,   16.8,   16.9,   18.0,   18.7,   18.8,   19.5,   20.3,   20.7,   20.7,   22.4,   22.6,   22.9,   23.5,   22.7,   22.7,   23.9,   25.6,   26.4,   27.2,   27.0,   27.3,   28.3,   30.0,   28.9,   30.0,   32.2,   34.7,   34.3,   35.8,   38.2,   38.1,   40.3,   39.5,   39.5,   40.9,   40.6,   38.9,   40.2,   42.5,   42.7,   43.0,   43.3,   46.5,   48.0,   47.2,  999.0,  999.0,  999.0,   36.9,   38.3,   38.1,   31.3,   25.6,   24.8,   23.6,   21.3,   20.8,   17.3,   16.5,   21.9,  999.0,   -0.7,  999.0,  999.0,  999.0,   21.6,   24.1,   24.3,   21.5,   18.7,   18.8,   14.9,   13.9,   12.0,    9.3,    9.0,    7.9,    8.0,    8.0,    6.0,  999.0,  999.0,   11.5,   11.7,  999.0,  999.0,  999.0,  999.0,  999.0
2004/10/19 07:55,   -5.7,   -3.1,   -2.5,   -1.6,   -1.8,    1.8,    2.2,    1.7,    2.3,    4.5,    7.1,    3.1,  999.0,    1.9,    0.6,    2.0,    3.7,    6.0,    7.8,    9.6,   11.2,   14.2,   17.4,   17.2,   17.8,   18.7,   19.0,   19.2,   18.6,   17.6,   17.1,   16.3,   17.5,   17.9,   19.1,   19.8,   20.6,   21.3,   22.4,   22.1,   22.8,   23.3,   23.8,   22.2,   22.3,   23.1,   24.7,   25.1,   26.6,   26.3,   26.3,   25.2,   26.6,   25.9,   26.5,   28.3,   31.2,   31.9,   33.1,   34.7,   36.5,   38.1,   37.9,   37.8,   39.1,   40.3,   40.2,   44.6,   41.8,   41.7,  999.0,   41.5,   43.3,   44.1,   47.3,   39.7,   47.2,  999.0,  999.0,   37.3,   34.5,   35.1,   34.2,   24.1,   21.8,   21.8,   20.5,   19.3,  999.0,  999.0,  999.0,   -0.3,    2.4,   -1.3,  999.0,  999.0,   22.9,   25.8,   26.2,   21.2,   20.2,   20.9,  999.0,   13.4,   11.7,  999.0,    8.6,    5.5,    6.0,    6.1,    6.5,  999.0,  999.0,   12.3,   11.0,    9.3,    6.6,  999.0,  999.0,  999.0
2004/10/19 08:05,   -6.3,   -2.0,   -1.9,   -1.4,   -0.7,    2.2,    3.5,    3.0,    2.9,  999.0,   -1.2,   -0.6,    0.6,   -0.3,    3.0,    5.1,    6.2,    6.8,    7.8,   10.1,   12.6,   14.6,   14.3,   14.9,   16.1,   16.4,   16.1,   16.2,   16.6,   18.7,   19.9,   20.0,   19.4,   19.4,   19.8,   21.3,   23.3,   24.4,   24.4,   23.6,   22.6,   23.4,   24.8,   24.8,   25.9,   27.0,   27.1,   25.8,   26.5,   26.2,   26.4,   27.4,   27.2,   27.8,   29.2,   30.7,   30.7,   32.2,   31.7,   33.8,   35.4,   37.2,   38.2,   38.2,   37.7,   38.7,   38.8,   40.1,   42.3,  999.0,   38.6,   40.3,   43.2,   45.9,  999.0,  999.0,   43.8,  999.0,  999.0,  999.0,   35.0,   35.6,   31.9,   27.6,   24.5,   22.1,   22.1,   20.2,  999.0,  999.0,  999.0,  999.0,  999.0,  999.0,  999.0,  999.0,   22.7,   25.7,   25.4,   20.4,   20.3,   20.9,   17.3,   14.7,  999.0,    5.7,  999.0,    7.7,    6.5,    7.8,  999.0,    6.3,    9.7,  999.0,   11.0,  999.0,  999.0,  999.0,  999.0,  999.0
2004/10/19 08:15,   -5.2,   -3.3,   -2.7,   -2.7,    0.5,    1.2,    0.9,    0.2,    2.3,    2.1,    7.0,    6.9,    6.7,    7.5,    8.3,    5.9,    7.1,    8.0,    9.6,   10.2,   11.7,   13.6,   14.5,   15.0,   15.6,   15.6,   15.4,   15.2,   16.2,   18.4,   19.6,   20.2,   20.0,   19.1,   21.6,   22.5,   25.0,   25.2,   25.2,   23.7,   22.0,   22.8,   23.6,   24.9,   25.3,   25.3,   26.0,   26.1,   27.0,   25.2,   27.8,   27.2,   28.1,   27.8,   28.1,   28.9,   30.4,  999.0,   30.4,   34.9,   35.0,  999.0,  999.0,  999.0,   37.4,  999.0,  999.0,   40.6,   43.1,   40.4,   40.1,   41.1,   44.6,   46.6,   50.3,   45.3,  999.0,  999.0,  999.0,   39.9,   36.5,   34.6,   34.0,   30.4,   22.5,   22.0,   21.5,   20.6,  999.0,  999.0,  999.0,  999.0,  999.0,  999.0,  999.0,  999.0,   23.5,   24.7,   21.6,   17.3,   19.4,   19.4,   18.1,   13.4,  999.0,  999.0,    7.1,    5.0,    7.2,    6.3,    8.8,  999.0,    7.1,   10.3,   11.2,    6.6,    5.5,  999.0,  999.0,  999.0
2004/10/19 08:25,   -3.5,   -3.1,   -2.1,   -2.3,   -1.7,   -2.6,   -2.1,   -0.9,    2.3,    2.3,    3.9,    4.7,    5.2,    3.8,    6.3,    5.3,    4.6,    4.5,    6.8,   10.4,   12.1,   14.0,   15.1,   15.4,   15.7,   15.5,   15.9,   15.9,   16.0,   16.8,   17.3,   18.5,   18.8,   18.7,   19.9,   20.4,   22.0,   23.4,   24.4,   25.2,   23.7,   23.1,   24.1,   24.1,   24.8,   25.1,   25.4,   25.4,   24.8,   25.1,   26.2,   27.2,   27.4,   27.2,   27.2,   28.5,   30.5,   31.0,   32.9,   33.7,   36.0,   37.0,   36.6,   38.9,   37.5,   40.5,   38.2,   37.3,   41.1,  999.0,   39.0,   38.8,   42.6,   46.1,   50.8,   42.0,  999.0,  999.0,  999.0,  999.0,   35.3,   35.2,   31.0,   27.2,   22.8,   20.8,   21.0,  999.0,  999.0,    0.1,  999.0,  999.0,    0.3,  999.0,  999.0,   22.1,   23.6,   24.1,   23.6,   20.0,   18.8,   20.3,   23.0,   13.3,  999.0,    9.0,  999.0,  999.0,    8.8,    7.4,    8.9,  999.0,    7.8,  999.0,    9.2,    3.7,    4.0,  999.0,  999.0,  999.0
2004/10/19 08:35,   -4.7,   -3.0,   -2.5,   -2.3,   -4.4,   -4.9,   -2.4,   -1.7,   -2.3,   -0.4,    1.7,    2.7,    3.4,  999.0,    3.1,    3.2,    4.6,    6.9,    8.7,   10.6,   11.5,   12.0,   12.6,   13.2,   13.4,   14.2,   15.0,   15.6,   14.9,   15.2,   16.0,   16.9,   18.4,   20.2,   21.0,   21.6,   22.3,   24.2,   25.7,   26.2,   26.0,   26.0,   26.2,   25.0,   25.7,   25.5,   24.8,   24.5,   23.7,   23.8,   25.8,   25.0,   26.8,   26.3,   27.7,   26.6,   28.2,   28.7,   30.3,   32.6,   34.4,   36.1,   39.6,   38.4,   37.4,   40.5,   39.6,   39.8,   40.1,   41.4,   40.5,   41.1,   44.3,   48.5,   52.5,   42.6,   44.5,  999.0,  999.0,   41.0,  999.0,   34.2,   32.7,   30.5,   24.8,   22.3,   21.7,   20.2,  999.0,  999.0,  999.0,    1.7,  999.0,  999.0,  999.0,   22.6,   23.7,   22.9,  999.0,  999.0,  999.0,  999.0,  999.0,  999.0,  999.0,  999.0,  999.0,  999.0,  999.0,    7.9,  999.0,  999.0,  999.0,  999.0,   10.7,    3.3,    3.5,  999.0,  999.0,  999.0
2004/10/19 08:45,   -5.2,   -4.6,   -3.5,   -4.1,   -6.7,   -5.7,   -3.8,   -3.3,   -2.9,    0.2,    3.3,    4.1,    4.8,    5.4,    4.1,    4.5,    5.7,    8.0,   10.6,   11.6,   12.8,   13.9,   14.5,   14.5,   16.1,   17.2,   17.5,   17.9,   18.3,   19.5,   20.6,   22.1,   24.1,   25.8,   25.6,   25.5,   26.0,   24.6,   25.5,   26.8,   27.1,   27.7,   26.6,   25.2,   24.3,   23.8,   24.1,   23.7,   24.4,   25.0,   25.4,   24.9,   24.8,   26.3,   25.3,   24.7,   26.3,   27.9,   30.7,   32.4,   33.5,   36.2,   36.9,   37.4,   39.1,   37.6,   39.4,   39.6,   38.5,   40.4,   40.4,   39.9,   43.6,   45.5,   45.1,  999.0,   43.8,   41.5,  999.0,   38.1,   41.9,   33.2,   32.2,   28.1,   24.4,   20.7,   21.0,   18.8,  999.0,   -0.9,    0.1,  999.0,  999.0,  999.0,   21.3,   22.7,   21.5,   24.2,   21.3,   19.3,   19.9,   21.7,   15.3,   12.9,   12.1,    6.9,    6.0,    6.0,    4.9,  999.0,  999.0,  999.0,  999.0,    8.2,   11.2,    3.9,    3.9,    5.9,  999.0,  999.0
2004/10/19 08:55,   -5.1,   -5.2,   -3.8,   -4.5,   -6.0,   -4.8,   -3.6,   -4.5,   -3.0,    0.1,    2.3,    3.4,    5.4,    5.6,    6.6,    5.6,    7.9,    9.6,   10.8,   11.0,   11.0,   11.9,   11.9,   14.2,   16.4,   18.1,   19.3,   19.4,   19.6,   19.7,   20.8,   22.9,   25.1,   26.2,   26.1,   26.4,   27.5,   28.2,   27.3,   27.6,   27.6,   28.9,   27.7,   25.3,   24.2,   23.9,   24.2,   24.3,   25.4,   25.6,   25.5,   26.6,   25.6,   25.0,   25.0,   24.8,   26.9,   25.4,   30.3,   32.0,   33.6,   36.4,  999.0,   37.5,  999.0,  999.0,  999.0,  999.0,  999.0,  999.0,  999.0,   39.8,  999.0,  999.0,  999.0,  999.0,  999.0,  999.0,  999.0,  999.0,   39.4,   33.9,   32.5,   29.1,   25.4,   21.9,   20.5,   18.5,  999.0,  999.0,   -0.0,  999.0,    2.6,   23.7,   24.1,   24.6,   23.2,   24.2,   20.2,   19.5,   21.4,   22.3,   15.2,   13.4,    8.5,    5.5,  999.0,  999.0,    6.9,    7.8,  999.0,  999.0,  999.0,    8.5,    9.2,    1.8,    3.9,  999.0,  999.0,  999.0
2004/10/19 09:05,   -6.2,   -6.0,   -5.4,   -6.1,   -4.9,   -4.8,   -3.6,   -3.5,   -0.8,    1.9,    4.0,    5.3,    5.2,    5.0,    5.8,    9.3,    9.6,    9.0,    9.8,   10.2,   10.9,   13.0,   13.8,   14.6,   14.3,   14.7,   15.3,   15.6,   16.6,   18.0,   18.6,   19.3,   19.8,   20.2,   20.1,   19.9,   23.5,   26.7,   28.5,   30.4,   29.6,   29.4,   29.4,   29.6,   28.3,   27.5,   26.8,   26.6,   25.2,   26.0,   26.5,   26.1,   26.6,   25.4,   25.6,   26.4,   27.4,   30.0,   31.0,   32.9,   33.7,   35.7,   36.9,   37.5,   36.5,  999.0,   38.5,   40.4,   42.6,  999.0,   38.2,   40.1,   44.3,   45.0,   41.4,  999.0,   44.2,  999.0,  999.0,  999.0,   41.2,   34.0,   33.5,   30.9,   27.7,   22.7,   21.0,   18.7,  999.0,   -0.7,  999.0,  999.0,  999.0,   20.9,   23.7,  999.0,   23.2,   23.6,   22.0,   19.7,   23.0,   18.3,   16.3,   11.7,    8.3,    6.1,    7.0,  999.0,  999.0,  999.0,  999.0,  999.0,  999.0,    7.9,  999.0,    7.0,  -12.3,  999.0,  999.0,  999.0
2004/10/19 09:15,   -6.0,   -5.8,   -5.4,  999.0,   -6.0,   -5.2,   -5.2,   -3.2,   -1.8,    0.1,    4.7,    7.7,    8.5,   10.2,   10.8,    8.9,    7.5,    7.1,    7.2,    8.2,   10.7,   12.6,   13.6,   14.4,   14.3,   14.5,   15.3,   15.8,   16.3,   16.8,   17.1,   17.7,   17.6,   17.1,   17.0,   17.9,   19.7,   21.2,   24.1,   26.1,   29.3,   31.0,   30.0,   30.5,   29.9,   29.4,   28.5,   27.7,   26.5,   26.6,   24.6,   25.9,   26.6,   25.6,   26.0,   27.5,   29.8,   30.5,   32.9,   31.8,   35.4,   39.0,   38.2,   30.4,   37.4,   38.6,   37.9,  999.0,   39.1,  999.0,   40.7,   43.2,  999.0,  999.0,  999.0,  999.0,  999.0,  999.0,  999.0,   37.2,   40.1,  999.0,  999.0,   30.8,   28.4,   23.5,   21.8,   20.1,  999.0,   -0.4,  999.0,  999.0,  999.0,   22.6,   23.6,  999.0,   22.1,   22.6,   22.9,   18.9,   21.1,   18.2,   13.4,   12.3,    7.1,    6.6,  999.0,  999.0,  999.0,  999.0,  999.0,  999.0,  999.0,  999.0,   10.0,  999.0,  999.0,  999.0,  999.0,  999.0
2004/10/19 09:25,   -5.6,   -6.1,   -7.0,  999.0,  999.0,   -4.7,   -4.1,   -4.4,   -5.1,   -5.3,   -2.5,    1.0,    1.5,   -1.1,    1.3,    3.0,    3.5,    4.6,    6.0,    7.7,    8.8,   10.1,   12.2,   11.4,   11.4,   11.7,   11.9,   12.7,   13.0,   14.0,   15.2,   16.2,   17.5,   18.6,   19.0,   17.3,   18.5,   19.2,   20.6,   22.5,   24.5,   25.9,   27.7,   28.0,   28.1,   27.8,   28.4,   27.7,   27.8,   27.2,   26.2,   25.3,   25.9,   26.7,   28.0,   29.6,   30.2,   31.4,   30.8,   32.4,   36.1,   39.5,   36.4,   35.6,   37.3,  999.0,  999.0,   39.0,   37.4,  999.0,   41.7,   44.2,  999.0,  999.0,  999.0,  999.0,   36.2,   39.1,   40.6,  999.0,  999.0,  999.0,  999.0,   29.6,   29.6,   25.3,   20.0,   20.0,  999.0,  999.0,  999.0,  999.0,   19.8,   22.8,   24.0,  999.0,   25.8,   20.2,   23.5,   21.2,   20.5,   17.8,   13.8,   12.0,    8.3,    8.6,  999.0,  999.0,  999.0,  999.0,  999.0,  999.0,  999.0,   10.0,    8.4,  999.0,  999.0,  999.0,  999.0,  999.0
2004/10/19 09:35,  999.0,  -11.4,  999.0,  999.0,   -9.5,  -10.3,  -11.2,  999.0,   -9.6,   -4.2,   -1.9,    2.1,    2.5,  999.0,    5.6,    3.6,    3.6,    3.9,    6.4,    6.4,    7.5,    7.6,    7.9,    7.4,    8.0,    9.3,   10.3,   11.2,   13.1,   13.5,   14.1,   14.9,   16.5,   18.9,   20.5,   20.1,   19.8,   19.3,   18.2,   19.4,   21.9,   24.9,   24.8,   25.6,   26.7,   26.7,   26.6,   25.9,   26.6,   25.8,   24.6,   26.2,   26.6,   28.7,   29.1,   30.9,   32.6,   31.6,   32.0,   32.2,   35.3,   36.0,   37.4,   39.1,   37.6,   39.7,  999.0,   38.5,   41.4,   43.2,   43.1,   41.3,   45.2,  999.0,  999.0,  999.0,  999.0,   41.0,  999.0,   33.5,   39.0,  999.0,  999.0,   31.6,   31.5,   23.5,   23.3,   21.6,   21.8,  999.0,  999.0,  999.0,  999.0,   24.1,   25.7,   27.2,   25.6,   24.1,   23.6,   22.4,   21.5,   18.1,   12.4,    8.0,    6.3,    6.1,  999.0,    8.4,    7.5,    8.3,    9.0,  999.0,  999.0,    9.9,    9.7,   10.8,    3.4,  999.0,  999.0,  999.0
2004/10/19 09:45,  -10.8,  -12.8,  999.0,   -7.8,   -9.4,   -8.8,   -9.7,  -11.9,   -7.4,   -7.2,   -5.2,   -2.0,   -0.5,    1.7,    1.6,    2.7,    4.2,    5.0,    4.7,    5.5,    4.7,    7.2,    8.2,    9.0,    9.4,   11.1,   13.7,   14.6,   15.6,   15.5,   16.6,   16.1,   16.8,   18.0,   20.0,   20.7,   20.2,   20.3,   18.5,   20.4,   22.1,   23.1,   23.0,   24.2,   24.6,   25.3,   26.4,   23.1,   23.4,   25.1,   24.1,   25.6,   27.5,   29.2,   32.3,   32.4,   33.1,   32.2,   34.1,   34.2,   35.4,   38.0,   36.2,   39.1,   39.7,  999.0,   37.2,   43.4,   40.8,   44.0,   44.9,  999.0,  999.0,  999.0,  999.0,  999.0,  999.0,  999.0,  999.0,   38.3,   38.6,   33.1,   34.4,  999.0,   29.1,   25.9,   21.3,   22.2,   21.7,  999.0,  999.0,  999.0,  999.0,  999.0,  999.0,   24.7,   24.6,   23.4,   23.9,   19.7,   20.5,   17.3,   13.1,    7.9,  999.0,    6.0,  999.0,  999.0,  999.0,    7.9,    6.9,  999.0,  999.0,  999.0,  999.0,   10.7,  999.0,  999.0,  999.0,  999.0
2004/10/19 09:55,  -10.0,  -11.4,   -8.4,   -8.1,   -9.2,  -10.2,  -11.3,  999.0,   -9.3,   -6.3,   -5.5,   -3.9,   -2.8,   -1.8,    1.2,    1.3,    3.1,    4.1,    5.6,    7.3,    9.1,    9.2,    9.6,   10.5,   12.9,   14.9,   15.3,   14.5,   15.0,   15.5,   15.9,   15.7,   15.6,   16.8,   20.0,   22.5,   24.1,   23.0,   23.0,   23.0,   22.6,   24.1,   24.1,   23.9,   22.4,   23.5,   23.6,   22.8,   25.3,   25.3,   26.7,   27.2,   27.4,   31.5,   30.8,   31.1,   32.3,   31.0,   34.6,   33.2,   35.6,   36.0,   37.5,   37.5,   38.3,   37.6,   36.7,   41.2,   44.5,   46.3,  999.0,  999.0,  999.0,  999.0,   39.3,  999.0,   40.4,   43.5,   38.2,   39.6,   45.6,   36.4,   34.7,  999.0,  999.0,   25.5,   20.6,   20.5,   20.3,  999.0,  999.0,   22.8,   11.3,  999.0,   23.4,   24.2,   24.8,   24.4,   23.9,   20.4,   17.9,   16.2,   10.2,    8.3,    5.3,  999.0,    8.9,  999.0,  999.0,    8.9,    7.6,    9.0,  999.0,  999.0,   11.1,    9.8,  999.0,  999.0,  999.0,  999.0
2004/10/19 10:05,  -12.9,  -12.0,   -9.2,   -9.3,   -9.5,   -9.7,  -10.5,   -8.5,   -6.5,   -6.2,   -5.2,   -3.8,   -3.2,   -1.3,   -0.9,    2.4,    6.0,    7.9,   10.2,   11.5,   13.2,   12.6,   13.2,   14.0,   13.4,   13.1,   13.4,   13.8,   15.0,   15.1,   15.5,   15.3,   15.5,   15.0,   17.4,   20.0,   21.8,   23.4,   24.7,   25.1,   24.2,   24.3,   24.2,   24.5,   25.9,   26.5,   26.2,   25.6,   26.3,   26.9,   27.1,   27.6,   28.2,   29.5,   30.9,   30.6,   30.9,   32.1,   33.5,   32.2,   33.9,   34.3,   38.4,   37.6,   37.1,   37.3,  999.0,  999.0,  999.0,  999.0,  999.0,  999.0,  999.0,  999.0,  999.0,   43.0,   39.9,   36.4,  999.0,   44.6,  999.0,   36.9,  999.0,   33.7,   32.9,   26.2,   24.2,  999.0,   21.9,   22.8,  999.0,  999.0,  999.0,  999.0,  999.0,  999.0,  999.0,   24.1,   24.3,   21.5,   21.6,   16.5,   11.9,    9.8,    6.3,    5.9,    7.4,  999.0,  999.0,  999.0,    6.9,  999.0,  999.0,    4.7,  999.0,    8.9,  999.0,  999.0,  999.0,  999.0
2004/10/19 10:15,  -12.2,  -10.8,   -9.6,   -9.2,  -10.1,  -10.8,  -10.3,   -9.4,   -5.7,   -5.4,   -4.9,   -3.5,   -2.3,    0.7,    1.8,    3.4,    5.4,    7.3,    9.6,   10.4,   11.3,   12.2,   13.6,   13.7,   13.6,   13.7,   13.6,   14.2,   14.9,   16.3,   17.1,   18.4,   18.6,   19.0,   19.6,   20.6,   20.9,   22.0,   23.5,   25.1,   26.7,   25.8,   25.8,   25.7,   26.6,   26.4,   26.8,   26.9,   26.7,   28.3,   28.1,   29.3,   28.1,   29.8,   30.0,   30.6,   31.3,   32.1,   34.1,   32.3,   33.4,   33.4,   37.6,   37.5,   35.9,   37.3,   39.1,   39.9,   44.0,   44.6,   45.8,   50.1,  999.0,  999.0,  999.0,  999.0,   42.3,   44.4,   42.0,   45.3,  999.0,   36.9,   30.5,   34.3,  999.0,  999.0,   21.7,  999.0,   22.9,   23.6,  999.0,  999.0,  999.0,  999.0,   25.5,  999.0,  999.0,   22.7,   22.3,   21.6,   21.0,   18.1,   12.2,   10.2,    8.4,    6.1,    7.5,  999.0,  999.0,    7.9,    7.2,    8.9,  999.0,  999.0,   10.3,    8.5,    4.5,    3.0,  999.0,  999.0
2004/10/19 10:25,  -11.7,  -11.3,   -9.9,   -9.8,  -10.4,  -11.0,  -10.6,   -8.4,   -6.8,   -5.1,   -3.5,   -2.2,   -2.8,    0.6,    0.9,    4.4,    5.7,    7.2,    8.0,    9.7,   11.9,   13.1,   12.5,   13.1,   13.1,   12.4,   12.7,   13.2,   14.7,   16.0,   17.7,   19.9,   21.0,   21.6,   20.9,   21.0,   22.0,   23.8,   26.2,   27.2,   26.0,   25.2,   25.6,   26.2,   26.3,   26.1,   25.6,   25.0,   25.5,   26.9,   26.7,   28.1,   29.0,   30.3,   30.0,   32.9,   32.6,   32.7,   35.3,   32.3,   34.1,   34.6,   34.2,   35.5,   36.4,   38.1,   37.6,   39.6,   45.0,   44.6,   46.7,   45.2,  999.0,  999.0,  999.0,   43.4,   42.7,   44.3,   41.5,   44.1,  999.0,   35.5,   33.1,   29.3,   27.9,  999.0,  999.0,  999.0,   22.9,   24.3,   24.2,   23.4,   22.6,   22.7,  999.0,  999.0,  999.0,   20.6,   22.4,   20.7,   19.9,   16.7,   11.1,  999.0,    2.7,    5.7,    6.7,    8.3,    8.3,    8.0,    8.6,  999.0,    8.8,  999.0,    9.7,    9.8,    5.4,    3.2,  999.0,  999.0
2004/10/19 10:35,  -11.9,  -11.0,   -9.6,  -10.0,  -11.1,  -11.8,  -10.7,   -8.3,   -7.1,   -6.3,   -4.9,   -3.9,   -1.6,    1.8,    2.1,    4.7,    5.1,    6.7,    8.7,   10.4,   11.6,   12.7,   14.0,   14.3,   14.1,   13.7,   14.4,   14.9,   15.7,   16.8,   18.4,   18.7,   19.8,   21.4,   22.8,   23.0,   22.7,   23.2,   24.1,   25.9,   26.8,   25.4,   25.3,   24.6,   23.9,   25.5,   25.6,   25.2,   25.1,   25.1,   25.8,   25.4,   26.3,   28.3,   30.3,   31.4,   31.9,   32.9,   34.7,   33.1,   33.8,   32.6,   32.8,   33.7,   36.8,   37.7,   36.3,   39.3,   44.4,   42.5,   45.9,   43.7,  999.0,  999.0,   45.1,  999.0,  999.0,   40.7,   43.2,   42.3,   31.9,   35.2,   35.3,   29.4,   27.3,   25.5,  999.0,  999.0,   24.5,   25.3,   27.6,  999.0,  999.0,  999.0,  999.0,  999.0,  999.0,  999.0,   23.3,   24.6,   25.8,   18.2,   12.2,  999.0,  999.0,  999.0,    5.2,    6.4,    8.0,  999.0,    6.8,    8.2,  999.0,  999.0,    8.7,    7.8,    2.6,  999.0,  999.0,  999.0
2004/10/19 10:45,  -12.5,  999.0,   -9.6,  -11.1,  -11.5,  -12.2,   -9.9,   -7.8,   -6.2,   -4.4,   -3.0,   -1.7,    1.1,    7.7,    6.1,    6.0,    7.0,    8.3,    9.4,   10.5,   10.6,   12.2,   13.7,   14.2,   14.8,   15.0,   15.7,   15.6,   15.8,   17.0,   16.3,   15.3,   15.4,   15.6,   16.1,   16.8,   18.1,   20.9,   22.9,   25.9,   26.4,   26.3,   25.3,   24.4,   24.5,   24.3,   24.6,   25.7,   23.6,   25.6,   26.5,   25.9,   27.2,   28.0,   29.9,   32.1,   32.7,   30.7,   33.3,   32.1,   32.4,   34.0,   33.1,   33.7,   34.6,   36.2,   36.9,   39.0,   41.8,   45.0,   44.4,   43.6,  999.0,  999.0,  999.0,  999.0,   44.0,   45.1,  999.0,  999.0,   33.6,  999.0,  999.0,  999.0,  999.0,  999.0,  999.0,  999.0,   23.0,   23.9,  999.0,  999.0,  999.0,  999.0,  999.0,  999.0,  999.0,   21.6,    7.0,  999.0,  999.0,   19.7,  999.0,   12.2,   10.7,  999.0,    8.1,    8.1,  999.0,  999.0,    9.3,    8.3,  999.0,    8.5,    7.8,    6.5,    3.3,    0.9,  999.0,  999.0
2004/10/19 10:55,  -13.5,  -11.0,  -10.2,  -11.8,  -11.2,  -10.6,   -9.8,   -7.6,   -4.9,   -3.4,   -3.2,   -1.1,    0.3,    0.7,    2.1,    3.2,    5.3,    6.8,    8.0,    9.2,   11.0,   11.9,   15.4,   16.6,   19.8,   21.4,   23.6,   23.0,   23.1,   23.6,   21.9,   19.8,   19.8,   19.9,   20.7,   22.8,   24.9,   26.1,   27.4,   27.5,   28.9,   29.4,   28.7,   26.9,   25.9,   25.5,   25.8,   25.0,   27.4,   27.7,   28.6,   30.3,   29.5,   29.9,   28.9,   30.1,   30.5,   32.9,   31.8,   34.0,   33.1,   33.7,   34.1,   35.1,   34.9,   38.2,   40.0,   42.5,   47.0,   46.8,   42.7,   47.6,   43.2,  999.0,  999.0,  999.0,   41.9,   46.7,   44.1,  999.0,  999.0,   38.1,   34.0,   31.0,  999.0,  999.0,  999.0,  999.0,   25.3,   23.3,   25.9,   23.6,   25.4,   26.9,  999.0,  999.0,   21.6,   23.2,   23.8,   23.6,   19.6,   18.2,   13.4,   10.7,    6.9,    8.1,    5.8,    5.8,    7.0,    5.3,    5.8,    8.6,    9.9,  999.0,    7.3,    4.4,    3.2,    2.5,  999.0,  999.0
2004/10/19 11:05,  -12.4,  -10.3,  -11.0,  -12.8,  -12.2,  -11.8,  -10.6,   -9.1,   -7.7,   -5.3,   -2.9,   -0.7,   -0.6,  999.0,    1.2,    1.6,    3.7,    4.1,    4.6,    4.5,    6.3,    8.6,    9.6,   10.8,   12.4,   12.7,   13.8,   17.1,   17.2,   19.1,   21.0,   21.2,   22.0,   23.6,   23.6,   23.4,   24.2,   25.3,   27.1,   27.0,   27.4,   27.3,   27.5,   28.0,   28.4,   27.6,   28.5,   28.3,   29.1,   29.0,   29.6,   28.7,   29.0,   29.0,   28.7,   29.1,   30.6,   29.6,   31.7,   31.1,   31.6,   33.4,   33.8,   32.2,   34.6,   37.7,   37.6,   39.8,   46.0,   45.8,  999.0,  999.0,  999.0,   43.6,  999.0,  999.0,   39.2,   42.7,  999.0,   38.5,  999.0,   32.1,   33.4,   29.0,  999.0,  999.0,   23.4,    0.5,   21.6,   25.6,   20.1,   21.8,   20.7,   21.6,   21.8,  999.0,  999.0,   21.3,   22.8,   21.5,   21.3,   18.0,   11.3,    9.1,  999.0,  999.0,    6.2,    7.2,    7.9,    8.5,    9.5,   10.9,   10.2,    9.8,    7.7,    5.4,    5.9,  999.0,  999.0,  999.0
2004/10/19 11:15,  -11.0,   -9.0,   -9.9,  -12.5,  -11.3,  -12.0,   -7.0,   -9.0,   -6.6,   -4.0,   -4.8,   -4.3,   -3.7,   -6.0,   -3.0,   -6.7,   -0.0,    1.5,    4.6,    7.0,    8.7,    9.4,   10.1,   11.5,   12.4,   12.9,   14.1,   15.3,   17.3,   17.4,   17.2,   16.9,   17.2,   17.8,   18.9,   19.3,   20.5,   21.0,   22.3,   24.2,   28.4,   28.1,   26.5,   26.6,   28.7,   30.9,   29.9,   30.9,   31.0,   31.1,   31.0,   31.1,   31.7,   32.6,   32.6,   32.1,   32.1,   31.7,   32.2,   31.7,   33.1,   33.5,   32.3,   33.3,   36.2,   37.6,   41.6,   37.9,   42.6,   46.0,   49.9,  999.0,  999.0,  999.0,   44.2,  999.0,   42.4,   47.7,  999.0,   41.4,   32.9,   34.7,   36.3,  999.0,  999.0,  999.0,   22.5,  999.0,   22.2,   24.7,   22.0,   23.6,  999.0,   22.8,   25.5,  999.0,   19.2,   22.8,   22.4,   23.0,   21.8,   15.3,   11.7,    9.8,  999.0,  999.0,  999.0,  999.0,    7.6,    9.9,    9.7,   10.3,  999.0,    9.5,    7.5,    5.5,    4.0,    1.7,  999.0,  999.0
2004/10/19 11:25,  -11.9,  -11.6,  -12.4,  -12.6,  999.0,  999.0,  999.0,  -10.0,   -9.4,   -8.7,   -7.8,   -6.2,   -4.6,   -3.9,  999.0,  999.0,    1.7,    3.3,    3.7,    6.5,    8.7,    9.4,   11.5,   12.7,   13.0,   14.4,   14.7,   14.8,   14.8,   15.0,   15.3,   16.5,   17.2,   18.8,   19.4,   19.9,   21.2,   21.4,   22.8,   24.6,   26.6,   28.3,   29.8,   30.2,   30.8,   31.0,   32.6,   32.8,   32.9,   32.2,   30.7,   30.9,   32.0,   32.3,   32.3,   32.1,   32.4,   32.1,   33.6,   33.7,   33.1,   32.8,   32.2,   34.0,   37.0,   37.4,   42.1,   40.6,   42.8,   46.4,  999.0,  999.0,  999.0,  999.0,   48.6,   45.9,   43.3,   47.2,   44.5,  999.0,   36.0,   35.5,  999.0,  999.0,  999.0,  999.0,  999.0,  999.0,  999.0,   24.5,  999.0,  999.0,  999.0,  999.0,   21.9,   24.9,  999.0,  999.0,   21.6,   20.7,   20.0,   16.0,   11.3,   10.3,  999.0,  999.0,  999.0,  999.0,    6.9,    8.3,  999.0,    8.7,   10.2,    9.1,  999.0,    4.3,  999.0,  999.0,  999.0,  999.0
2004/10/19 11:35,  -12.3,  -12.4,  -11.2,  -12.0,  -12.8,  999.0,  999.0,  -11.7,  -11.3,  -10.4,   -9.5,   -8.8,   -6.7,   -6.6,   -4.9,    1.1,   -0.9,    3.0,    5.6,    8.3,   11.3,   13.4,   14.6,   15.7,   15.9,   17.6,   17.6,   19.2,   20.3,   21.7,   22.7,   22.3,   22.0,   22.9,   24.9,   25.8,   26.1,   26.9,   28.4,   29.5,   28.8,   30.0,   30.0,   30.1,   31.0,   31.5,   31.8,   31.7,   33.0,   32.3,   32.4,   31.1,   30.6,   29.8,   30.8,   31.9,   32.4,   31.0,   32.6,   33.5,   31.5,   33.2,   35.4,   35.5,   40.2,   43.5,   43.0,   40.1,   44.6,   45.4,   49.0,  999.0,  999.0,  999.0,   46.3,   48.7,   43.7,   48.0,  999.0,  999.0,   35.6,   36.5,   37.8,  999.0,  999.0,  999.0,  999.0,  999.0,  999.0,  999.0,   22.4,  999.0,  999.0,  999.0,   21.4,   24.8,  999.0,   23.8,   24.3,   22.7,   20.0,   18.8,   13.6,   10.7,    9.9,  999.0,  999.0,  999.0,    7.7,    8.8,    8.4,    9.0,    9.2,    8.6,    8.5,  999.0,  999.0,  999.0,  999.0,  999.0
2004/10/19 11:45,  -10.6,   -8.5,   -9.6,  -10.7,  999.0,  999.0,  999.0,   -7.7,   -9.7,   -9.0,   -7.2,   -5.9,   -5.7,   -5.2,   -0.2,  999.0,    4.3,    5.2,    7.5,    9.1,    9.6,   10.4,   11.3,   13.4,   14.5,   15.3,   16.1,   17.8,   17.9,   19.1,   17.4,   17.1,   16.1,   16.4,   17.5,   18.6,   19.4,   20.4,   21.7,   24.1,   24.9,   26.1,   27.6,   29.0,   29.3,   31.7,   32.2,   32.8,   33.2,   32.1,   30.8,   30.2,   30.9,   30.9,   32.1,   32.2,   34.0,   32.4,   33.9,   33.1,   33.7,   34.3,   37.4,   36.2,   38.3,   38.6,   39.9,   40.8,   39.5,   42.7,   44.8,   45.8,  999.0,   45.2,  999.0,  999.0,   40.0,   44.5,   44.5,   36.3,   36.6,   35.3,   33.2,   30.3,  999.0,  999.0,   26.0,  999.0,  999.0,  999.0,   21.0,  999.0,  999.0,   21.7,   19.9,   21.7,   24.1,   24.3,   24.5,   21.2,   20.1,   18.5,   15.8,   11.8,    9.9,  999.0,  999.0,    7.1,    7.8,    8.0,    8.1,    7.9,    8.1,    9.0,    8.7,    5.7,    3.0,  999.0,  999.0,  999.0
2004/10/19 11:55,  -12.0,  -10.7,  -11.6,  -13.2,  -14.3,   -9.4,  999.0,  -10.3,   -9.5,   -8.5,   -7.5,   -5.6,   -4.0,   -1.0,    1.3,    1.5,    2.7,    6.5,    8.4,    9.2,    9.0,    9.8,   11.7,   11.7,   13.5,   13.7,   13.9,   16.0,   16.9,   18.2,   14.4,   16.4,   16.8,   14.6,   14.5,   15.6,   16.0,   16.5,   19.0,   21.1,   22.8,   25.7,   27.4,   28.5,   29.4,   29.6,   29.5,   30.2,   30.5,   30.8,   31.1,   31.1,   30.6,   32.8,   32.8,   33.4,   32.0,   32.7,   33.9,   34.1,   34.2,   34.8,   34.7,   34.7,   38.4,   33.1,  999.0,   37.9,  999.0,  999.0,  999.0,   49.6,  999.0,  999.0,  999.0,  999.0,  999.0,  999.0,  999.0,   25.9,   35.8,   35.6,   33.6,   30.0,   26.0,  999.0,  999.0,  999.0,  999.0,  999.0,  999.0,  999.0,  999.0,  999.0,  999.0,  999.0,   18.9,  999.0,   20.2,   22.8,   20.7,   19.9,   16.3,   11.6,  999.0,  999.0,  999.0,    8.2,    9.6,    8.7,    8.2,    7.8,    9.0,    9.6,   10.6,  999.0,    6.4,  999.0,  999.0,  999.0
2004/10/19 12:05,  -13.0,  -13.6,  -15.3,  -14.5,  -11.4,   -4.6,   -9.3,  -11.3,  -10.3,   -9.3,   -7.6,   -4.3,   -2.8,   -0.7,    2.5,    4.1,    5.9,    7.6,    9.5,   10.2,   11.7,   13.2,   14.6,   14.8,   15.1,   14.9,   15.1,   15.4,   17.5,   20.6,   22.9,   25.6,   26.6,   27.0,   28.4,   27.1,   23.6,   23.8,   24.2,   25.5,   27.2,   28.6,   30.5,   31.4,   32.5,   32.0,   33.2,   32.8,   32.7,   32.8,   32.5,   32.4,   32.3,   32.5,   32.4,   32.8,   32.0,   32.4,   32.9,   36.4,   35.7,   34.3,   37.7,   37.7,   36.8,   37.4,   37.0,   42.3,   40.3,   43.2,  999.0,  999.0,  999.0,  999.0,  999.0,  999.0,   40.8,   43.3,   46.3,  999.0,   31.3,   35.4,   36.1,   26.8,  999.0,  999.0,   23.8,   27.0,  999.0,  999.0,  999.0,  999.0,  999.0,  999.0,  999.0,   22.1,   20.2,   23.2,   23.3,   25.1,   22.8,   20.4,   17.8,   10.8,    8.0,    8.1,  999.0,    8.9,    9.0,    8.3,    8.2,    8.2,    8.5,   11.1,    9.8,    1.4,    5.1,    4.8,    4.2,  999.0
2004/10/19 12:15,  -11.2,  -12.2,  -13.8,  -15.6,  -16.8,  -12.7,  -10.4,  -11.1,  -10.5,   -9.4,   -7.5,   -5.5,   -2.8,   -0.8,    3.3,    7.0,    7.9,    9.3,   11.5,   12.2,   13.4,   14.2,   16.1,   17.2,   17.6,   18.2,   18.5,   20.1,   21.8,   24.8,   25.6,   24.3,   24.9,   26.5,   29.3,   29.4,   29.1,   31.7,   31.7,   31.6,   31.0,   32.6,   33.1,   33.2,   32.3,   32.8,   33.7,   33.2,   33.8,   32.7,   31.5,   31.0,   30.5,   30.2,   30.8,   32.8,   33.3,   34.3,   32.1,   34.8,   34.5,   35.5,   38.5,   37.9,   37.0,   39.1,   44.2,   44.0,   43.5,   46.2,   49.2,  999.0,  999.0,  999.0,  999.0,   45.4,   43.6,   47.7,   44.9,   42.3,   35.7,   39.0,   37.2,   32.4,  999.0,  999.0,  999.0,  999.0,  999.0,  999.0,  999.0,   21.7,  999.0,    1.8,   21.7,   21.9,   22.3,   23.3,   23.9,   25.6,   21.2,   22.7,   19.3,   13.1,    9.2,    9.0,  999.0,    8.3,    9.0,    8.6,    9.1,    8.7,  999.0,  999.0,    9.8,    5.2,    4.1,  999.0,  999.0,  999.0
2004/10/19 12:25,  -11.0,  -11.8,  -12.3,  -14.2,  -15.1,  -14.2,  -12.0,  -11.2,  -10.4,   -8.8,   -7.6,   -5.6,   -2.8,   -0.3,    3.7,    5.6,    7.3,    7.8,    9.2,   11.3,   12.2,   13.1,   14.1,   15.3,   16.0,   17.0,   18.0,   19.1,   19.6,   20.0,   21.7,   22.6,   22.9,   25.1,   26.2,   26.7,   27.2,   28.0,   28.4,   28.5,   29.0,   27.9,   29.2,   30.2,   30.9,   30.9,   32.6,   32.6,   31.5,   31.0,   30.9,   31.7,   31.1,   30.5,   31.8,   32.4,   32.0,   32.9,   32.7,   32.6,   35.0,   37.2,   36.8,   38.5,  999.0,   37.1,   43.1,   38.8,   43.3,   44.9,  999.0,  999.0,  999.0,  999.0,  999.0,  999.0,   43.2,   32.6,  999.0,  999.0,  999.0,   36.8,   38.4,  999.0,  999.0,  999.0,  999.0,  999.0,  999.0,   28.9,  999.0,  999.0,   22.1,   19.7,   19.6,   20.8,  999.0,   19.6,   21.9,   25.1,   24.6,   23.3,   17.9,  999.0,    6.8,    7.5,  999.0,    7.9,    8.9,    9.8,  999.0,    7.1,    7.7,   10.7,  999.0,  999.0,  999.0,    4.1,  999.0,  999.0
2004/10/19 12:35,  -13.1,  -16.2,  -13.5,  -13.4,  -15.1,  -13.6,  -12.0,  -10.0,   -8.7,   -7.0,   -4.3,   -1.5,    1.6,    3.6,    6.7,    8.3,   10.3,   11.9,   13.4,   15.5,   17.0,   17.4,   17.6,   17.3,   18.0,   18.7,   18.5,   19.7,   21.3,   22.8,   24.5,   25.5,   26.2,   25.5,   24.3,   25.0,   25.3,   26.1,   26.5,   25.3,   26.3,   27.4,   28.2,   28.8,   29.8,   30.1,   29.7,   29.4,   30.4,   29.8,   31.2,   29.4,   29.9,   30.2,   30.3,   31.4,   31.8,   32.1,   33.3,   33.1,   33.7,   33.7,   35.4,   35.9,   38.8,   37.6,   42.1,   44.6,   45.5,   45.9,  999.0,   49.4,  999.0,  999.0,  999.0,  999.0,  999.0,   44.0,   50.1,  999.0,  999.0,   37.7,   34.5,   36.1,   31.1,  999.0,  999.0,   20.8,   24.9,   24.5,  999.0,   21.3,   19.3,   19.5,  999.0,   20.9,  999.0,  999.0,   20.8,   24.3,   26.8,   24.0,   18.7,   12.7,  999.0,    7.8,  999.0,    8.7,    9.2,  999.0,  999.0,    7.9,    8.5,    8.3,  999.0,    5.0,  999.0,  999.0,  999.0,  999.0
2004/10/19 12:45,  -13.8,  -14.2,  -14.3,  -17.0,  -13.1,  -12.2,  999.0,   -8.6,   -7.1,   -4.3,   -1.1,    1.5,    3.5,    5.8,    8.8,    9.2,    9.4,   11.0,   10.9,   11.7,   12.1,   12.0,   13.1,   13.6,   15.0,   15.2,   17.3,   19.3,   21.4,   23.7,   23.4,   23.3,   23.1,   24.9,   25.5,   25.9,   26.8,   27.7,   30.1,   29.5,   29.2,   29.0,   29.0,   29.5,   30.1,   30.6,   32.3,   29.8,   28.1,   27.9,   31.2,   30.3,   30.0,   29.8,   29.6,   30.5,   31.4,   32.8,   32.5,   32.0,   33.2,   32.3,   33.9,   36.7,   39.2,   37.9,   41.6,   46.8,  999.0,   43.8,  999.0,  999.0,  999.0,  999.0,  999.0,  999.0,   45.3,   45.7,   43.9,  999.0,  999.0,  999.0,   34.8,   36.8,  999.0,  999.0,  999.0,   23.4,   24.5,   26.9,  999.0,  999.0,   21.2,  999.0,  999.0,  999.0,   19.6,   19.9,   21.4,   24.6,   25.5,   21.0,   19.4,   11.4,    8.2,    7.2,    7.1,    6.7,    9.0,    9.7,    8.7,    9.4,    8.5,    9.7,    8.7,    6.7,    4.1,    4.6,  999.0,  999.0
2004/10/19 12:55,  -14.2,  -14.5,  -15.5,  -15.7,  -14.2,  -12.0,   -8.7,   -7.7,   -5.7,   -4.0,   -0.2,    3.8,    5.7,    6.2,    5.9,    8.6,    8.6,    7.9,   11.4,   12.2,   11.4,   12.5,   12.4,   13.6,   15.3,   16.4,   17.5,   18.6,   17.4,   17.2,   16.8,   17.1,   18.2,   19.7,   21.3,   24.9,   24.8,   26.3,   26.3,   27.2,   28.4,   28.9,   29.5,   31.2,   31.3,   30.8,   31.0,   29.5,   30.2,   29.8,   31.5,   31.9,   31.3,   29.9,   32.3,   33.6,   33.8,   32.7,   32.6,   31.3,   34.1,   33.6,   37.1,   40.9,   37.8,   42.1,   41.9,   45.0,   44.0,   45.2,  999.0,  999.0,  999.0,  999.0,  999.0,  999.0,   41.9,   45.6,   44.5,  999.0,  999.0,  999.0,  999.0,   34.4,   31.1,   28.2,   29.1,   25.9,   27.3,  999.0,  999.0,   21.8,   22.7,  999.0,   22.0,   17.8,   18.1,   18.8,   22.0,   25.9,   22.6,   18.5,   18.7,    9.7,    7.6,  999.0,    6.4,    7.7,    9.7,   13.3,  999.0,   11.0,    8.3,   10.1,    8.1,    6.9,    6.1,    4.5,  999.0,  999.0
2004/10/19 13:05,  -15.1,  -15.7,  -15.4,  -15.9,  -12.8,  -11.2,   -9.2,   -8.2,   -6.5,  999.0,    4.8,    6.6,   10.1,   15.3,   15.7,   16.6,   16.1,   15.9,   15.7,   13.6,   12.8,   11.5,   13.3,   14.4,   16.4,   18.3,   17.7,   15.8,   17.5,   20.5,   21.5,   21.9,   22.9,   24.1,   26.3,   27.9,   27.8,   29.8,   27.9,   28.2,   28.0,   28.0,   28.7,   30.9,   30.2,   30.0,   30.7,   30.1,   30.0,   29.9,   29.6,   31.0,   32.7,   31.9,   32.6,   33.4,   33.4,   34.1,   36.0,   34.5,   34.6,   34.0,   37.3,   39.0,   38.4,   41.3,   41.9,   45.7,   46.2,   45.2,  999.0,  999.0,  999.0,  999.0,   45.6,  999.0,   39.6,   46.9,   45.9,   46.4,  999.0,  999.0,   33.3,   35.6,  999.0,   27.5,   27.8,   25.8,   26.2,  999.0,   25.1,  999.0,  999.0,   21.9,   36.8,   17.5,   16.6,   19.2,   21.4,   26.0,   21.9,   18.2,   14.2,   10.2,    7.1,    6.9,    8.4,    8.7,   10.8,   11.8,  999.0,   11.3,   11.4,   11.6,   10.1,    6.4,    5.2,    3.9,  999.0,  999.0
2004/10/19 13:15,  -15.5,  -17.1,  -18.3,  -16.2,  -13.1,  -11.4,   -9.8,   -7.6,   -4.6,   -1.6,    2.1,    5.1,    8.7,   10.5,   12.8,   15.1,   15.9,   17.9,   17.9,   14.3,   14.7,   12.4,   12.6,   13.9,   14.7,   16.1,   15.9,   14.9,   15.9,   17.4,   20.7,   21.0,   23.0,   24.0,   23.5,   25.2,   29.2,   27.9,   27.2,   28.3,   28.2,   28.3,   29.2,   30.0,   30.2,   29.4,   28.2,   28.7,   29.5,   30.0,   31.2,   30.8,   31.9,   31.9,   33.2,   32.4,   34.4,   32.6,   34.2,   33.8,   35.4,   36.2,   38.7,   40.1,   43.4,   43.5,   43.7,   47.3,   44.7,   47.6,  999.0,  999.0,  999.0,   41.5,  999.0,  999.0,  999.0,  999.0,   49.1,  999.0,  999.0,  999.0,   36.1,   36.1,   34.3,  999.0,  999.0,  999.0,   25.6,   25.4,   30.2,   22.9,   23.3,   20.6,   21.1,   16.3,   17.0,  999.0,   23.3,   22.2,   20.6,   16.3,   15.6,   11.4,    9.1,    8.2,    9.4,   10.4,   12.0,   11.5,   12.7,   13.7,   12.3,   12.0,   10.0,    7.4,    6.3,    4.4,    4.9,  999.0
2004/10/19 13:25,  -16.6,  -16.1,  -16.2,  -15.1,  -12.7,  -10.1,   -8.3,   -6.3,   -5.5,   -1.5,    3.0,    6.2,    7.8,    8.8,   10.1,   12.9,   16.1,   16.8,   17.6,   18.4,   18.3,   15.9,   11.7,   12.7,   13.7,   13.5,   14.6,   17.2,   19.1,   21.1,   22.7,   23.5,   25.3,   25.6,   27.2,   27.4,   28.2,   28.3,   27.7,   26.9,   27.8,   29.8,   28.7,   29.0,   28.8,   28.7,   28.3,   30.0,   30.7,   30.8,   31.6,   31.5,   33.0,   31.7,   30.7,   30.3,   31.7,   30.9,   31.5,   33.6,   34.0,   36.2,   36.7,   38.6,   41.5,   41.7,   47.0,   43.9,   45.4,   45.8,   46.2,  999.0,  999.0,  999.0,  999.0,  999.0,  999.0,   42.5,   43.7,   45.4,  999.0,  999.0,   37.0,   30.6,  999.0,  999.0,  999.0,   23.7,   26.4,  999.0,   19.5,   21.0,   22.4,   21.2,   20.4,  999.0,   16.4,   18.1,   22.0,   25.2,   20.2,   17.0,   15.3,   11.8,    8.8,    7.8,    8.3,    8.8,   10.9,   11.9,   11.8,   13.3,   12.2,   11.3,    9.9,    6.5,    5.9,    3.9,    4.8,  999.0
2004/10/19 13:35,  -15.4,  -16.2,  -16.5,  -17.2,  -13.9,  -10.0,   -7.8,   -6.2,   -5.6,   -3.3,    0.6,    0.9,    4.7,    5.5,    9.2,    9.9,   11.9,   14.0,   14.0,   14.8,   17.9,   18.2,   16.9,   15.8,   13.6,   13.9,   16.3,   19.2,   22.5,   24.0,   24.8,   26.7,   27.4,   27.6,   27.9,   29.1,   28.6,   28.1,   28.3,   25.9,   27.3,   27.8,   27.9,   27.9,   27.1,   29.1,   30.2,   30.0,   29.1,   30.1,   32.4,   32.6,   29.1,   30.6,   30.5,   30.6,   30.3,   29.8,   29.7,   30.4,   32.5,   34.9,   38.4,   37.8,   41.3,   43.0,   41.2,   44.6,   48.0,  999.0,   42.3,  999.0,  999.0,  999.0,  999.0,  999.0,  999.0,   41.1,   47.2,   52.8,  999.0,  999.0,  999.0,   38.1,  999.0,  999.0,   26.9,   25.0,   28.3,  999.0,   21.0,   23.9,   24.2,  999.0,   22.3,  999.0,   17.0,   19.4,   23.9,   26.4,   18.0,   17.0,   17.1,   11.4,   19.4,    8.4,    8.8,    9.6,   10.1,   12.4,   11.1,   10.4,   10.8,    9.7,    9.4,    6.0,    5.4,    4.0,    4.0,  999.0
2004/10/19 13:45,  -16.0,  -15.9,  -17.1,  -16.6,  -13.5,  -11.5,   -9.0,   -7.2,   -5.8,   -3.4,   -1.6,    0.9,    3.2,    3.0,    8.7,    6.7,  999.0,    7.3,    9.6,    9.3,   11.4,   11.7,   12.2,   13.3,   13.9,   14.5,   17.2,   19.0,   20.6,   21.5,   23.1,   24.6,   24.2,   25.0,   26.2,   25.8,   26.3,   25.5,   27.1,   25.9,   26.6,   27.0,   26.5,   27.1,   27.7,   27.8,   29.3,   28.6,   26.7,   28.4,   30.6,   30.1,   31.4,   30.2,   30.7,   30.9,   30.7,   31.7,   31.0,   31.5,   32.7,   34.5,   37.9,   35.1,   40.4,   40.3,   43.4,   46.6,   48.9,  999.0,  999.0,   43.9,   44.1,  999.0,  999.0,  999.0,  999.0,  999.0,  999.0,   45.8,  999.0,  999.0,   37.2,   33.4,   31.0,  999.0,   26.0,   24.6,   26.9,  999.0,   21.0,   22.1,  999.0,   19.4,   17.5,  999.0,   15.6,   18.1,   23.0,   26.5,   21.4,   19.0,   14.6,   11.4,    8.5,    7.9,    9.6,    9.9,   10.0,   13.0,  999.0,   11.4,    9.8,    9.3,   19.4,    9.0,    5.1,    4.4,    4.3,  999.0
2004/10/19 13:55,  -17.0,  -16.8,  -18.1,  -17.0,  -15.1,  -10.3,   -8.6,   -7.8,   -5.2,   -3.2,    0.1,    0.6,    1.8,    3.4,    2.0,    3.5,    5.1,    7.3,    7.0,    8.2,   10.0,   10.2,   10.6,   12.0,   13.4,   16.6,   18.7,   20.2,   21.7,   22.9,   23.2,   23.9,   24.9,   25.2,   24.8,   24.3,   23.4,   22.0,   21.3,   21.5,   21.3,   21.6,   22.7,   24.7,   26.5,   27.6,   28.7,   28.9,   28.4,   29.6,   30.0,   29.4,   31.0,   30.5,   29.4,   30.6,   30.7,   32.1,   32.5,   31.5,   34.4,   35.0,   36.5,   40.7,   38.9,   42.9,   42.9,   44.2,   48.4,   49.5,  999.0,   46.8,   43.3,   44.4,  999.0,  999.0,  999.0,   41.7,   44.3,   43.0,   43.2,  999.0,   33.5,   32.8,   35.2,   29.2,  999.0,   21.9,  999.0,  999.0,  999.0,   17.0,   18.0,   18.7,   17.4,  999.0,  999.0,   18.8,   20.8,   25.0,   27.1,   18.8,   20.2,   11.5,   11.3,    8.2,    9.9,   10.2,   10.4,   11.4,   11.2,   11.7,   11.2,   10.3,    7.4,    5.8,    5.3,    3.6,    3.9,  999.0
2004/10/19 14:05,  -15.8,  -17.6,  -17.5,  -17.1,  -15.4,  -10.8,  -10.3,   -8.4,   -4.7,   -1.4,   -0.2,   -0.0,    0.9,    2.3,    5.0,    7.5,    8.6,    8.1,    7.7,    9.5,   10.7,   11.9,   13.6,   14.7,   16.6,   18.4,   19.3,   19.8,   22.0,   22.4,   23.5,   24.8,   25.4,   25.9,   26.6,   28.4,   28.2,   27.7,   26.6,   24.6,   23.4,   24.2,   22.4,   23.7,   25.3,   24.6,   25.4,   26.6,   27.0,   25.9,   27.8,   27.1,   26.3,   28.0,   28.6,   30.3,   29.0,   31.0,   31.0,   33.2,   34.3,   37.5,  999.0,   37.6,   39.4,   42.6,  999.0,   40.0,   44.6,   50.7,  999.0,  999.0,   44.0,   43.3,   48.5,  999.0,  999.0,   43.6,   48.4,   41.2,  999.0,  999.0,   33.2,   30.9,   29.1,   27.3,   26.0,  999.0,  999.0,  999.0,   23.3,   17.9,   18.2,   16.1,   18.0,   18.2,  999.0,  999.0,   18.8,   22.1,  999.0,   17.1,   18.9,   10.5,    9.7,    8.0,   10.1,  999.0,   12.9,   11.8,   11.2,   12.0,   11.1,   11.2,   10.3,    5.5,    3.3,    3.4,    4.3,  999.0
2004/10/19 14:15,  -17.7,  -17.0,  -17.2,  -16.7,  -15.3,  -12.2,   -8.7,   -9.1,   -6.0,   -4.4,   -1.4,    1.4,    3.3,    6.4,    9.5,    9.6,    9.4,   10.3,   11.4,   12.9,   13.4,   13.7,   15.7,   17.3,   18.2,   18.9,   19.4,   20.0,   21.1,   21.6,   23.2,   24.4,   24.2,   24.9,   24.8,   26.2,   27.2,   27.1,   24.5,   23.9,   24.3,   23.7,   23.6,   24.0,   23.6,   23.5,   22.9,   23.2,   23.6,   24.6,   23.9,   24.7,   25.7,   27.5,   28.4,   29.7,   30.6,   31.7,   32.1,   33.3,   36.6,   37.9,   39.6,   39.7,   40.4,   43.3,   42.3,   41.7,   46.2,   46.8,   45.9,  999.0,  999.0,  999.0,   46.8,   45.6,   48.9,   44.1,   48.4,  999.0,  999.0,   33.5,   34.0,   34.9,   30.8,  999.0,  999.0,   21.9,  999.0,  999.0,  999.0,  999.0,  999.0,  999.0,   16.1,   15.9,  999.0,  999.0,   17.2,   21.8,   26.1,   18.6,   20.1,   14.2,  999.0,   10.0,  999.0,   11.1,   12.0,   13.0,   12.0,   13.0,   10.9,   10.4,    5.9,    5.7,    5.9,    4.3,    3.9,  999.0
2004/10/19 14:25,  -14.5,  -16.2,  -16.0,  -16.5,  -14.9,  -12.5,  -11.4,  -10.0,   -7.8,   -5.5,   -1.2,    0.1,    3.2,    4.8,    2.8,    6.6,    7.9,    8.4,    9.9,   10.5,   11.6,   12.4,   13.6,   13.7,   14.3,   15.7,   17.0,   17.8,   19.5,   20.1,   20.7,   22.9,   24.6,   22.3,   27.2,   24.0,   27.0,   27.5,   25.7,   26.2,   24.6,   23.3,   24.8,   23.4,   24.3,   25.5,   23.4,   22.8,   22.5,   23.7,   26.5,   22.8,   26.8,   27.8,   27.3,   27.7,   29.2,   29.4,   31.6,   34.5,   36.5,   38.4,   39.9,   39.8,   40.0,   42.5,   43.1,   45.1,   47.2,   49.7,   47.7,   49.9,  999.0,  999.0,  999.0,  999.0,  999.0,   41.0,   46.0,  999.0,  999.0,   34.4,   33.3,   33.5,   33.7,  999.0,   23.9,   27.9,  999.0,  999.0,  999.0,   15.5,   17.0,   17.7,  999.0,   14.8,   15.6,  999.0,   16.1,   20.2,   22.6,   16.1,   17.5,   16.0,   10.0,   10.1,  999.0,   11.3,   12.1,   14.1,  999.0,   12.0,  999.0,   10.8,    6.8,    5.1,    5.4,    4.3,    3.9,  999.0
2004/10/19 14:35,  -12.3,  -14.5,  -15.3,  -15.7,  -15.1,  -13.4,  -11.9,  -11.9,   -9.5,   -8.1,   -6.5,   -6.0,   -3.7,   -1.8,   -0.2,    2.0,    3.5,    6.5,    8.5,   10.4,   12.8,   12.7,   15.7,   16.5,   17.8,   19.2,   20.5,   21.0,   19.9,   21.6,   22.1,   23.6,   25.6,   25.7,   27.3,   28.8,   29.9,   30.0,   28.6,   23.8,   22.5,   23.8,   24.9,   25.5,   24.9,   25.3,   24.4,   24.4,   25.7,   24.0,   25.0,   25.2,   26.4,   28.4,   28.4,   29.1,   27.7,   30.2,   33.3,   35.6,   36.5,   38.4,   37.7,   39.9,   41.2,   41.4,   42.7,   44.5,   45.8,   49.4,   45.8,  999.0,  999.0,  999.0,  999.0,  999.0,   44.4,   46.8,   45.5,   47.8,   37.0,   35.3,   35.0,   35.5,   31.3,   26.8,  999.0,   26.6,   28.1,  999.0,  999.0,  999.0,   18.9,   16.6,  999.0,  999.0,   17.5,   16.6,   18.3,   22.4,   21.9,   17.4,   17.4,   14.9,   11.2,    9.1,   12.0,   13.6,   12.9,   13.3,  999.0,  999.0,    9.2,    9.3,    5.0,    4.1,    3.1,    3.2,  999.0,  999.0
2004/10/19 14:45,  -13.8,  -15.3,  -16.1,  -16.9,  -15.6,  -16.2,  -12.2,  -11.0,   -9.7,   -8.1,   -6.3,   -4.2,   -1.9,   -1.6,   -0.7,    2.6,    5.9,    6.4,    7.5,    8.6,   11.9,   13.8,   15.2,   16.7,   18.3,   18.9,   20.7,   21.6,   21.6,   19.6,   21.6,   22.9,   23.7,   23.2,   24.2,   26.0,   26.5,   27.1,   27.8,   26.7,   26.3,   26.1,   26.4,   26.3,   26.3,   25.9,   26.5,   28.1,   26.7,   28.3,   27.7,   27.7,   27.8,   28.6,   28.8,   30.4,   32.2,   33.8,   35.4,   37.8,   38.2,   37.5,   39.1,   40.4,  999.0,   43.4,  999.0,  999.0,   42.3,   46.2,   47.4,  999.0,  999.0,  999.0,   47.2,   17.9,   43.0,   49.4,   42.1,   43.7,  999.0,   37.2,   35.9,   34.2,   31.3,   30.4,   25.2,   46.6,   28.9,  999.0,  999.0,  999.0,   17.5,   19.6,  999.0,  999.0,   14.5,  999.0,  999.0,   20.4,   22.3,   19.2,   28.3,   12.4,   11.4,   16.6,   10.9,   12.0,   13.2,   12.9,   11.3,    8.2,    8.8,    7.7,    6.4,  999.0,  999.0,  999.0,  999.0,  999.0
2004/10/19 14:55,  -12.8,  -15.2,  -15.2,  -16.2,  -15.3,  -11.6,  -12.5,  -11.3,  -10.8,   -9.2,   -7.5,   -7.4,   -1.6,    0.5,    0.6,    2.7,    5.0,    5.5,    6.6,    8.3,    9.0,    9.2,   12.2,   13.9,   15.1,   18.2,   18.5,   18.5,   18.8,   20.8,   21.7,   22.9,   22.1,   23.7,   23.6,   24.9,   27.6,   28.5,   28.6,   26.3,   26.9,   25.3,   25.6,   24.8,   26.2,   25.9,   27.4,   28.4,   27.6,   26.4,   28.0,   28.1,   27.7,   30.7,   30.8,   28.8,   31.8,   34.4,   34.0,  999.0,  999.0,  999.0,  999.0,  999.0,  999.0,  999.0,  999.0,  999.0,  999.0,  999.0,  999.0,  999.0,  999.0,  999.0,  999.0,  999.0,  999.0,  999.0,  999.0,  999.0,  999.0,  999.0,  999.0,  999.0,  999.0,  999.0,  999.0,  999.0,  999.0,  999.0,  999.0,  999.0,  999.0,  999.0,  999.0,  999.0,   14.7,  999.0,  999.0,   20.8,  999.0,  999.0,  999.0,  999.0,  999.0,  999.0,  999.0,  999.0,  999.0,  999.0,  999.0,  999.0,  999.0,  999.0,  999.0,  999.0,  999.0,    5.8,  999.0,  999.0
2004/10/19 15:05,  -12.9,  -15.3,  -16.2,  -15.7,  -14.1,   -9.1,  -10.7,   -9.1,   -8.2,   -5.6,   -3.6,   -2.5,   -2.1,   -1.3,    3.1,    2.5,    2.2,    4.5,    5.8,    7.3,    9.9,   12.1,   15.5,   17.3,   18.6,   20.2,   20.1,   20.3,   20.9,   21.6,   23.5,   22.6,   22.5,   23.8,   23.5,   24.4,   26.0,   27.0,   27.9,   28.2,   27.7,   26.9,   27.1,   27.4,   30.0,   30.0,   29.9,   28.5,   27.7,   28.2,   27.8,   27.6,   27.6,   28.2,   29.7,   30.7,   32.6,   33.2,   35.7,   37.3,   36.6,   38.6,   39.7,   40.9,   39.4,  999.0,  999.0,  999.0,   42.2,   40.5,  999.0,  999.0,   41.8,   47.7,  999.0,  999.0,   44.1,   44.9,   47.0,  999.0,  999.0,  999.0,   32.6,   31.3,   31.3,   29.1,   31.5,   30.1,  999.0,   21.5,   26.5,  999.0,  999.0,   18.1,  999.0,  999.0,  999.0,  999.0,   17.2,   21.1,   23.0,   18.3,   16.0,   14.0,   11.9,   10.3,   11.0,  999.0,   13.4,   11.0,   11.4,  999.0,    9.6,    6.4,    5.8,  999.0,    5.8,    5.8,  999.0,  999.0
2004/10/19 15:15,  -13.9,  -15.5,  -16.7,  -16.7,  999.0,  -11.8,   -9.2,   -8.6,   -5.6,   -4.2,   -0.4,    0.4,    2.3,    2.2,    4.7,    6.5,    6.4,    9.9,   12.1,   13.4,   13.6,   14.6,   16.9,   18.3,   18.9,   19.4,   19.9,   18.9,   21.1,   21.8,   22.4,   22.6,   24.2,   26.7,   27.9,   30.1,   29.8,   27.8,   26.8,   26.5,   26.6,   26.0,   26.0,   28.3,   30.0,   30.1,   30.9,   29.0,   28.4,   26.6,   28.0,   28.1,   28.7,   28.9,   30.0,   30.4,   31.9,   34.0,   36.2,   36.5,   38.6,   39.9,  999.0,  999.0,  999.0,   38.6,  999.0,   40.8,  999.0,  999.0,   39.7,   42.3,  999.0,   46.4,  999.0,  999.0,  999.0,   42.6,   47.3,  999.0,  999.0,   34.8,   34.4,   32.0,   27.1,   27.0,   27.3,   29.6,  999.0,   26.1,  999.0,  999.0,   16.6,  999.0,  999.0,  999.0,  999.0,  999.0,   14.6,   18.4,   21.3,   15.5,   17.2,   12.7,   11.0,   11.0,  999.0,    7.2,   12.9,    9.6,   11.5,  999.0,    8.0,    6.3,    6.3,    6.4,    6.2,  999.0,  999.0,  999.0
2004/10/19 15:25,  -15.3,  -17.2,  -15.4,  -15.0,  -13.5,  -10.9,   -8.0,   -6.4,   -3.0,   -0.9,   -0.2,    2.0,    2.4,    4.8,    4.6,   10.2,   16.3,   14.2,   13.9,   14.1,   15.5,   15.7,   17.0,   17.8,   18.6,   20.6,   21.6,   22.2,   22.6,   23.3,   24.5,   26.8,   27.2,   27.4,   28.1,   31.1,   29.5,   26.9,   26.5,   26.9,   26.3,   26.1,   25.7,   26.6,   28.1,   28.1,   27.1,   28.5,   28.3,   27.3,   28.7,   29.0,   30.1,   30.1,   31.3,   32.5,   33.1,   35.6,   38.2,   39.2,   38.3,   39.1,   39.1,   38.1,  999.0,   39.4,   38.4,   41.1,   37.8,   42.8,   44.6,   39.8,   43.0,   45.7,  999.0,   45.3,  999.0,  999.0,   46.0,  999.0,   36.8,   33.0,   33.4,   32.4,   27.5,   27.1,   27.0,  999.0,  999.0,   23.3,  999.0,   15.2,   15.5,  999.0,  999.0,  999.0,  999.0,  999.0,   18.9,  999.0,   19.7,   20.1,   15.1,   11.7,    9.9,  999.0,  999.0,  999.0,  999.0,  999.0,   10.0,  999.0,  999.0,    7.3,    5.8,  999.0,  999.0,    6.4,  999.0,  999.0
2004/10/19 15:35,  -12.7,  -15.5,  -16.1,  -16.4,  -12.3,   -4.6,   -6.5,   -7.2,   -3.9,   -1.8,    0.2,    0.7,    3.1,    3.5,    5.7,    8.8,   10.0,   11.8,   12.6,   13.7,   12.5,   14.1,   15.4,   17.5,   18.0,   19.2,   20.0,   20.7,   20.8,   22.4,   23.2,   23.9,   23.8,   24.9,   25.4,   27.2,   27.2,   27.4,   26.6,   25.7,   26.2,   25.9,   27.9,   29.2,   29.2,   29.1,   28.9,   29.0,   27.9,   28.9,   30.0,   31.7,   30.7,   31.9,   31.5,   32.4,   33.9,   35.8,   36.5,   37.4,   37.2,   39.1,   38.1,   39.2,  999.0,   39.8,   40.0,   39.7,   39.3,   40.1,   41.0,  999.0,  999.0,   40.9,   44.7,   45.6,   47.0,   44.9,   44.4,   41.7,   36.7,   36.2,   36.0,   28.7,   28.5,   31.6,   27.3,   27.6,  999.0,  999.0,   43.8,   18.3,  999.0,  999.0,  999.0,  999.0,  999.0,   15.9,   17.1,   20.7,   19.7,   19.0,   15.9,   12.1,   11.1,  999.0,   12.8,   13.6,   13.3,   13.0,   10.8,   10.2,  999.0,    7.7,    6.2,    6.2,    6.1,  999.0,  999.0,  999.0
2004/10/19 15:45,  -14.4,  -14.7,  -16.5,  -15.5,   -8.9,   -0.1,   -7.2,   -7.3,   -6.3,   -4.6,   -1.4,   -0.6,    0.6,    2.3,    3.9,    6.1,    6.8,    9.1,    9.2,    9.6,   10.8,   13.6,   15.8,   17.7,   19.8,   21.9,   21.1,   22.9,   24.5,   24.5,   25.8,   25.6,   25.4,   23.7,   25.4,   27.1,   28.0,   27.2,   26.3,   26.6,   25.3,   25.1,   25.1,   26.6,   27.4,   26.7,   26.8,   28.2,   28.1,   28.6,   28.3,   29.3,   30.4,   32.0,   31.5,   32.5,   34.5,   35.2,   37.5,   39.0,   38.4,   37.1,   38.7,   40.3,   40.2,   41.8,   37.6,   39.6,   40.4,  999.0,  999.0,  999.0,  999.0,   43.0,   47.0,   47.1,   47.5,  999.0,   42.6,   40.4,   36.9,   34.4,   33.1,   29.5,  999.0,  999.0,   29.9,  999.0,  999.0,  999.0,  999.0,   17.2,   16.3,   16.8,  999.0,  999.0,  999.0,  999.0,  999.0,  999.0,  999.0,   16.6,   14.5,   14.2,    9.6,   10.5,  999.0,  999.0,   15.5,  999.0,  999.0,  999.0,  999.0,  999.0,    6.6,  999.0,  999.0,  999.0,  999.0,  999.0
2004/10/19 15:55,  -15.5,  -15.8,  -14.6,  -14.4,  -14.8,   -4.1,   -8.4,   -8.6,   -6.4,   -4.7,   -2.6,   -1.9,    0.1,    1.8,    3.5,    6.2,    8.4,   10.6,   12.9,   14.2,   12.8,   14.7,   14.7,   18.5,   15.8,   19.9,   20.7,   21.4,   22.0,   21.7,   24.7,   24.1,   23.3,   24.4,   24.3,   24.8,   27.4,   26.4,   27.6,   28.6,   27.2,   27.0,   27.1,   25.9,   26.4,   26.4,   27.5,   27.7,   26.0,   27.2,   29.5,   29.0,   28.3,   29.8,   31.5,   32.3,   34.3,   36.2,   36.3,   35.9,   37.3,   38.8,   40.4,   39.8,   40.1,   41.0,  999.0,   38.3,   39.3,  999.0,  999.0,  999.0,   41.7,   45.3,   45.6,   47.9,   48.6,  999.0,  999.0,   39.6,   38.2,   37.1,   31.0,   27.4,   27.1,   28.2,   27.5,   30.7,  999.0,  999.0,    4.0,  999.0,  999.0,  999.0,  999.0,  999.0,  999.0,   15.7,   19.0,   18.2,   18.5,   18.9,   23.1,   13.6,   21.5,   10.7,   10.8,  999.0,   15.9,   16.8,   11.3,   11.2,    7.0,    6.6,  999.0,  999.0,    4.2,  999.0,  999.0,  999.0
2004/10/19 16:05,  -17.1,  -17.9,  -16.7,  -14.6,   -8.8,   -1.3,   -6.8,   -8.6,   -6.5,   -4.1,   -2.2,    1.3,    2.0,    1.7,    5.8,    5.8,    7.2,   10.8,   12.1,   13.5,   15.3,   16.1,   15.6,   16.9,   17.6,   19.2,   18.9,   19.7,   20.7,   21.4,   22.5,   21.7,   24.2,   23.3,   23.2,   22.2,   22.0,   22.9,   23.7,   24.6,   25.6,   25.9,   26.1,   25.7,   25.9,   24.5,   24.8,   25.3,   25.4,   26.3,   26.1,   26.5,   26.5,   27.1,   27.4,   28.4,   29.5,   31.4,   31.4,   33.4,   35.7,   35.5,   37.2,   36.6,   37.6,   40.7,   38.5,   38.8,  999.0,   36.7,   39.2,   41.0,   41.4,   44.3,   46.1,   46.1,   46.0,   46.2,   42.5,   42.1,   33.7,   36.6,   30.7,   28.1,   25.9,   26.7,   28.3,  999.0,  999.0,  999.0,  999.0,   19.8,  999.0,  999.0,  999.0,  999.0,  999.0,  999.0,   18.1,  999.0,   20.7,   22.5,   14.4,   12.9,   10.2,   11.3,  999.0,   15.1,  999.0,  999.0,   11.0,   11.7,    9.4,    8.8,  999.0,  999.0,  999.0,    7.2,    9.2,  999.0
2004/10/19 16:15,  -16.9,  -18.0,  -17.4,  -15.3,   -5.9,   -6.3,   -7.0,   -6.5,   -4.4,   -3.0,   -1.0,    0.3,    2.7,    6.1,    7.7,    9.0,    9.0,   10.2,   10.8,   12.0,   12.2,   10.4,   13.2,   13.7,   14.1,   14.4,   14.8,   17.3,   17.8,   17.3,   18.4,   17.7,   18.9,   17.1,   16.5,   15.8,   15.7,   16.9,   17.8,   18.8,   20.0,   21.3,   22.6,   23.9,   25.1,   25.6,   25.5,   24.5,   23.6,   24.0,   24.1,   24.7,   24.3,   25.0,   25.0,   26.0,   28.7,   29.3,   27.7,   30.4,   32.6,   34.0,   34.8,   34.2,   35.3,   36.0,   36.5,   37.0,  999.0,  999.0,   40.5,  999.0,   40.2,   41.6,   44.0,   45.6,   43.7,   41.8,   44.7,   44.3,   35.0,   31.2,   30.6,   28.4,   27.6,  999.0,   27.7,  999.0,  999.0,  999.0,  999.0,   16.9,  999.0,  999.0,  999.0,  999.0,  999.0,  999.0,   17.5,  999.0,   20.4,   20.8,   17.8,   16.0,   13.8,  999.0,   12.3,   15.5,   15.2,   13.9,   12.1,   11.7,    7.6,    7.7,    8.1,  999.0,  999.0,    6.9,    7.5,  999.0
2004/10/19 16:25,  -17.2,  -17.3,  -16.7,  -13.8,   -9.8,   -8.6,   -9.1,   -8.4,   -5.8,    0.2,    1.9,    2.5,    6.1,    6.7,    9.0,   10.9,   12.7,   13.7,   13.8,   13.4,   15.4,   15.6,   17.0,   16.3,   17.0,   16.9,   17.9,   17.7,   17.3,   18.1,   18.0,   18.4,   17.5,   17.6,   17.9,   17.1,   15.7,   15.5,   16.3,   16.0,   17.7,   18.9,   20.1,   22.4,   25.2,   26.7,   26.4,   26.9,   26.2,   25.3,   23.4,   24.6,   25.4,   25.1,   27.2,   28.1,   28.4,   27.7,   28.2,   29.4,   30.9,   32.2,   34.1,   33.9,   35.2,   35.4,   37.0,  999.0,  999.0,   40.9,  999.0,   42.5,  999.0,   40.1,   42.0,   44.0,   42.5,   43.2,   40.2,   40.0,   35.1,   34.2,   28.5,   28.3,   29.2,  999.0,   29.1,  999.0,  999.0,  999.0,  999.0,  999.0,  999.0,   15.7,  999.0,  999.0,  999.0,  999.0,  999.0,  999.0,  999.0,   20.7,   18.7,   16.5,   13.8,   11.9,   12.6,   15.1,   14.9,   11.1,   11.8,   10.4,    8.4,    7.4,    5.9,  999.0,  999.0,  999.0,  999.0,  999.0
2004/10/19 16:35,  -15.6,  -16.4,  -16.0,  -15.4,   -9.0,   -8.4,   -6.2,   -9.2,   -7.9,   -5.2,   -4.2,   -2.1,   -0.6,    1.5,    0.6,    3.5,    6.7,    6.9,    9.6,   11.2,   12.9,   12.7,   13.6,   15.2,   14.8,   15.7,   16.2,   17.5,   18.3,   19.0,   18.6,   19.6,   19.8,   19.9,   19.8,   19.3,   18.6,   18.0,   19.5,   20.4,   20.8,   20.5,   21.3,   21.1,   22.8,   24.9,   25.2,   26.2,   24.4,   24.8,   24.9,   24.8,   25.3,   25.9,   26.4,   26.9,   28.3,   27.6,   28.2,   30.6,   31.2,   32.2,   33.5,   30.7,   37.6,   35.8,   37.4,  999.0,  999.0,   33.9,   37.6,   40.2,   42.0,   39.2,   41.2,   43.2,   43.1,   42.7,   42.2,   39.7,   38.1,   34.7,   30.5,   28.4,   25.8,  999.0,   27.8,   29.0,  999.0,  999.0,  999.0,  999.0,  999.0,  999.0,  999.0,  999.0,  999.0,  999.0,  999.0,  999.0,   20.7,   21.7,   17.0,   16.7,   11.5,   11.6,   13.1,   15.6,   17.2,   11.6,   13.9,   13.5,    8.2,    6.2,  999.0,  999.0,  999.0,  999.0,  999.0,  999.0
2004/10/19 16:45,  -14.1,  -14.9,  -14.2,  -13.3,  -10.2,   -8.1,   -7.5,   -9.6,   -8.2,   -7.5,   -5.0,   -2.0,   -1.7,    1.5,    2.4,    0.7,    6.8,    6.5,    6.1,    8.4,    9.7,   12.0,   13.9,   15.4,   16.2,   16.6,   17.0,   17.4,   16.7,   16.9,   17.0,   17.4,   17.7,   18.1,   18.2,   18.1,   17.8,   18.9,   19.2,   19.7,   20.4,   20.5,   20.7,   21.4,   22.8,   23.8,   24.2,   24.4,   24.7,   24.6,   25.4,   26.1,   26.5,   27.2,   27.7,   27.2,   27.6,   28.0,   28.2,   30.5,   31.9,   33.7,   33.7,   35.4,   37.1,   37.9,   37.0,  999.0,   35.8,   38.5,  999.0,  999.0,   38.2,   42.7,   43.2,   44.9,   42.6,   42.1,   42.1,   38.4,   38.0,   31.7,   27.5,   25.8,   27.6,   27.4,   29.0,  999.0,  999.0,  999.0,  999.0,   23.2,  999.0,  999.0,  999.0,  999.0,   21.9,  999.0,  999.0,   19.8,  999.0,   22.1,   16.3,   14.5,   14.7,   11.9,   12.2,  999.0,  999.0,   11.3,   10.5,   12.4,  999.0,    6.4,    6.1,  999.0,  999.0,  999.0,  999.0,  999.0
2004/10/19 16:55,  -16.1,  -15.2,  -13.1,  999.0,  999.0,  -11.2,  -10.3,   -8.3,   -7.4,   -2.8,   -2.4,    0.4,    2.1,    5.0,    6.3,    6.8,    1.8,    9.6,   13.5,   16.3,   15.1,   14.7,   16.4,   16.3,   16.9,   16.6,   17.3,   18.3,   18.3,   18.3,   18.3,   18.5,   18.1,   17.9,   18.1,   18.0,   18.3,   18.1,   18.0,   19.1,   19.6,   19.9,   19.8,   21.1,   20.8,   21.1,   22.6,   24.4,   25.4,   26.3,   25.9,   25.0,   24.4,   25.4,   26.3,   27.0,   25.9,   25.7,   27.5,   29.7,   31.7,   31.8,   32.6,   32.3,   33.9,   43.3,   32.3,   35.1,   36.9,   40.2,  999.0,   40.3,   40.1,   43.2,   44.1,  999.0,   45.3,   40.8,   39.2,   40.3,   30.7,   30.3,   28.8,   25.6,   28.0,  999.0,   28.3,  999.0,  999.0,   23.3,  999.0,  999.0,  999.0,  999.0,  999.0,  999.0,  999.0,  999.0,  999.0,  999.0,  999.0,   20.8,  999.0,   14.5,   13.3,   13.3,  999.0,  999.0,   13.4,   12.5,   11.8,   12.3,    5.5,    7.1,  999.0,  999.0,  999.0,  999.0,  999.0,  999.0
2004/10/19 17:05,  -14.7,  -14.9,  999.0,  999.0,   -8.0,   -7.8,   -6.6,   -5.1,   -3.1,    0.1,    4.3,    4.3,   12.9,   11.8,   10.8,  999.0,    9.1,   11.6,   13.5,   12.8,   14.5,   14.1,   14.6,   15.1,   15.7,   15.9,   16.2,   15.9,   16.2,   16.9,   16.9,   16.8,   16.9,   18.0,   17.7,   17.8,   18.7,   18.6,   18.9,   19.2,   19.6,   19.8,   21.2,   21.2,   22.9,   23.6,   25.0,   25.4,   24.8,   24.8,   25.2,   23.5,   24.4,   24.4,   26.3,   25.3,   26.4,   27.7,   29.6,   30.5,   31.5,   32.2,   31.8,  999.0,  999.0,   29.6,   34.7,   34.6,   33.4,   39.6,  999.0,   40.4,   38.3,   40.0,   42.6,   43.0,   44.2,  999.0,   38.5,   35.5,   35.9,   28.7,   26.9,   25.1,   29.4,  999.0,   29.0,   30.6,  999.0,  999.0,  999.0,  999.0,  999.0,  999.0,  999.0,  999.0,  999.0,  999.0,   17.3,  999.0,  999.0,   20.6,   17.7,   15.8,   12.7,   10.8,   12.5,   14.7,  999.0,  999.0,   10.3,   10.2,  999.0,    5.1,  999.0,  999.0,  999.0,  999.0,  999.0,  999.0
2004/10/19 17:15,  -15.1,  -14.5,  -14.0,  999.0,  999.0,   -8.1,   -6.3,   -3.0,    0.7,    2.5,    4.0,    7.5,    7.8,    7.7,    9.7,   12.9,    6.0,   11.1,   10.8,   12.6,   12.6,   12.2,   12.6,   13.3,   13.9,   14.1,   14.9,   15.7,   16.2,   16.0,   16.3,   16.8,   17.0,   17.0,   18.2,   18.9,   19.7,   20.2,   20.2,   19.8,   19.9,   20.9,   23.0,   24.4,   25.3,   26.5,   25.7,   24.8,   25.0,   25.0,   23.4,   22.3,   22.3,   23.4,   25.7,   26.4,   27.1,   27.7,   28.9,   29.4,   30.1,   30.5,   33.2,   31.0,   30.9,   30.0,   33.2,   36.0,   35.6,   39.5,   36.2,   36.3,   39.5,   40.8,   42.8,   43.4,   42.4,   41.5,   41.7,   39.2,   34.5,   29.9,   28.5,  999.0,  999.0,  999.0,  999.0,  999.0,  999.0,  999.0,   39.2,   29.8,  999.0,  999.0,  999.0,  999.0,   18.0,  999.0,   18.0,  999.0,  999.0,   18.4,   19.1,   11.9,   13.3,   10.7,   10.7,  999.0,  999.0,  999.0,  999.0,  999.0,    3.1,    4.4,  999.0,    6.6,  999.0,  999.0,  999.0,  999.0
2004/10/19 17:25,  -15.1,  -15.2,  -15.3,  999.0,  999.0,   -8.0,   -8.1,   -7.1,   -4.8,   -3.4,   -1.2,   -0.1,    0.0,    3.4,    3.3,   11.0,   11.7,   10.3,   12.7,   13.1,   15.1,   16.2,   18.0,   18.5,   18.8,   19.1,   19.1,   18.8,   19.2,   19.1,   19.2,   19.8,   20.1,   20.1,   19.9,   18.6,   18.4,   19.8,   21.6,   23.9,   25.3,   26.1,   26.8,   25.7,   25.3,   26.6,   25.9,   26.1,   23.1,   23.1,   23.6,   24.4,   23.8,   23.5,   25.4,   26.1,   27.7,   27.3,   28.6,   26.6,   30.1,   31.8,  999.0,  999.0,  999.0,   31.4,   33.4,   33.9,  999.0,  999.0,   36.7,   36.1,   39.0,   41.1,  999.0,  999.0,  999.0,  999.0,   39.3,   38.0,   36.1,   32.3,   30.3,  999.0,  999.0,  999.0,  999.0,  999.0,  999.0,  999.0,   12.6,  999.0,  999.0,  999.0,  999.0,   20.4,   19.1,   18.4,  999.0,  999.0,   18.1,   21.6,  999.0,   13.0,   13.7,   10.9,   12.1,   15.6,  999.0,   13.1,    8.5,    9.0,  999.0,  999.0,  999.0,  999.0,  999.0,  999.0,  999.0,  999.0
2004/10/19 17:35,  -16.2,  -14.5,  -14.6,  -14.3,  -10.9,   -8.2,   -7.3,   -5.4,   -1.6,    0.7,    4.4,    6.3,    6.1,    7.5,    9.7,   13.3,   13.9,   15.3,   17.1,   18.9,   18.6,   19.3,   21.9,   21.4,   22.8,   22.7,   23.6,   23.4,   22.8,   23.4,   22.9,   22.8,   22.1,   22.9,   23.6,   24.7,   25.2,   25.2,   24.5,   24.8,   25.7,   25.1,   25.3,   26.5,   26.1,   24.8,   24.1,   23.2,   22.3,   22.6,   22.9,   22.4,   21.7,   22.3,   23.6,   25.2,   25.3,   27.0,   28.4,   29.2,   30.2,   32.5,  999.0,  999.0,  999.0,  999.0,   35.6,  999.0,   37.3,  999.0,   37.4,   37.4,   42.4,   47.6,  999.0,  999.0,  999.0,  999.0,   41.2,   41.9,  999.0,   33.1,   29.5,  999.0,  999.0,  999.0,  999.0,  999.0,  999.0,  999.0,  999.0,   22.9,  999.0,  999.0,  999.0,  999.0,  999.0,  999.0,  999.0,   19.5,   21.1,   22.2,   18.7,   13.0,   11.9,  999.0,  999.0,  999.0,  999.0,    9.5,    9.1,    9.5,  999.0,   18.8,  999.0,    6.8,  999.0,  999.0,  999.0,  999.0
2004/10/19 17:45,  -16.1,  -15.4,  -16.5,  -11.7,   -8.8,   -4.7,   -2.9,    0.2,    3.9,    5.4,    5.5,    7.0,   10.3,   10.7,  999.0,    9.9,   11.0,   10.8,   13.1,   15.0,   14.1,   12.7,   10.8,   12.3,   14.3,   15.7,   17.5,   17.1,   18.6,   18.9,   21.4,   21.3,   19.9,   18.8,   19.2,   19.2,   19.8,   21.2,   23.0,   25.1,   26.6,   25.1,   26.5,   26.1,   25.4,   25.0,   24.1,   22.8,   21.7,   22.5,   22.0,   20.7,   21.4,   21.3,   23.5,   24.6,   26.3,   27.4,   29.0,   28.8,   28.5,   28.7,  999.0,   31.1,   30.9,   31.8,   32.8,   34.5,   35.8,   37.9,   37.3,   36.1,   37.4,   44.7,   48.6,  999.0,  999.0,  999.0,   41.2,   38.7,   38.4,   34.4,   29.4,   29.3,  999.0,   25.5,  999.0,   14.1,  999.0,   27.5,  999.0,  999.0,  999.0,  999.0,  999.0,   16.7,  999.0,   16.4,  999.0,  999.0,   20.0,   19.0,   19.5,   14.0,   13.3,   10.9,   12.3,  999.0,  999.0,  999.0,   12.2,  999.0,  999.0,  999.0,  999.0,  999.0,  999.0,  999.0,  999.0,  999.0
2004/10/19 17:55,  -15.9,  -17.1,  -14.6,  -11.4,   -9.2,   -6.8,   -4.9,   -0.8,    1.1,    2.1,    3.0,    3.4,    1.3,    7.4,    8.8,   10.0,   10.8,   11.6,   15.2,   13.6,   12.7,   12.4,   14.7,   16.5,   16.6,   19.4,   16.5,   16.5,   17.6,   19.0,   19.4,   18.9,   18.6,   18.8,   19.0,   18.5,   18.7,   19.4,   20.5,   22.2,   23.3,   24.9,   26.8,   26.8,   26.4,   25.0,   23.8,   22.2,   20.8,   20.9,   21.2,   21.7,   22.9,   21.8,   22.3,   22.9,   24.9,   24.6,   25.5,   25.6,   26.2,   27.0,   27.1,   27.0,   29.3,   29.8,   32.7,   34.6,   36.1,   38.4,   35.8,   34.5,   38.1,   42.0,   49.7,  999.0,   43.2,  999.0,   39.6,   39.2,   39.9,   35.0,   32.6,   29.5,  999.0,  999.0,  999.0,   27.4,  999.0,   25.1,  999.0,  999.0,   31.1,  999.0,  999.0,  999.0,  999.0,   17.8,   20.2,   24.3,   21.0,   16.0,   17.7,   12.8,   11.4,   11.8,  999.0,   15.8,  999.0,   14.5,  999.0,    9.7,  999.0,    8.5,  999.0,    6.5,  999.0,  999.0,   10.2,  999.0
2004/10/19 18:05,  -14.9,  -13.9,  -11.7,   -9.0,   -7.8,   -6.4,   -5.5,   -4.6,   -1.1,    1.2,   -1.3,    4.2,    6.6,    9.2,   10.5,   11.7,   12.1,   12.8,   14.4,   15.6,   15.8,   17.7,   16.5,   17.1,   17.7,   18.4,   19.7,   20.8,   22.7,   23.5,   23.5,   23.6,   21.6,   19.8,   19.8,   18.3,   18.8,   19.0,   19.8,   20.6,   21.7,   22.5,   23.2,   24.9,   26.9,   27.3,   26.7,   25.3,   23.5,   22.6,   21.8,   20.1,   20.2,   21.1,   21.4,   21.7,   22.8,   23.3,   23.5,   23.5,   24.9,   25.4,   26.9,   27.7,   30.1,   31.9,   33.9,   34.0,   34.9,   35.3,   32.8,   34.4,   35.2,   37.8,   42.3,   46.2,  999.0,  999.0,  999.0,   38.9,   36.9,   39.1,   33.0,   32.0,   28.4,   28.8,  999.0,   28.6,   30.0,   28.0,   25.1,   25.5,  999.0,  999.0,  999.0,  999.0,   18.2,   19.6,   22.0,   23.7,   26.6,   19.9,   18.1,   15.9,   12.7,   12.7,   13.0,   14.7,   14.4,   14.2,   12.5,  999.0,  999.0,    4.7,    4.1,    6.5,  999.0,  999.0,   11.3,  999.0
2004/10/19 18:15,  -14.7,  -14.3,  -11.4,   -7.6,   -6.2,   -5.7,   -4.6,   -3.8,   -1.8,    0.4,    3.3,    3.9,    6.7,    6.6,    7.5,    8.1,    9.3,   11.2,   10.5,   11.7,   13.5,   14.3,   14.8,   15.6,   16.6,   17.0,   17.2,   17.5,   17.4,   18.1,   19.9,   21.1,   23.0,   22.6,   22.0,   22.1,   22.2,   22.3,   22.5,   24.6,   26.9,   27.8,   27.6,   27.0,   28.8,   29.6,   28.1,   25.9,   23.6,   21.6,   20.4,   19.3,   20.3,   20.8,   21.6,   21.9,   22.7,   23.0,   22.5,   23.4,   22.8,   24.8,   27.3,   29.8,   31.8,   33.2,   34.2,   36.2,   35.8,   33.0,   35.1,   34.9,   35.9,   38.3,   41.7,   44.9,  999.0,  999.0,  999.0,  999.0,   38.2,   38.8,   43.0,   31.3,   33.7,  999.0,  999.0,   29.2,   21.2,   29.8,   25.6,   24.9,  999.0,  999.0,  999.0,  999.0,  999.0,   17.9,  999.0,   24.2,  999.0,   21.5,   17.6,   15.0,   12.8,   11.6,   12.4,   14.7,   16.9,   14.3,   15.8,  999.0,  999.0,    2.4,  999.0,    7.3,    8.0,  999.0,  999.0,  999.0
2004/10/19 18:25,  999.0,  999.0,  999.0,  999.0,   -9.5,   -7.5,   -6.9,  999.0,    7.0,    1.3,    6.8,    1.4,    4.2,    6.2,    5.0,    7.1,    8.0,    8.1,    8.7,    9.6,   10.6,   11.6,   13.4,   15.0,   15.8,   16.8,   17.0,   17.4,   18.0,   19.4,   19.2,   19.5,   19.8,   19.2,   17.9,   18.7,   19.0,   19.7,   21.2,   23.4,   26.1,   27.3,   28.2,   28.9,   29.2,   28.2,   27.6,   26.9,   25.5,   24.0,   21.6,   20.4,   19.6,   19.1,   21.2,   21.9,   21.3,   21.6,   21.8,   23.4,   25.4,   27.6,   29.9,   31.2,   32.5,   33.9,   35.7,   35.9,   32.9,   34.5,   31.3,   34.5,   38.0,   40.0,   44.7,   50.4,  999.0,  999.0,  999.0,  999.0,  999.0,   40.8,   41.0,   39.5,   32.7,   32.5,   33.1,   31.1,   36.1,   18.9,  999.0,  999.0,  999.0,  999.0,  999.0,  999.0,  999.0,  999.0,   19.6,   23.8,   21.9,   22.8,  999.0,   15.3,   13.6,   13.2,  999.0,   14.7,  999.0,  999.0,  999.0,  999.0,  999.0,    3.8,  999.0,  999.0,  999.0,  999.0,   10.8,  999.0
2004/10/19 18:35,  -15.6,  -15.2,  999.0,  -10.5,   -8.2,   -7.0,   -4.4,   -0.9,    2.5,    5.6,    3.2,    4.6,    5.7,    7.1,    6.6,    7.3,    5.6,    8.7,   10.6,   13.4,   14.1,   14.8,   16.2,   15.9,   16.2,   15.9,   16.2,   16.5,   16.8,   15.0,   14.9,   14.5,   14.4,   14.1,   15.3,   16.5,   17.4,   19.6,   22.6,   25.0,   27.4,   29.0,   28.9,   29.3,   29.5,   29.2,   29.5,   30.6,   28.7,   25.8,   24.2,   22.1,   21.1,   19.6,   19.2,   20.0,   20.1,   20.5,   21.7,   23.0,   24.6,   26.2,   28.0,   28.7,   29.9,   30.8,   31.8,   33.9,   32.3,   34.6,   34.1,   35.5,   38.5,   41.6,   46.2,  999.0,  999.0,  999.0,  999.0,  999.0,  999.0,   39.2,   38.8,   41.0,   42.9,   31.1,   33.5,   30.8,   35.3,   35.4,   29.3,   25.8,  999.0,  999.0,  999.0,   15.1,  999.0,  999.0,   18.5,   22.9,   22.1,   23.3,   17.2,   13.4,   12.1,   12.1,   13.5,   14.3,   15.0,   14.0,   14.2,    9.1,    6.7,    4.0,  999.0,    5.7,    7.7,    9.4,    9.2,  999.0
2004/10/19 18:45,  -16.3,  -16.4,  -14.5,  -10.8,   -7.8,   -5.1,   -1.7,    0.7,    2.6,    3.0,    3.2,    4.4,    6.0,    8.0,    8.7,   10.3,   12.6,   14.2,   14.1,   14.1,   15.3,   13.8,   15.9,   15.9,   15.6,   15.7,   15.9,   15.9,   16.3,   16.8,   17.5,   18.2,   18.9,   19.0,   19.0,   19.9,   22.4,   23.6,   24.7,   25.9,   27.3,   27.9,   28.2,   27.9,   28.6,   29.2,   28.5,   30.2,   28.1,   27.9,   24.2,   20.9,   19.1,   18.5,   18.0,   18.4,   19.3,   20.8,   23.0,   23.8,   25.4,   26.7,   29.0,   30.2,   31.2,   31.1,   31.5,   32.2,   32.0,   33.9,   33.3,   36.2,   39.9,   43.0,   49.6,   43.5,  999.0,  999.0,  999.0,  999.0,   40.7,  999.0,  999.0,   36.9,   40.1,  999.0,   32.6,   30.8,   29.6,   29.8,   34.1,   27.0,  999.0,  999.0,  999.0,  999.0,  999.0,  999.0,    0.7,   21.9,   21.5,   22.9,   18.5,  999.0,   10.8,   12.1,  999.0,   13.6,   15.6,   13.2,   13.0,    9.5,  999.0,    5.8,  999.0,    9.1,  999.0,  999.0,  999.0,    7.9
2004/10/19 18:55,  -16.4,  -14.9,  -10.7,   -7.2,   -2.0,    1.7,    0.4,    3.4,    6.5,    7.1,    5.3,    6.7,    7.7,    8.7,   11.8,   13.2,   13.1,   13.2,   14.0,   14.1,   13.3,   13.8,   14.6,   15.2,   15.5,   15.0,   15.6,   16.2,   16.6,   16.7,   16.5,   17.5,   18.3,   20.2,   22.4,   23.0,   23.7,   25.0,   26.2,   26.5,   27.1,   27.4,   27.7,   28.0,   28.6,   28.6,   29.7,   30.9,   28.1,   29.4,   26.7,   23.4,   20.4,   20.1,   19.1,   20.7,   21.0,   23.1,   24.4,   25.6,   27.4,   27.9,   30.1,   32.2,   28.5,   30.3,   32.2,   31.8,   32.5,   34.9,   19.3,   38.6,   38.9,   46.5,  999.0,  999.0,  999.0,  999.0,  999.0,  999.0,  999.0,  999.0,  999.0,   35.4,   38.9,   42.1,  999.0,   31.9,   33.2,   32.5,   45.2,  999.0,  999.0,  999.0,   25.4,  999.0,  999.0,  999.0,   40.8,   21.0,   13.4,   14.6,  999.0,   13.9,   10.6,   11.9,   10.9,   13.5,   15.5,   14.5,   13.6,    8.7,  999.0,    4.8,  999.0,  999.0,  999.0,  999.0,    9.9,    6.1
2004/10/19 19:05,  -14.3,  -13.1,   -8.7,   -6.1,    0.7,    2.5,    1.4,    3.6,    7.5,    6.5,    4.0,    8.9,    7.1,    7.9,    7.1,    8.4,    9.8,   11.9,   12.3,   11.9,   12.6,   12.3,   13.1,   14.0,   14.5,   15.3,   17.0,   18.5,   19.0,   19.4,   19.4,   19.5,   21.1,   22.7,   24.4,   23.2,   23.4,   25.1,   25.2,   26.3,   26.8,   26.8,   27.3,   28.5,   28.0,   29.1,   29.4,   30.6,   29.3,   27.7,   27.3,   24.3,   20.2,   19.2,   20.6,   22.5,   23.6,   25.3,   26.1,   27.1,   28.8,   29.4,   30.5,   29.1,   28.5,   28.9,   30.5,   30.8,   32.5,   32.7,   32.2,   36.2,   40.3,   47.4,  999.0,   41.3,   45.1,  999.0,  999.0,  999.0,  999.0,  999.0,  999.0,  999.0,   38.1,   41.0,   39.3,  999.0,   31.7,   28.5,   35.1,  999.0,  999.0,  999.0,  999.0,  999.0,  999.0,  999.0,  999.0,   23.8,   23.7,   21.7,  999.0,  999.0,  999.0,  999.0,   10.9,   13.2,   12.2,   12.2,   12.9,   13.4,  999.0,    4.0,    3.2,    7.8,  999.0,  999.0,    8.2,    6.2
2004/10/19 19:15,  -15.7,  -13.8,  -10.4,   -8.6,   -5.7,   -3.4,   -2.8,   -0.7,    7.6,    2.3,    7.1,   11.2,    8.8,   10.2,    9.5,   12.8,   13.0,   12.5,   10.0,   11.4,   14.5,   13.9,   15.2,   16.1,   16.6,   17.5,   18.4,   19.4,   20.3,   20.9,   21.7,   21.8,   22.2,   23.6,   24.2,   24.7,   24.9,   25.0,   24.8,   26.6,   26.9,   26.5,   26.6,   27.0,   28.1,   25.9,   28.2,   27.9,   28.7,   26.4,   24.9,   23.0,   23.4,   23.3,   24.7,   25.1,   24.6,   25.9,   26.5,   26.9,   26.5,   27.0,   28.8,   26.3,   28.9,   28.7,   29.3,   31.8,   30.8,   31.1,   34.0,   36.1,   38.9,   45.5,  999.0,  999.0,   43.1,   46.9,  999.0,  999.0,  999.0,  999.0,  999.0,  999.0,  999.0,   35.7,   37.9,   40.4,   27.5,   34.4,   34.8,  999.0,  999.0,  999.0,   21.7,   23.6,   17.9,   17.5,   18.9,   21.1,   21.8,   21.4,  999.0,  999.0,   11.8,    9.6,   11.0,   11.8,   14.3,   11.7,   12.2,    9.1,  999.0,    4.3,  999.0,  999.0,    8.4,    8.7,    9.0,    4.7
2004/10/19 19:25,  -16.3,  -13.2,  -10.2,   -5.9,   -3.7,    0.2,    2.5,    4.4,    5.2,    7.4,   10.0,   11.0,   11.2,   13.1,   13.0,   13.6,   14.3,   14.4,   14.4,   14.5,   15.1,   14.7,   15.3,   15.8,   15.7,   16.6,   16.5,   17.5,   18.9,   19.6,   20.8,   21.7,   23.2,   24.3,   25.9,   26.0,   26.3,   25.0,   24.8,   26.2,   25.1,   25.6,   25.5,   26.6,   25.4,   27.0,   28.8,   28.2,   28.7,   26.3,   24.2,   22.6,   24.3,   26.3,   26.0,   24.5,   26.7,   28.3,   28.4,   28.7,   28.1,   28.3,   28.1,   27.9,   28.5,   29.6,   31.1,   30.3,   30.0,   32.4,   34.9,   35.8,   39.5,   43.3,  999.0,  999.0,  999.0,   43.0,  999.0,  999.0,  999.0,  999.0,  999.0,  999.0,  999.0,  999.0,   36.5,   38.3,   39.9,   30.1,   32.9,   34.3,  999.0,  999.0,   23.8,  999.0,   19.9,   19.8,   21.2,   25.7,   25.2,  999.0,  999.0,  999.0,   12.2,   10.1,  999.0,   13.9,  999.0,   11.9,   12.1,  999.0,  999.0,    4.2,    5.6,    7.7,   10.4,  999.0,  999.0,  999.0
2004/10/19 19:35,  -14.4,  -11.5,   -7.7,   -2.8,   -0.8,    2.1,    3.9,    6.7,   10.7,   11.1,   11.6,   12.5,   10.9,   10.2,   10.6,   11.7,   14.6,   15.6,   15.0,   16.2,   14.9,   14.2,   14.5,   16.6,   17.9,   18.3,   18.4,   20.6,   21.5,   22.4,   23.1,   24.3,   25.4,   25.0,   25.5,   24.8,   25.0,   25.2,   24.6,   25.4,   25.8,   26.1,   25.3,   25.9,   27.1,   27.2,   28.8,   28.3,   26.9,   27.6,   24.9,   22.7,   22.1,   24.1,   22.6,   24.6,   27.9,   28.8,   26.9,   28.2,   28.1,   28.8,   29.7,   30.2,   29.0,   32.3,   30.2,   30.6,   30.0,   32.7,   34.7,   34.6,   38.4,   41.3,  999.0,  999.0,  999.0,   41.8,   43.4,  999.0,  999.0,  999.0,  999.0,  999.0,   48.1,   38.2,   39.2,   40.4,  999.0,   28.8,   32.7,   36.1,  999.0,  999.0,  999.0,  999.0,   21.1,   23.3,   22.0,   25.5,  999.0,   23.1,  999.0,  999.0,   12.4,    9.7,   12.6,   13.2,  999.0,   11.1,   12.2,    6.3,    4.4,    4.1,  999.0,  999.0,    8.8,  999.0,    7.9,    4.0
2004/10/19 19:45,  -13.0,   -8.9,   -4.1,   -0.9,    3.0,    3.0,    4.7,    7.7,    9.1,   10.1,    9.9,   10.5,    8.4,    7.8,    8.4,    9.1,   12.5,   12.9,   13.0,   13.7,   14.7,   16.4,   18.2,   19.0,   19.9,   20.5,   19.9,   20.1,   21.3,   22.1,   23.2,   23.9,   24.4,   25.9,   26.4,   26.1,   26.7,   27.4,   27.5,   28.1,   27.3,   26.9,   26.7,   26.5,   26.0,   27.6,   29.1,   29.9,   29.4,   27.1,   26.6,   25.3,   24.1,   23.4,   24.8,   27.1,   27.8,   26.9,   26.8,   27.9,   29.3,   29.9,   30.9,   29.7,   29.8,   31.2,   28.4,   27.5,   29.3,   32.4,   30.7,   33.8,   39.2,  999.0,  999.0,  999.0,   42.3,   41.1,  999.0,   40.0,  999.0,  999.0,   41.5,  999.0,  999.0,  999.0,   36.9,   37.1,   37.6,   43.0,   30.3,   29.8,   33.8,  999.0,  999.0,  999.0,  999.0,   22.8,   23.7,   25.8,   26.5,   25.5,   25.1,  999.0,   13.0,   13.8,   12.3,   14.5,   13.7,   13.2,   14.6,    6.8,    3.3,    3.5,  999.0,  999.0,  999.0,  999.0,    6.8,    7.2
2004/10/19 19:55,  -13.7,   -6.1,   -4.9,   -2.2,    4.2,    1.8,    5.4,    6.2,    6.6,    7.1,    6.8,    5.6,    5.1,    5.3,    5.6,    6.6,    8.8,   12.2,   13.1,   13.2,   14.0,   16.8,   16.4,   17.4,   17.9,   18.7,   19.1,   19.1,   19.5,   21.6,   23.1,   24.3,   24.8,   25.2,   25.8,   26.3,   26.9,   26.2,   26.5,   26.6,   25.4,   25.1,   25.0,   25.5,   25.5,   26.4,   27.6,   27.9,   26.9,   25.0,   24.7,   25.4,   26.5,   26.7,   28.3,   28.2,   28.0,   27.2,   25.3,   27.0,   27.3,   28.8,   28.7,   29.3,   28.3,   29.0,   29.6,   28.7,   32.0,   31.6,   34.5,   38.9,  999.0,  999.0,   38.0,   38.9,  999.0,   40.1,  999.0,   41.3,   45.7,  999.0,  999.0,  999.0,  999.0,  999.0,  999.0,   36.6,   37.3,   36.6,   31.2,   30.6,   32.6,   36.4,  999.0,  999.0,  999.0,  999.0,   20.4,   25.1,   25.9,   23.2,   25.1,   16.2,  999.0,   11.6,   11.2,   14.4,   14.0,   12.7,   13.9,  999.0,    3.2,    3.7,    5.1,  999.0,  999.0,    9.7,  999.0,  999.0
2004/10/19 20:05,  -13.7,   -8.1,   -3.7,   -2.3,    0.7,    4.1,    6.2,    7.3,    8.7,    7.6,    8.5,    8.2,    7.7,    7.7,    8.3,    8.0,    8.2,    9.5,    9.0,   10.2,   11.6,   11.8,   15.5,   17.7,   19.8,   19.8,   20.1,   19.1,   19.7,   20.7,   21.9,   23.5,   23.8,   25.1,   25.8,   26.2,   25.8,   25.0,   26.0,   25.2,   24.6,   25.1,   25.3,   26.1,   26.5,   28.1,   28.9,   28.9,   26.4,   25.0,   26.1,   28.1,   27.7,   27.2,   27.1,   26.8,   26.7,   27.5,   27.4,   27.5,   27.8,   29.2,   30.9,   28.7,   29.7,   30.2,   28.4,   29.1,   31.5,   31.9,   33.0,   38.1,   40.8,   37.3,   41.9,   42.5,   44.0,  999.0,  999.0,  999.0,  999.0,   45.6,  999.0,  999.0,  999.0,  999.0,  999.0,   37.0,   37.5,  999.0,  999.0,   29.8,   31.3,   33.6,  999.0,  999.0,  999.0,  999.0,  999.0,   24.3,   25.7,   26.8,   17.8,   18.0,   10.8,   10.2,    9.9,   12.7,   15.1,   11.4,   11.7,   13.8,    4.8,    3.1,    4.2,  999.0,  999.0,  999.0,  999.0,    4.5
2004/10/19 20:15,  -13.1,  -12.1,   -7.8,   -4.2,   -2.8,   -0.4,    2.4,    4.5,    4.6,    5.3,    5.2,    5.5,    5.6,    6.4,    7.4,    8.4,   10.1,   12.3,   14.5,   16.2,   16.3,   16.9,   17.4,   17.4,   17.8,   17.8,   18.2,   18.3,   18.6,   19.4,   20.7,   21.6,   22.8,   23.8,   24.0,   24.0,   25.3,   26.4,   27.0,   26.5,   26.1,   26.3,   26.1,   25.9,   26.3,   27.9,   27.6,   26.8,   27.5,   27.6,   27.7,   28.3,   28.2,   26.9,   26.9,   26.8,   26.0,   26.1,   27.3,   28.0,   28.0,   29.5,   29.5,   29.1,   28.7,   27.8,   28.3,   28.1,   30.2,   31.6,   33.8,   39.4,  999.0,  999.0,   38.7,   39.4,   38.5,   40.3,   42.8,   45.5,   37.5,   39.1,   39.7,   42.2,  999.0,  999.0,  999.0,   37.5,   41.8,  999.0,   30.6,   33.7,   36.2,   35.8,   32.1,   24.8,  999.0,   22.5,   24.1,   25.7,   27.1,   24.4,   20.7,   14.9,    8.6,  999.0,    8.1,   10.3,   12.8,   14.1,   10.3,    8.2,    3.8,    3.4,    4.3,    9.1,   10.8,  999.0,    8.9,  999.0
2004/10/19 20:25,  -11.4,   -5.5,   -3.7,   -0.4,    1.5,    4.1,    4.2,    5.6,    6.3,    6.0,    6.3,    7.9,    9.2,    9.5,   10.0,   11.8,   13.2,   14.7,   15.4,   16.5,   15.5,   16.2,   16.5,   16.5,   17.1,   17.7,   18.6,   19.3,   19.1,   19.3,   20.3,   20.8,   22.0,   23.0,   23.9,   25.4,   26.1,   26.9,   26.8,   26.2,   25.8,   25.5,   26.0,   26.2,   25.8,   26.3,   27.3,   27.1,   26.6,   25.2,   25.5,   26.9,   30.8,   32.9,   32.8,   29.2,   28.7,   28.1,   26.6,   27.4,   29.1,   29.9,   30.8,   31.9,   31.4,   29.4,   28.8,   29.3,   33.1,   32.5,   36.6,  999.0,  999.0,  999.0,   42.7,  999.0,  999.0,  999.0,   39.0,   43.7,   42.4,  999.0,   41.0,   39.9,  999.0,  999.0,  999.0,   37.1,   40.5,   31.5,   32.8,   33.3,   35.1,   33.4,  999.0,   23.0,   22.7,   19.3,   21.2,   24.8,  999.0,   22.0,  999.0,   16.9,   11.3,    9.4,  999.0,    9.8,   11.8,   13.6,   10.8,   11.4,    5.3,    4.4,    4.7,    9.5,    9.5,    9.8,    7.2,  999.0
2004/10/19 20:35,   -7.0,   -3.7,   -1.4,    1.4,    1.8,    4.7,    5.6,    7.0,    7.7,    8.0,    8.6,   10.7,    9.9,    9.9,   11.5,   12.9,   13.4,   15.2,   14.5,   14.8,   15.7,  999.0,   14.9,   16.3,   17.1,   16.7,   18.1,   19.0,   18.6,   19.8,   20.7,   23.2,   22.8,   22.3,   23.8,   25.3,   26.5,   27.0,   27.4,   27.2,   26.1,   26.9,   27.1,   26.4,   27.1,   27.2,   27.2,   27.1,   25.6,   25.1,   25.6,   26.3,   28.1,   29.3,   28.9,   28.9,   29.0,   27.6,   27.6,   27.3,   29.8,   29.9,   31.1,   30.7,   29.7,   28.9,   30.0,   28.8,   31.4,   33.0,   37.3,   36.3,  999.0,   38.7,  999.0,  999.0,   38.2,   37.1,   40.2,   43.1,   45.2,  999.0,  999.0,   42.2,   41.2,  999.0,  999.0,   37.7,   42.3,  999.0,   30.4,   33.3,   34.6,   32.3,   30.0,   24.9,   21.7,   19.8,   19.8,   24.4,   26.0,  999.0,   15.3,   13.2,   11.0,    9.2,    8.7,    9.9,   11.6,   13.0,   11.3,   12.0,    4.5,    4.1,    5.4,  999.0,  999.0,    8.5,    5.4,  999.0
2004/10/19 20:45,   -8.9,   -4.5,   -2.3,    0.8,    3.1,    5.1,    5.7,    7.3,    8.9,   10.5,   11.1,   12.8,   14.4,   13.6,   15.4,   14.3,   15.1,   14.7,   14.5,   13.9,   15.9,   15.7,   15.0,   15.4,   15.8,   15.8,   17.1,   19.1,   19.0,   19.8,   21.1,   21.3,   20.3,   20.0,   21.2,   22.6,   23.0,   23.1,   23.2,   23.5,   23.7,   25.0,   25.9,   26.8,   27.9,   28.0,   26.5,   27.2,   26.3,   26.0,   27.5,   28.5,   28.9,   28.0,   28.0,   27.3,   28.0,   27.9,   29.0,   29.6,   29.5,   30.5,   30.4,   30.0,   29.0,   27.9,   30.8,   29.1,   31.6,   33.6,   36.8,  999.0,  999.0,   38.6,  999.0,   38.4,   37.9,   38.1,   38.6,   43.1,   43.7,   44.4,  999.0,  999.0,  999.0,  999.0,  999.0,   36.3,   40.7,  999.0,   30.7,   31.6,   34.1,   34.0,   27.3,   26.0,   25.5,   18.4,  999.0,   23.5,   27.7,   29.1,  999.0,   13.4,   11.4,    8.7,    8.2,   10.5,   11.7,   11.8,   10.6,    7.4,    4.0,    4.0,    4.7,  999.0,  999.0,    7.5,    5.1,    4.0
2004/10/19 20:55,   -8.7,   -5.1,   -0.7,    1.7,    3.2,    3.8,    6.1,    7.9,   10.2,   12.6,   11.8,   15.6,   15.0,   16.0,   15.4,   15.5,   14.7,   14.7,   15.1,   16.4,   17.7,   14.3,   14.2,   15.4,   17.1,   18.3,   19.5,   20.7,   20.5,   20.7,   19.1,   18.9,   18.1,   18.1,   18.1,   18.2,   19.1,   20.5,   21.6,   23.5,   24.9,   25.8,   27.2,   29.4,   29.6,   29.1,   26.9,   26.5,   27.9,   27.7,   28.3,   28.9,   29.4,   28.7,   29.7,   26.6,   27.7,   27.4,   29.1,   30.8,   29.6,   31.3,   30.7,   28.4,   29.0,   29.0,   30.2,   31.0,   33.5,   36.9,   40.3,  999.0,   36.8,   36.3,   38.1,   36.8,   38.2,   36.7,   35.3,   40.6,   46.8,   46.3,   44.1,  999.0,   42.2,   43.0,  999.0,   36.1,   41.2,   30.8,   34.3,   35.2,   35.9,   34.6,   45.1,   25.8,   23.4,   22.3,   22.1,   24.7,   27.3,   27.7,  999.0,   14.4,   12.8,   10.6,    9.7,   10.6,   12.7,   12.1,    7.7,    5.6,    3.4,    2.3,    3.5,    8.8,  999.0,    8.4,    6.4,    5.0
2004/10/19 21:05,   -9.9,   -3.9,   -1.5,    2.0,    2.9,    2.7,    5.7,    7.8,   10.2,   13.3,   14.0,   15.3,   14.1,   16.0,   15.8,   15.9,   18.1,   16.1,   15.1,   16.3,   17.2,   16.8,   17.4,   17.3,   17.6,   17.8,   17.9,   16.8,   15.9,   15.6,   15.1,   14.6,   13.5,   12.9,   13.7,   14.8,   16.7,   19.0,   21.7,   23.0,   25.4,   27.1,   29.5,   30.4,   28.6,   28.7,   26.7,   27.5,   28.4,   28.8,   28.7,   29.5,   30.2,   30.2,   30.0,   28.5,   27.7,   28.2,   28.9,   29.8,   29.4,   31.8,   30.1,   30.4,   30.2,   28.4,   29.3,   32.3,   31.9,   34.0,   39.1,  999.0,   35.2,   35.5,   38.5,   36.2,  999.0,   34.2,   39.8,   41.2,   44.7,  999.0,  999.0,  999.0,  999.0,  999.0,   38.2,   36.3,   41.8,   32.1,  999.0,   30.6,   35.1,   29.2,   26.1,   23.2,   20.6,   24.5,   20.2,   20.3,   24.6,   23.9,   20.5,  999.0,   11.0,   10.3,    9.0,   11.8,   12.5,   11.8,   10.5,    8.9,    3.2,    2.9,    4.6,    8.3,    9.3,    8.9,    8.7,    4.2
2004/10/19 21:15,   -8.8,   -6.0,  999.0,  999.0,    3.5,    3.6,    4.6,    8.1,   10.7,   12.5,   12.7,   12.7,   11.7,   11.2,   11.0,   12.8,  999.0,    9.2,   11.7,   12.0,   11.6,   12.2,   12.6,   12.5,   12.8,   12.8,   12.6,   12.4,   12.1,   12.3,   12.3,   12.6,   12.8,   13.0,   13.5,   15.5,   17.6,   20.2,   22.5,   24.4,   26.8,   28.6,   28.1,   27.6,   29.0,   29.2,   28.5,   28.0,   27.8,   27.9,   28.1,   29.1,   29.8,   29.4,   29.6,   29.4,   28.7,   30.0,   30.2,   29.5,   29.2,   30.8,   28.9,   29.2,   28.2,   28.9,   28.7,   31.5,   31.9,   34.2,   33.3,   34.4,   35.0,   34.7,  999.0,  999.0,   34.1,   36.9,   41.7,   41.5,   42.6,  999.0,  999.0,  999.0,  999.0,  999.0,  999.0,   36.2,   39.1,  999.0,  999.0,   30.7,   35.2,   28.8,   21.3,   22.2,   20.7,   20.1,  999.0,   20.8,   21.8,   23.8,   20.6,   18.3,  999.0,   10.7,    9.7,   10.9,   13.0,   12.6,    9.7,    6.2,    3.4,    3.3,    8.1,    9.9,    9.1,    9.6,   10.5,    4.6
2004/10/19 21:25,  -11.2,   -5.9,   -3.2,  999.0,  999.0,    6.0,  999.0,    6.1,    7.4,    7.7,    8.9,   10.3,   11.0,   12.0,   12.3,   11.5,   11.2,   13.5,   13.1,   12.9,   12.5,   13.1,   13.1,   13.5,   13.0,   13.0,   13.1,   13.0,   12.8,   12.9,   13.6,   14.0,   15.3,   16.0,   16.9,   18.0,   20.4,   21.5,   24.1,   25.9,   27.2,   27.7,   25.2,   27.4,   28.9,   28.5,   28.9,   27.9,   27.3,   27.4,   29.1,   29.6,   29.4,   29.4,   28.5,   27.7,   28.8,   29.2,   30.1,   30.8,   30.1,   29.5,   29.2,   28.9,   27.9,   28.6,   29.1,   30.4,   30.3,   33.3,   33.9,   35.4,   35.6,  999.0,   35.2,  999.0,   38.4,   37.5,   39.0,   42.7,   46.6,   40.1,  999.0,  999.0,  999.0,  999.0,  999.0,   36.2,   38.4,   29.1,  999.0,   32.9,   35.7,   32.8,  999.0,   20.9,   20.6,   20.0,  999.0,  999.0,   24.5,   23.4,   21.6,  999.0,   14.8,    9.6,    9.9,   11.4,   12.4,   11.5,    9.3,    4.8,    3.8,  999.0,  999.0,  999.0,  999.0,    9.3,    8.0,    5.3
2004/10/19 21:35,   -9.9,   -6.2,   -3.2,   -0.0,    2.7,    5.6,    6.0,    7.1,    7.6,   10.5,   10.0,   13.1,   14.3,   14.9,   13.4,   13.7,   14.6,   16.1,   12.7,   12.1,   11.8,   13.1,   13.3,   13.7,   13.9,   14.1,   14.1,   13.9,   13.8,   12.7,   13.1,   14.1,   13.3,   12.0,   14.5,   19.7,   22.7,   23.9,   25.0,   27.0,   25.7,   24.1,   24.9,   26.4,   27.8,   27.2,   26.7,   26.8,   27.4,   28.3,   28.4,   29.9,   30.2,   30.2,   27.5,   28.5,   29.3,   30.7,   29.5,   30.8,   30.5,   30.2,   30.6,   29.2,   29.0,   30.6,   30.4,   31.4,   32.7,   34.4,   34.0,   34.6,   35.8,  999.0,   36.1,   37.4,  999.0,   37.7,   38.5,  999.0,   42.6,  999.0,  999.0,  999.0,  999.0,  999.0,   40.4,  999.0,   35.2,   37.5,  999.0,   29.6,   33.0,  999.0,   25.2,   20.4,   16.6,   19.6,  999.0,   17.0,   18.6,   21.3,   21.1,   17.1,   13.5,    8.9,    9.1,   11.4,   11.9,   11.3,  999.0,    4.4,    3.8,  999.0,  999.0,  999.0,  999.0,   10.4,    7.0,  999.0
2004/10/19 21:45,  -11.6,   -6.8,   -3.9,   -1.0,    1.6,    3.9,    4.7,    5.9,    7.1,    7.7,    7.7,    6.9,    7.8,    8.8,    8.6,    9.7,   11.7,   13.8,   13.9,   15.5,   16.1,   16.1,   15.6,   16.2,   16.6,   17.6,   17.8,   17.4,   18.1,   17.5,   18.1,   18.5,   18.3,   19.5,   21.8,   25.1,   26.7,   27.0,   26.5,   26.6,   25.0,   25.2,   26.0,   26.4,   27.2,   27.3,   28.1,   28.7,   28.3,   29.5,   28.5,   28.0,   28.5,   30.6,   29.7,   28.5,   29.6,   28.8,   29.9,   31.8,   31.2,   31.4,   31.7,   30.3,   28.2,   31.0,   31.3,   31.9,   33.8,   35.4,   37.3,   39.7,  999.0,   41.6,  999.0,  999.0,   34.2,   37.9,   39.8,   37.0,  999.0,  999.0,  999.0,  999.0,  999.0,   38.9,   38.1,  999.0,   36.9,  999.0,  999.0,   30.3,   32.8,   34.2,  999.0,   21.7,   19.8,   18.7,   18.0,   18.3,   19.2,   22.6,   20.8,   20.1,   13.6,   10.3,    9.8,   11.7,   12.6,   11.5,  999.0,    4.1,    3.7,    4.7,  999.0,  999.0,  999.0,    7.8,  999.0,    3.9
2004/10/19 21:55,  -11.8,   -6.9,   -4.3,   -1.3,  999.0,    1.4,    2.4,    4.8,    5.8,    6.4,    6.5,    5.1,    6.9,    6.3,    7.8,    8.5,   11.7,   11.6,   13.3,   13.3,   14.4,   15.7,   14.4,   13.8,   14.1,   15.9,   16.2,   16.2,   16.8,   16.9,   18.2,   19.3,   21.7,   24.0,   25.8,   27.0,   25.4,   24.6,   24.8,   25.2,   25.1,   24.3,   25.5,   26.3,   27.0,   26.6,   27.0,   27.4,   27.2,   26.7,   26.3,   27.2,   28.0,   29.2,   30.0,   29.5,   29.6,   29.0,   29.9,   29.9,   30.4,   30.2,   29.8,   28.9,   29.6,   30.0,   30.1,   31.5,   31.5,   33.7,   34.3,   34.6,   34.5,   37.0,  999.0,   35.5,   37.5,   36.2,   41.0,   43.7,   39.7,   42.1,   46.0,  999.0,  999.0,  999.0,  999.0,   37.7,   38.7,   41.2,  999.0,   30.1,   32.9,   31.7,  999.0,   20.9,   20.3,   21.6,  999.0,   18.4,   20.8,   23.2,   20.1,   16.6,   14.3,   12.2,   10.3,   12.6,   13.5,   12.1,    7.1,    4.8,    2.7,  999.0,  999.0,  999.0,    5.4,    7.6,    8.0,    4.6
2004/10/19 22:05,   -9.2,   -6.0,   -4.9,   -2.6,   -1.5,    1.4,    1.3,    2.0,    2.6,    3.4,    4.2,    4.9,    5.9,    7.6,    9.1,   10.0,   10.1,   12.0,   12.4,   13.1,   13.1,   12.4,   13.1,   12.2,   12.9,   13.4,   14.4,   15.5,   17.5,   17.7,   17.4,   18.6,   19.8,   22.0,   25.5,   25.6,   25.8,   25.8,   25.8,   25.7,   25.5,   24.9,   24.3,   26.4,   27.5,   26.8,   26.6,   27.6,   28.5,   28.4,   28.4,   28.4,   27.9,   28.4,   28.1,   28.0,   28.3,   28.0,   28.3,   28.2,   28.6,   28.6,   28.5,   26.4,   27.9,   29.5,   29.7,   32.1,   32.3,   34.8,   34.4,   37.7,   39.7,  999.0,  999.0,   37.8,   38.1,   41.5,  999.0,   38.3,   42.7,   44.4,  999.0,  999.0,  999.0,  999.0,   36.3,   38.5,   39.8,  999.0,  999.0,   30.8,   32.0,   29.9,   26.0,  999.0,   19.7,   21.6,   17.3,  999.0,   21.1,   24.8,   25.5,   15.8,  999.0,   10.5,   10.0,   12.8,   12.9,   10.3,    9.2,    4.1,  999.0,  999.0,  999.0,  999.0,  999.0,    7.6,    8.1,  999.0
2004/10/19 22:15,   -6.4,   -3.8,   -2.2,   -0.7,    0.8,    2.1,    2.8,    3.7,    4.8,    5.3,    5.7,    6.2,    6.7,    7.7,    8.0,    9.9,   11.2,   12.0,   12.4,   13.0,   12.0,   11.8,   12.8,   14.1,   14.7,   15.9,   16.3,   16.7,   17.7,   16.3,   15.5,   16.9,   19.3,   22.6,   25.3,   26.2,   26.2,   26.6,   26.0,   25.7,   25.0,   24.5,   24.7,   25.1,   26.1,   27.5,   27.1,   27.2,   28.3,   28.8,   28.5,   28.0,   27.7,   27.4,   27.3,   27.8,   28.4,   28.7,   28.3,   28.0,   28.1,   29.5,   29.1,   30.1,   30.1,   30.2,   33.3,   30.1,   32.6,   33.6,   34.4,   35.9,   38.2,   39.2,   38.4,   39.0,   37.5,  999.0,  999.0,  999.0,   41.7,   42.3,   45.4,  999.0,  999.0,  999.0,   42.0,   39.7,  999.0,  999.0,  999.0,   32.2,   31.9,   29.5,   25.3,   23.7,   22.3,   18.2,   17.2,   18.6,   21.6,   25.1,   21.2,  999.0,  999.0,   10.1,   11.3,   13.8,   13.3,   10.9,    8.2,    3.8,    4.3,  999.0,  999.0,   11.8,  999.0,    8.3,    8.9,    4.9
2004/10/19 22:25,   -7.3,   -3.4,   -1.8,    0.3,    1.5,    2.3,    1.9,    3.0,    3.9,    4.5,    6.0,    7.8,    8.4,    9.5,   11.5,   13.2,   13.1,   13.8,   14.0,   15.1,   15.9,   15.4,   16.0,   16.5,   16.1,   16.1,   15.7,   15.2,   14.8,   14.5,   14.4,   16.3,   20.4,   23.0,   24.3,   24.3,   25.1,   26.1,   27.1,   27.2,   26.7,   25.6,   25.1,   25.5,   26.7,   27.6,   27.5,   27.8,   28.4,   28.2,   27.8,   27.8,   27.9,   27.7,   27.8,   27.5,   26.8,   26.7,   26.2,   27.6,   27.6,   27.8,   29.1,   29.9,   30.8,   29.8,   31.4,   29.5,   30.4,   32.0,   33.3,   35.9,   38.8,   36.9,  999.0,   37.0,   37.2,   41.6,  999.0,   41.0,   41.0,   40.5,   43.6,   45.1,  999.0,  999.0,  999.0,   36.7,   38.7,  999.0,  999.0,   31.0,   31.5,   27.0,   23.1,   21.2,   19.6,   17.3,   15.9,   18.1,   20.0,   23.7,   24.9,  999.0,   15.8,   11.3,   12.2,   14.1,   13.4,   11.6,    9.5,  999.0,    4.8,    6.9,  999.0,  999.0,  999.0,    8.2,    8.6,    5.8
2004/10/19 22:35,   -7.3,   -2.8,   -0.4,    1.4,    3.0,    4.6,    5.2,    6.9,    8.0,    9.3,   11.5,   12.6,   13.5,   13.2,   12.7,   12.7,   13.0,   13.9,   15.1,   15.5,   16.2,   17.3,   16.3,   14.7,   14.1,   15.2,   15.7,   16.3,   16.0,   16.1,   15.9,   17.3,   20.4,   21.8,   22.6,   23.1,   23.7,   24.4,   25.2,   25.7,   26.3,   25.6,   25.6,   26.8,   27.6,   27.5,   27.0,   27.6,   26.4,   26.2,   26.6,   26.3,   25.4,   25.7,   26.0,   26.5,   26.7,   27.4,   27.5,   26.6,   26.1,   27.0,   28.5,   30.0,   28.7,   29.0,   30.8,   28.9,   31.6,   31.9,   33.3,   34.1,   35.0,   33.5,   34.8,   37.4,   40.7,   42.3,  999.0,   34.0,   39.2,   41.5,   42.7,  999.0,  999.0,  999.0,  999.0,   35.7,   41.7,  999.0,  999.0,   34.8,   29.9,   24.0,   21.0,   22.1,   23.3,   15.9,   16.2,  999.0,   20.7,   24.2,  999.0,  999.0,  999.0,   10.2,   10.9,   13.9,   14.4,   16.5,  999.0,  999.0,    6.5,    6.2,    8.8,    8.1,  999.0,  999.0,    9.5,    7.1
2004/10/19 22:45,   -6.1,   -3.7,   -0.4,    1.4,    4.9,    6.5,    6.8,    8.2,   10.1,   11.4,   11.9,   12.4,   12.9,   12.6,   11.9,   12.5,   12.5,   12.8,   13.9,   14.7,   14.4,   16.9,   15.8,   14.8,   14.7,   15.5,   15.7,   16.9,   16.2,   16.2,   16.4,   17.9,   20.9,   23.0,   24.8,   25.7,   25.4,   25.8,   25.6,   25.8,   25.9,   27.0,   28.3,   27.8,   27.6,   27.7,   26.8,   26.4,   25.1,   27.0,   26.1,   26.8,   26.3,   26.0,   25.9,   26.4,   26.9,   25.9,   26.5,   26.6,   26.2,   27.3,   27.9,   28.5,   27.1,   29.0,   27.4,   29.7,   32.2,   32.0,   34.3,   34.6,   35.4,   33.3,   33.7,   36.8,   40.2,   43.1,   44.2,   39.3,   40.5,   42.1,   43.7,   43.9,  999.0,  999.0,   39.4,   35.2,   42.2,  999.0,   31.1,   33.5,   30.5,   25.2,   19.6,   20.4,   19.5,   16.5,   16.3,   18.2,   21.9,   23.7,   19.6,  999.0,   11.2,   10.2,   11.5,   13.6,   14.7,   15.6,    9.6,  999.0,    6.1,    6.2,    7.6,   11.3,   14.6,   10.5,    9.2,   11.8
2004/10/19 22:55,   -5.6,   -1.2,    0.6,    4.4,    6.7,    7.9,    9.4,   10.1,   10.8,   11.5,   11.4,   11.3,   11.0,   11.2,   12.2,   13.3,   15.1,   15.5,   15.6,   16.2,   16.8,   16.8,   16.7,   16.5,   16.1,   13.8,   14.1,   15.2,   16.2,   15.8,   15.2,   16.0,   19.1,   21.7,   24.3,   25.3,   24.7,   25.1,   24.8,   25.5,   25.6,   25.8,   26.7,   27.9,   27.4,   27.3,   27.2,   27.0,   24.9,   25.3,   26.2,   25.5,   25.7,   25.3,   25.3,   25.3,   25.1,   25.0,   25.2,   24.7,   24.5,   26.7,   27.8,   27.9,   26.6,   28.5,   28.7,   31.2,   34.4,   32.8,   35.6,   32.0,   33.8,   35.2,   34.1,   38.0,   40.7,   43.3,  999.0,  999.0,   37.3,   40.5,   43.4,   45.6,   45.8,  999.0,   39.2,  999.0,   35.9,  999.0,   35.7,   33.3,   29.5,   23.6,   21.6,   20.5,   17.5,   16.3,   16.8,   19.0,   22.7,   23.8,  999.0,  999.0,   13.8,   10.9,   12.2,   13.1,   13.4,   14.0,   12.4,  999.0,  999.0,    5.5,    7.1,   10.2,   12.1,    8.2,    9.8,    8.9
2004/10/19 23:05,   -2.0,    0.2,    3.9,    6.3,    9.2,    8.1,    9.7,   10.3,   10.5,   10.3,    9.8,   10.3,   10.7,   12.2,   12.8,   13.8,   14.5,   14.4,   14.3,   14.6,   14.4,   15.5,   14.1,   14.2,   13.0,   13.4,   14.8,   15.4,   16.7,   15.8,   16.7,   18.8,   19.3,   19.9,   23.1,   24.7,   25.7,   25.1,   25.5,   26.1,   25.8,   26.7,   26.8,   27.7,   26.7,   25.9,   26.1,   26.9,   23.6,   24.2,   26.6,   23.7,   24.0,   24.0,   24.1,   24.4,   23.8,   24.0,   24.5,   24.8,   25.4,   26.1,   25.7,   26.1,   26.2,   26.4,   28.8,   30.3,   31.1,   31.3,   30.3,   31.8,   32.4,   32.9,   34.2,   38.0,   40.5,  999.0,  999.0,   41.2,   41.4,  999.0,   40.3,   41.0,   44.3,  999.0,   39.5,   38.1,   40.0,  999.0,   33.2,   32.9,   31.8,   20.4,   20.0,   21.0,   15.0,   16.2,   17.2,   19.6,   22.9,   21.7,   17.3,  999.0,   10.9,   10.6,   11.8,   12.7,   14.4,   14.4,   13.0,  999.0,  999.0,    5.5,    7.2,    9.5,  999.0,    8.4,   10.2,    7.9
2004/10/19 23:15,   -3.0,    1.3,    5.7,    7.2,    8.6,    8.6,    9.4,   10.2,    9.7,    9.7,   11.0,   11.7,   13.1,   13.2,   14.0,   15.4,   15.8,   15.1,   14.6,   14.2,   14.9,   14.5,   13.1,   13.5,   13.6,   14.1,   15.7,   16.8,   16.7,   15.6,   16.6,   18.7,   18.8,   20.2,   21.8,   23.6,   25.0,   25.7,   25.5,   25.2,   25.3,   25.7,   25.7,   25.3,   27.5,   26.7,   25.2,   25.0,   25.0,   23.6,   25.7,   27.4,   23.8,   23.7,   22.4,   24.7,   24.7,   24.9,   25.4,   24.7,   25.1,   25.5,   25.8,   26.2,   26.2,   28.6,   29.3,   29.7,   30.6,   31.0,   30.8,   30.2,   33.1,   33.8,   35.6,  999.0,  999.0,  999.0,  999.0,  999.0,   40.2,   44.5,  999.0,   42.3,   44.9,  999.0,   38.5,   35.3,  999.0,  999.0,   30.2,   33.1,   26.8,   20.9,   20.3,   19.3,   13.7,   15.7,  999.0,   18.6,   21.7,   20.1,   17.2,  999.0,   11.1,   12.0,   11.9,   13.9,   15.9,   15.4,   14.4,  999.0,  999.0,  999.0,    7.0,    9.1,   12.4,    8.7,  999.0,  999.0
2004/10/19 23:25,   -1.4,   -3.2,    7.4,    9.6,    7.9,    9.8,    9.0,    7.5,    7.7,    5.5,    6.6,   10.8,   11.6,   12.4,   13.5,   12.2,   12.5,   13.2,   12.7,   13.2,   13.2,   13.4,   12.7,   13.1,   13.5,   14.1,   15.5,   16.3,   16.8,   16.5,   17.6,   19.1,   20.4,   21.4,   22.5,   23.6,   26.0,   27.0,   25.4,   25.8,   25.9,   25.9,   24.7,   24.5,   26.5,   26.0,   25.6,   25.2,   25.0,   24.6,   27.0,   25.4,   24.7,   24.1,   24.2,   24.1,   24.4,   25.6,   26.3,   25.2,   25.5,   25.9,   25.5,   26.4,   28.6,   29.8,   29.0,   29.7,   28.3,   29.8,   29.8,   30.0,   31.1,   32.3,   34.9,  999.0,  999.0,  999.0,  999.0,   42.6,   40.6,   43.5,   43.0,   43.6,  999.0,  999.0,   35.8,   38.7,  999.0,  999.0,   34.0,   32.0,   30.8,   23.5,   20.2,   20.2,   13.7,   15.4,   15.8,   18.3,   21.4,   17.0,   14.7,   17.5,   13.2,   13.6,   11.9,   13.3,   15.4,   15.9,   17.2,  999.0,  999.0,  999.0,    8.6,    9.5,   12.8,    9.9,   11.2,    8.5
2004/10/19 23:35,   -0.6,    2.1,    2.9,    5.1,    6.5,    8.1,    6.1,    7.9,    8.4,    9.2,   10.5,   11.7,   12.2,   11.1,   12.0,   13.0,   13.3,   13.7,   13.1,   13.9,   14.9,   15.1,   13.5,   14.2,   15.3,   16.0,   16.9,   17.4,   17.1,   18.2,   18.1,   19.0,   20.2,   21.2,   23.4,   25.2,   26.7,   26.6,   25.5,   24.5,   23.8,   23.4,   23.9,   23.8,   24.3,   25.0,   26.1,   25.1,   24.9,   25.4,   26.4,   25.0,   24.6,   24.3,   24.7,   24.0,   25.0,   25.8,   25.5,   26.1,   26.2,   26.6,   27.2,   29.9,   28.1,   27.9,   29.4,   29.7,   30.4,   28.8,   30.2,   30.5,   32.3,   32.1,  999.0,  999.0,  999.0,  999.0,  999.0,  999.0,   38.8,   42.6,   45.4,   43.8,   45.5,   41.8,   38.5,   40.0,  999.0,  999.0,   31.0,   35.1,   30.0,   24.3,   21.9,   21.5,   17.9,   17.6,   16.6,   19.6,   21.9,  999.0,  999.0,  999.0,   13.3,   12.2,   12.8,   12.5,   14.2,   14.1,   15.8,  999.0,  999.0,  999.0,    6.7,    9.9,   10.9,    9.6,   11.3,    7.3
2004/10/19 23:45,    2.0,    5.6,    7.6,    9.5,   11.0,   10.2,    7.4,    9.1,    9.8,   10.5,   11.3,   11.6,   11.5,   11.9,   11.9,   12.6,   13.7,   13.8,   15.2,   14.9,   15.9,   15.4,   13.7,   14.2,   14.7,   15.4,   16.3,   16.6,   16.4,   17.5,   18.4,   19.7,   20.9,   23.0,   24.7,   25.7,   26.1,   25.3,   25.2,   25.0,   24.5,   24.6,   25.5,   25.9,   25.8,   26.1,   25.6,   24.4,   24.0,   25.3,   25.7,   25.4,   24.7,   23.2,   23.5,   23.3,   24.0,   24.7,   24.7,   25.5,   26.8,   27.6,   27.7,   26.7,   27.3,   27.0,   28.8,   28.8,   29.8,   29.1,   27.5,   31.9,  999.0,  999.0,  999.0,   37.1,   42.3,  999.0,  999.0,   39.9,   41.7,   42.8,   43.9,   43.1,   42.5,  999.0,   38.8,  999.0,  999.0,  999.0,   32.6,   30.1,   27.2,   22.4,   20.2,   20.4,   16.4,  999.0,   16.0,   18.9,   22.6,   16.3,   16.4,   14.7,  999.0,   11.3,   11.8,   12.5,   14.3,   15.1,   15.6,   14.4,  999.0,  999.0,    7.4,    9.4,  999.0,   10.3,   11.1,  999.0
2004/10/19 23:55,    3.3,    5.3,    7.7,    8.8,    8.1,    7.6,    7.5,    9.2,    9.8,    9.9,    9.7,   10.6,    9.3,    8.7,   10.2,   10.5,   11.6,   12.5,   13.2,   14.4,   14.1,   15.5,   14.5,   15.1,   15.5,   15.3,   15.4,   14.9,   14.9,   17.0,   17.4,   18.9,   20.2,   22.0,   23.7,   24.5,   25.5,   26.4,   27.0,   27.0,   27.8,   25.7,   25.9,   25.9,   26.5,   25.7,   25.3,   24.6,   24.0,   25.6,   25.1,   24.5,   24.5,   24.3,   25.1,   23.7,   24.4,   24.9,   25.6,   25.3,   26.1,   26.6,   26.0,   26.0,   27.1,   28.1,   28.7,   28.8,   30.4,   30.1,   29.9,  999.0,  999.0,  999.0,   32.2,   36.3,   42.4,  999.0,  999.0,   40.4,   43.3,   45.0,   43.3,   43.4,   43.6,  999.0,   36.3,   42.3,  999.0,  999.0,   32.8,   33.9,   30.5,   23.1,   20.7,   20.9,   18.3,   17.5,   16.2,   19.0,   21.8,   16.0,  999.0,   15.6,   13.3,   12.3,   12.2,   12.6,   14.5,   15.5,   15.1,   14.8,  999.0,  999.0,    8.3,   11.0,   12.1,    9.8,    9.9,  999.0
